Spring River (Missouri), Waco (07186000)

StateMissouriLatestLow (282 cfs)
RiverSpring RiverRatingObservedEstimated
Updated2020-08-07 12:30 (1 hour ago)Flood - The river is flooding. Obstacles can be treacherous or deadly. The river should be avoided at this stage for casual trips and definitely for the inexperienced. Trips should be attempted only with protective gear and equipment.Flood(none)4293
Discharge282 cfs (median: 161 cfs)High - The river is high and potentially dangerous, especially for the young and / or inexperienced. Normal stream obstacles are sometimes difficult to navigate. Extended distances can be attempted, but canoe travel may not be advisable.High(none)573
Height2.12 feetGood - Conditions are ideal for a canoe or kayak. Boats typically will drag on fewer than one-quarter of riffles, if at all, and portages are unnecessary or rare. Normal float lengths can be attempted without a problem.Good(none)523
TrendFalling (rising over 24 hours)Low - River is low but can still be floated. Some riffles are okay but most come with significant dragging and might need a portage. Float lengths should be reduced to accommodate low flow, dragging, and portages.Low(none)263
USGSExternal icon USGS Site (External icon Google Maps)Poor - River is too low to float comfortably. Most or all riffles will drag or must be portaged and some obstacles (such as slick shelf rock) cause undue problems. Avoid the river at this stage for casual paddling trips.Poor(none)49

Trending Data

Plot Image

Trips for Spring River (Missouri), Waco (07186000)

DateStartEndDistanceConditionDischargeHeightFishingDetails

A total of 0 rows are displayed.

Condition Descriptions

Fishing Conditions

Fish Species

Notes

Classic Trip List

The classic River Trips application is still available for use. It is updated with the new system using a data retrofit. It is no longer maintained. The original River Trips application is no longer updated (as of 1 Dec 2016) but can be checked for errors or for the condition of the data before it was converted to the new system.

Gauge Data Table

ObservationHeightDischargeMaximum
Discharge
Minimum
Discharge
Mean
Discharge
P05P10P20P25P50
(Median)
P75P80P90P95
2020-08-07 12:30 2.12 282 12300 (1927) 10 (1954) 552 36 51 71 83 161 306 358 950 2040
2020-08-07 11:30 2.20 315 12300 (1927) 10 (1954) 552 36 51 71 83 161 306 358 950 2040
2020-08-07 10:30 2.15 294 12300 (1927) 10 (1954) 552 36 51 71 83 161 306 358 950 2040
2020-08-07 09:30 2.16 299 12300 (1927) 10 (1954) 552 36 51 71 83 161 306 358 950 2040
2020-08-07 08:30 2.15 294 12300 (1927) 10 (1954) 552 36 51 71 83 161 306 358 950 2040
2020-08-07 07:30 2.13 286 12300 (1927) 10 (1954) 552 36 51 71 83 161 306 358 950 2040
2020-08-07 06:30 2.10 275 12300 (1927) 10 (1954) 552 36 51 71 83 161 306 358 950 2040
2020-08-07 05:30 2.09 271 12300 (1927) 10 (1954) 552 36 51 71 83 161 306 358 950 2040
2020-08-07 04:30 2.08 267 12300 (1927) 10 (1954) 552 36 51 71 83 161 306 358 950 2040
2020-08-07 03:30 2.09 271 12300 (1927) 10 (1954) 552 36 51 71 83 161 306 358 950 2040
2020-08-07 02:30 2.10 275 12300 (1927) 10 (1954) 552 36 51 71 83 161 306 358 950 2040
2020-08-07 01:30 2.10 275 12300 (1927) 10 (1954) 552 36 51 71 83 161 306 358 950 2040
2020-08-07 00:30 2.11 278 12300 (1927) 10 (1954) 552 36 51 71 83 161 306 358 950 2040
2020-08-06 23:30 2.12 282 6920 (2013) 13 (1954) 465 37 55 75 86 151 344 409 1110 1620
2020-08-06 22:30 2.14 290 6920 (2013) 13 (1954) 465 37 55 75 86 151 344 409 1110 1620
2020-08-06 21:30 2.16 299 6920 (2013) 13 (1954) 465 37 55 75 86 151 344 409 1110 1620
2020-08-06 20:30 2.17 303 6920 (2013) 13 (1954) 465 37 55 75 86 151 344 409 1110 1620
2020-08-06 19:30 2.18 307 6920 (2013) 13 (1954) 465 37 55 75 86 151 344 409 1110 1620
2020-08-06 18:30 2.17 303 6920 (2013) 13 (1954) 465 37 55 75 86 151 344 409 1110 1620
2020-08-06 17:30 2.11 278 6920 (2013) 13 (1954) 465 37 55 75 86 151 344 409 1110 1620
2020-08-06 16:30 2.08 267 6920 (2013) 13 (1954) 465 37 55 75 86 151 344 409 1110 1620
2020-08-06 15:30 2.09 271 6920 (2013) 13 (1954) 465 37 55 75 86 151 344 409 1110 1620
2020-08-06 14:30 2.09 271 6920 (2013) 13 (1954) 465 37 55 75 86 151 344 409 1110 1620
2020-08-06 13:30 2.09 271 6920 (2013) 13 (1954) 465 37 55 75 86 151 344 409 1110 1620
2020-08-06 12:30 2.09 271 6920 (2013) 13 (1954) 465 37 55 75 86 151 344 409 1110 1620
2020-08-06 11:30 2.09 271 6920 (2013) 13 (1954) 465 37 55 75 86 151 344 409 1110 1620
2020-08-06 10:30 2.09 271 6920 (2013) 13 (1954) 465 37 55 75 86 151 344 409 1110 1620
2020-08-06 09:30 2.10 275 6920 (2013) 13 (1954) 465 37 55 75 86 151 344 409 1110 1620
2020-08-06 08:30 2.11 278 6920 (2013) 13 (1954) 465 37 55 75 86 151 344 409 1110 1620
2020-08-06 07:30 2.10 275 6920 (2013) 13 (1954) 465 37 55 75 86 151 344 409 1110 1620
2020-08-06 06:30 2.11 278 6920 (2013) 13 (1954) 465 37 55 75 86 151 344 409 1110 1620
2020-08-06 05:30 2.11 278 6920 (2013) 13 (1954) 465 37 55 75 86 151 344 409 1110 1620
2020-08-06 04:30 2.12 282 6920 (2013) 13 (1954) 465 37 55 75 86 151 344 409 1110 1620
2020-08-06 03:30 2.12 282 6920 (2013) 13 (1954) 465 37 55 75 86 151 344 409 1110 1620
2020-08-06 02:30 2.13 286 6920 (2013) 13 (1954) 465 37 55 75 86 151 344 409 1110 1620
2020-08-06 01:30 2.13 286 6920 (2013) 13 (1954) 465 37 55 75 86 151 344 409 1110 1620
2020-08-06 00:30 2.13 286 6920 (2013) 13 (1954) 465 37 55 75 86 151 344 409 1110 1620
2020-08-05 23:30 2.13 286 9290 (2013) 11 (1954) 476 41 50 83 94 155 354 486 816 1920
2020-08-05 22:30 2.13 286 9290 (2013) 11 (1954) 476 41 50 83 94 155 354 486 816 1920
2020-08-05 21:30 2.14 290 9290 (2013) 11 (1954) 476 41 50 83 94 155 354 486 816 1920
2020-08-05 20:30 2.15 294 9290 (2013) 11 (1954) 476 41 50 83 94 155 354 486 816 1920
2020-08-05 19:30 2.15 294 9290 (2013) 11 (1954) 476 41 50 83 94 155 354 486 816 1920
2020-08-05 18:30 2.16 299 9290 (2013) 11 (1954) 476 41 50 83 94 155 354 486 816 1920
2020-08-05 17:30 2.15 294 9290 (2013) 11 (1954) 476 41 50 83 94 155 354 486 816 1920
2020-08-05 16:30 2.17 303 9290 (2013) 11 (1954) 476 41 50 83 94 155 354 486 816 1920
2020-08-05 15:30 2.17 303 9290 (2013) 11 (1954) 476 41 50 83 94 155 354 486 816 1920
2020-08-05 14:30 2.17 303 9290 (2013) 11 (1954) 476 41 50 83 94 155 354 486 816 1920
2020-08-05 13:30 2.17 303 9290 (2013) 11 (1954) 476 41 50 83 94 155 354 486 816 1920
2020-08-05 12:30 2.18 307 9290 (2013) 11 (1954) 476 41 50 83 94 155 354 486 816 1920
2020-08-05 11:30 2.19 311 9290 (2013) 11 (1954) 476 41 50 83 94 155 354 486 816 1920
2020-08-05 10:30 2.19 311 9290 (2013) 11 (1954) 476 41 50 83 94 155 354 486 816 1920
2020-08-05 09:30 2.19 311 9290 (2013) 11 (1954) 476 41 50 83 94 155 354 486 816 1920
2020-08-05 08:30 2.20 315 9290 (2013) 11 (1954) 476 41 50 83 94 155 354 486 816 1920
2020-08-05 07:30 2.21 319 9290 (2013) 11 (1954) 476 41 50 83 94 155 354 486 816 1920
2020-08-05 06:30 2.22 324 9290 (2013) 11 (1954) 476 41 50 83 94 155 354 486 816 1920
2020-08-05 05:30 2.21 319 9290 (2013) 11 (1954) 476 41 50 83 94 155 354 486 816 1920
2020-08-05 04:30 2.23 328 9290 (2013) 11 (1954) 476 41 50 83 94 155 354 486 816 1920
2020-08-05 03:30 2.23 328 9290 (2013) 11 (1954) 476 41 50 83 94 155 354 486 816 1920
2020-08-05 02:30 2.23 328 9290 (2013) 11 (1954) 476 41 50 83 94 155 354 486 816 1920
2020-08-05 01:30 2.25 336 9290 (2013) 11 (1954) 476 41 50 83 94 155 354 486 816 1920
2020-08-05 00:30 2.25 336 9290 (2013) 11 (1954) 476 41 50 83 94 155 354 486 816 1920
2020-08-04 23:30 2.24 332 6800 (2013) 10 (1954) 414 30 48 84 89 146 366 471 838 1560
2020-08-04 22:30 2.25 336 6800 (2013) 10 (1954) 414 30 48 84 89 146 366 471 838 1560
2020-08-04 21:30 2.26 341 6800 (2013) 10 (1954) 414 30 48 84 89 146 366 471 838 1560
2020-08-04 20:30 2.26 341 6800 (2013) 10 (1954) 414 30 48 84 89 146 366 471 838 1560
2020-08-04 19:30 2.27 345 6800 (2013) 10 (1954) 414 30 48 84 89 146 366 471 838 1560
2020-08-04 18:30 2.28 350 6800 (2013) 10 (1954) 414 30 48 84 89 146 366 471 838 1560
2020-08-04 17:30 2.30 358 6800 (2013) 10 (1954) 414 30 48 84 89 146 366 471 838 1560
2020-08-04 16:30 2.30 358 6800 (2013) 10 (1954) 414 30 48 84 89 146 366 471 838 1560
2020-08-04 15:30 2.31 363 6800 (2013) 10 (1954) 414 30 48 84 89 146 366 471 838 1560
2020-08-04 14:30 2.32 367 6800 (2013) 10 (1954) 414 30 48 84 89 146 366 471 838 1560
2020-08-04 13:30 2.32 367 6800 (2013) 10 (1954) 414 30 48 84 89 146 366 471 838 1560
2020-08-04 12:30 2.34 376 6800 (2013) 10 (1954) 414 30 48 84 89 146 366 471 838 1560
2020-08-04 11:30 2.34 376 6800 (2013) 10 (1954) 414 30 48 84 89 146 366 471 838 1560
2020-08-04 10:30 2.36 386 6800 (2013) 10 (1954) 414 30 48 84 89 146 366 471 838 1560
2020-08-04 09:30 2.37 390 6800 (2013) 10 (1954) 414 30 48 84 89 146 366 471 838 1560
2020-08-04 08:30 2.38 395 6800 (2013) 10 (1954) 414 30 48 84 89 146 366 471 838 1560
2020-08-04 07:30 2.39 400 6800 (2013) 10 (1954) 414 30 48 84 89 146 366 471 838 1560
2020-08-04 06:30 2.39 400 6800 (2013) 10 (1954) 414 30 48 84 89 146 366 471 838 1560
2020-08-04 05:30 2.41 409 6800 (2013) 10 (1954) 414 30 48 84 89 146 366 471 838 1560
2020-08-04 04:30 2.43 419 6800 (2013) 10 (1954) 414 30 48 84 89 146 366 471 838 1560
2020-08-04 03:30 2.43 419 6800 (2013) 10 (1954) 414 30 48 84 89 146 366 471 838 1560
2020-08-04 02:30 2.45 428 6800 (2013) 10 (1954) 414 30 48 84 89 146 366 471 838 1560
2020-08-04 01:30 2.45 428 6800 (2013) 10 (1954) 414 30 48 84 89 146 366 471 838 1560
2020-08-04 00:30 2.47 438 6800 (2013) 10 (1954) 414 30 48 84 89 146 366 471 838 1560
2020-08-03 23:30 2.47 438 3770 (1933) 12 (1954) 305 31 51 83 99 160 332 377 668 1140
2020-08-03 22:30 2.48 442 3770 (1933) 12 (1954) 305 31 51 83 99 160 332 377 668 1140
2020-08-03 21:30 2.50 452 3770 (1933) 12 (1954) 305 31 51 83 99 160 332 377 668 1140
2020-08-03 20:30 2.52 461 3770 (1933) 12 (1954) 305 31 51 83 99 160 332 377 668 1140
2020-08-03 19:30 2.53 466 3770 (1933) 12 (1954) 305 31 51 83 99 160 332 377 668 1140
2020-08-03 18:30 2.54 471 3770 (1933) 12 (1954) 305 31 51 83 99 160 332 377 668 1140
2020-08-03 17:30 2.57 485 3770 (1933) 12 (1954) 305 31 51 83 99 160 332 377 668 1140
2020-08-03 16:30 2.58 490 3770 (1933) 12 (1954) 305 31 51 83 99 160 332 377 668 1140
2020-08-03 15:30 2.60 500 3770 (1933) 12 (1954) 305 31 51 83 99 160 332 377 668 1140
2020-08-03 14:30 2.61 504 3770 (1933) 12 (1954) 305 31 51 83 99 160 332 377 668 1140
2020-08-03 13:30 2.62 509 3770 (1933) 12 (1954) 305 31 51 83 99 160 332 377 668 1140
2020-08-03 12:30 2.65 524 3770 (1933) 12 (1954) 305 31 51 83 99 160 332 377 668 1140
2020-08-03 11:30 2.67 534 3770 (1933) 12 (1954) 305 31 51 83 99 160 332 377 668 1140
2020-08-03 10:30 2.69 545 3770 (1933) 12 (1954) 305 31 51 83 99 160 332 377 668 1140
2020-08-03 09:30 2.72 560 3770 (1933) 12 (1954) 305 31 51 83 99 160 332 377 668 1140
2020-08-03 08:30 2.74 570 3770 (1933) 12 (1954) 305 31 51 83 99 160 332 377 668 1140
2020-08-03 07:30 2.75 575 3770 (1933) 12 (1954) 305 31 51 83 99 160 332 377 668 1140
2020-08-03 06:30 2.79 596 3770 (1933) 12 (1954) 305 31 51 83 99 160 332 377 668 1140
2020-08-03 05:30 2.81 607 3770 (1933) 12 (1954) 305 31 51 83 99 160 332 377 668 1140
2020-08-03 04:30 2.84 623 3770 (1933) 12 (1954) 305 31 51 83 99 160 332 377 668 1140
2020-08-03 03:30 2.86 634 3770 (1933) 12 (1954) 305 31 51 83 99 160 332 377 668 1140
2020-08-03 02:30 2.90 656 3770 (1933) 12 (1954) 305 31 51 83 99 160 332 377 668 1140
2020-08-03 01:30 2.94 678 3770 (1933) 12 (1954) 305 31 51 83 99 160 332 377 668 1140
2020-08-03 00:30 2.97 695 3770 (1933) 12 (1954) 305 31 51 83 99 160 332 377 668 1140
2020-08-02 23:30 3.01 718 2890 (2013) 10 (1954) 313 33 54 87 97 161 315 377 719 944
2020-08-02 22:30 3.04 736 2890 (2013) 10 (1954) 313 33 54 87 97 161 315 377 719 944
2020-08-02 21:30 3.11 779 2890 (2013) 10 (1954) 313 33 54 87 97 161 315 377 719 944
2020-08-02 20:30 3.14 797 2890 (2013) 10 (1954) 313 33 54 87 97 161 315 377 719 944
2020-08-02 19:30 3.20 829 2890 (2013) 10 (1954) 313 33 54 87 97 161 315 377 719 944
2020-08-02 18:30 3.22 842 2890 (2013) 10 (1954) 313 33 54 87 97 161 315 377 719 944
2020-08-02 17:30 3.29 887 2890 (2013) 10 (1954) 313 33 54 87 97 161 315 377 719 944
2020-08-02 16:30 3.36 933 2890 (2013) 10 (1954) 313 33 54 87 97 161 315 377 719 944
2020-08-02 15:30 3.43 980 2890 (2013) 10 (1954) 313 33 54 87 97 161 315 377 719 944
2020-08-02 14:30 3.52 1040 2890 (2013) 10 (1954) 313 33 54 87 97 161 315 377 719 944
2020-08-02 13:30 3.58 1080 2890 (2013) 10 (1954) 313 33 54 87 97 161 315 377 719 944
2020-08-02 12:30 3.66 1140 2890 (2013) 10 (1954) 313 33 54 87 97 161 315 377 719 944
2020-08-02 11:30 3.75 1200 2890 (2013) 10 (1954) 313 33 54 87 97 161 315 377 719 944
2020-08-02 10:30 3.84 1270 2890 (2013) 10 (1954) 313 33 54 87 97 161 315 377 719 944
2020-08-02 09:30 3.91 1320 2890 (2013) 10 (1954) 313 33 54 87 97 161 315 377 719 944
2020-08-02 08:30 4.01 1390 2890 (2013) 10 (1954) 313 33 54 87 97 161 315 377 719 944
2020-08-02 07:30 4.13 1480 2890 (2013) 10 (1954) 313 33 54 87 97 161 315 377 719 944
2020-08-02 06:30 4.18 1520 2890 (2013) 10 (1954) 313 33 54 87 97 161 315 377 719 944
2020-08-02 05:30 4.29 1600 2890 (2013) 10 (1954) 313 33 54 87 97 161 315 377 719 944
2020-08-02 04:30 4.39 1680 2890 (2013) 10 (1954) 313 33 54 87 97 161 315 377 719 944
2020-08-02 03:30 4.49 1760 2890 (2013) 10 (1954) 313 33 54 87 97 161 315 377 719 944
2020-08-02 02:30 4.53 1790 2890 (2013) 10 (1954) 313 33 54 87 97 161 315 377 719 944
2020-08-02 01:30 4.65 1890 2890 (2013) 10 (1954) 313 33 54 87 97 161 315 377 719 944
2020-08-02 00:30 4.75 1970 2890 (2013) 10 (1954) 313 33 54 87 97 161 315 377 719 944
2020-08-01 23:30 4.82 2030 4940 (1989) 8 (1954) 346 35 54 90 105 168 316 401 599 1160
2020-08-01 22:30 4.93 2120 4940 (1989) 8 (1954) 346 35 54 90 105 168 316 401 599 1160
2020-08-01 21:30 5.03 2200 4940 (1989) 8 (1954) 346 35 54 90 105 168 316 401 599 1160
2020-08-01 20:30 5.10 2270 4940 (1989) 8 (1954) 346 35 54 90 105 168 316 401 599 1160
2020-08-01 19:30 5.20 2350 4940 (1989) 8 (1954) 346 35 54 90 105 168 316 401 599 1160
2020-08-01 18:30 5.27 2410 4940 (1989) 8 (1954) 346 35 54 90 105 168 316 401 599 1160
2020-08-01 17:30 5.42 2540 4940 (1989) 8 (1954) 346 35 54 90 105 168 316 401 599 1160
2020-08-01 16:30 5.56 2670 4940 (1989) 8 (1954) 346 35 54 90 105 168 316 401 599 1160
2020-08-01 15:30 5.68 2770 4940 (1989) 8 (1954) 346 35 54 90 105 168 316 401 599 1160
2020-08-01 14:30 5.80 2880 4940 (1989) 8 (1954) 346 35 54 90 105 168 316 401 599 1160
2020-08-01 13:30 5.98 3040 4940 (1989) 8 (1954) 346 35 54 90 105 168 316 401 599 1160
2020-08-01 12:30 6.08 3130 4940 (1989) 8 (1954) 346 35 54 90 105 168 316 401 599 1160
2020-08-01 11:30 6.34 3370 4940 (1989) 8 (1954) 346 35 54 90 105 168 316 401 599 1160
2020-08-01 10:30 6.49 3510 4940 (1989) 8 (1954) 346 35 54 90 105 168 316 401 599 1160
2020-08-01 09:30 6.67 3680 4940 (1989) 8 (1954) 346 35 54 90 105 168 316 401 599 1160
2020-08-01 08:30 6.80 3810 4940 (1989) 8 (1954) 346 35 54 90 105 168 316 401 599 1160
2020-08-01 07:30 6.99 3990 4940 (1989) 8 (1954) 346 35 54 90 105 168 316 401 599 1160
2020-08-01 06:30 7.06 4060 4940 (1989) 8 (1954) 346 35 54 90 105 168 316 401 599 1160
2020-08-01 05:30 7.24 4240 4940 (1989) 8 (1954) 346 35 54 90 105 168 316 401 599 1160
2020-08-01 04:30 7.35 4340 4940 (1989) 8 (1954) 346 35 54 90 105 168 316 401 599 1160
2020-08-01 03:30 7.38 4370 4940 (1989) 8 (1954) 346 35 54 90 105 168 316 401 599 1160
2020-08-01 02:30 7.46 4450 4940 (1989) 8 (1954) 346 35 54 90 105 168 316 401 599 1160
2020-08-01 01:30 7.37 4360 4940 (1989) 8 (1954) 346 35 54 90 105 168 316 401 599 1160
2020-08-01 00:30 7.38 4370 4940 (1989) 8 (1954) 346 35 54 90 105 168 316 401 599 1160
2020-07-31 23:30 7.28 4280 18100 (2013) 8 (1954) 472 40 56 89 102 181 349 395 657 1240
2020-07-31 22:30 7.20 4200 18100 (2013) 8 (1954) 472 40 56 89 102 181 349 395 657 1240
2020-07-31 21:30 7.04 4040 18100 (2013) 8 (1954) 472 40 56 89 102 181 349 395 657 1240
2020-07-31 20:30 6.92 3930 18100 (2013) 8 (1954) 472 40 56 89 102 181 349 395 657 1240
2020-07-31 19:30 6.78 3790 18100 (2013) 8 (1954) 472 40 56 89 102 181 349 395 657 1240
2020-07-31 18:30 6.74 3750 18100 (2013) 8 (1954) 472 40 56 89 102 181 349 395 657 1240
2020-07-31 17:30 6.75 3760 18100 (2013) 8 (1954) 472 40 56 89 102 181 349 395 657 1240
2020-07-31 16:30 6.74 3750 18100 (2013) 8 (1954) 472 40 56 89 102 181 349 395 657 1240
2020-07-31 15:30 6.80 3810 18100 (2013) 8 (1954) 472 40 56 89 102 181 349 395 657 1240
2020-07-31 14:30 6.82 3830 18100 (2013) 8 (1954) 472 40 56 89 102 181 349 395 657 1240
2020-07-31 13:30 6.81 3820 18100 (2013) 8 (1954) 472 40 56 89 102 181 349 395 657 1240
2020-07-31 12:30 6.83 3840 18100 (2013) 8 (1954) 472 40 56 89 102 181 349 395 657 1240
2020-07-31 11:30 6.80 3810 18100 (2013) 8 (1954) 472 40 56 89 102 181 349 395 657 1240
2020-07-31 10:30 6.64 3650 18100 (2013) 8 (1954) 472 40 56 89 102 181 349 395 657 1240
2020-07-31 09:30 6.41 3440 18100 (2013) 8 (1954) 472 40 56 89 102 181 349 395 657 1240
2020-07-31 08:30 6.18 3230 18100 (2013) 8 (1954) 472 40 56 89 102 181 349 395 657 1240
2020-07-31 07:30 6.03 3090 18100 (2013) 8 (1954) 472 40 56 89 102 181 349 395 657 1240
2020-07-31 06:30 5.93 2990 18100 (2013) 8 (1954) 472 40 56 89 102 181 349 395 657 1240
2020-07-31 05:30 5.93 2990 18100 (2013) 8 (1954) 472 40 56 89 102 181 349 395 657 1240
2020-07-31 04:30 5.95 3010 18100 (2013) 8 (1954) 472 40 56 89 102 181 349 395 657 1240
2020-07-31 03:30 5.95 3010 18100 (2013) 8 (1954) 472 40 56 89 102 181 349 395 657 1240
2020-07-31 02:30 6.13 3180 18100 (2013) 8 (1954) 472 40 56 89 102 181 349 395 657 1240
2020-07-31 01:30 6.27 3300 18100 (2013) 8 (1954) 472 40 56 89 102 181 349 395 657 1240
2020-07-31 00:30 6.35 3380 18100 (2013) 8 (1954) 472 40 56 89 102 181 349 395 657 1240
2020-07-30 23:30 6.50 3520 11300 (2013) 9 (1954) 408 37 57 91 103 197 373 406 691 1230
2020-07-30 22:30 6.60 3620 11300 (2013) 9 (1954) 408 37 57 91 103 197 373 406 691 1230
2020-07-30 21:30 6.63 3640 11300 (2013) 9 (1954) 408 37 57 91 103 197 373 406 691 1230
2020-07-30 20:30 6.67 3680 11300 (2013) 9 (1954) 408 37 57 91 103 197 373 406 691 1230
2020-07-30 19:30 6.76 3770 11300 (2013) 9 (1954) 408 37 57 91 103 197 373 406 691 1230
2020-07-30 18:30 6.78 3790 11300 (2013) 9 (1954) 408 37 57 91 103 197 373 406 691 1230
2020-07-30 17:30 6.79 3800 11300 (2013) 9 (1954) 408 37 57 91 103 197 373 406 691 1230
2020-07-30 16:30 6.72 3730 11300 (2013) 9 (1954) 408 37 57 91 103 197 373 406 691 1230
2020-07-30 15:30 6.58 3600 11300 (2013) 9 (1954) 408 37 57 91 103 197 373 406 691 1230
2020-07-30 14:30 6.32 3350 11300 (2013) 9 (1954) 408 37 57 91 103 197 373 406 691 1230
2020-07-30 13:30 6.03 3090 11300 (2013) 9 (1954) 408 37 57 91 103 197 373 406 691 1230
2020-07-30 12:30 5.70 2790 11300 (2013) 9 (1954) 408 37 57 91 103 197 373 406 691 1230
2020-07-30 11:30 5.29 2430 11300 (2013) 9 (1954) 408 37 57 91 103 197 373 406 691 1230
2020-07-30 10:30 4.93 2120 11300 (2013) 9 (1954) 408 37 57 91 103 197 373 406 691 1230
2020-07-30 09:30 4.80 2010 11300 (2013) 9 (1954) 408 37 57 91 103 197 373 406 691 1230
2020-07-30 08:30 4.80 2010 11300 (2013) 9 (1954) 408 37 57 91 103 197 373 406 691 1230
2020-07-30 07:30 4.77 1990 11300 (2013) 9 (1954) 408 37 57 91 103 197 373 406 691 1230
2020-07-30 06:30 4.71 1940 11300 (2013) 9 (1954) 408 37 57 91 103 197 373 406 691 1230
2020-07-30 05:30 4.58 1830 11300 (2013) 9 (1954) 408 37 57 91 103 197 373 406 691 1230
2020-07-30 04:30 4.34 1640 11300 (2013) 9 (1954) 408 37 57 91 103 197 373 406 691 1230
2020-07-30 03:30 3.88 1290 11300 (2013) 9 (1954) 408 37 57 91 103 197 373 406 691 1230
2020-07-30 02:30 3.44 987 11300 (2013) 9 (1954) 408 37 57 91 103 197 373 406 691 1230
2020-07-30 01:30 3.22 842 11300 (2013) 9 (1954) 408 37 57 91 103 197 373 406 691 1230
2020-07-30 00:30 3.18 816 11300 (2013) 9 (1954) 408 37 57 91 103 197 373 406 691 1230
2020-07-29 23:30 3.21 835 3510 (1958) 7 (1954) 333 44 58 92 103 211 363 388 544 1520
2020-07-29 22:30 3.18 816 3510 (1958) 7 (1954) 333 44 58 92 103 211 363 388 544 1520
2020-07-29 21:30 3.22 842 3510 (1958) 7 (1954) 333 44 58 92 103 211 363 388 544 1520
2020-07-29 20:30 3.22 842 3510 (1958) 7 (1954) 333 44 58 92 103 211 363 388 544 1520
2020-07-29 19:30 3.30 893 3510 (1958) 7 (1954) 333 44 58 92 103 211 363 388 544 1520
2020-07-29 18:30 3.37 940 3510 (1958) 7 (1954) 333 44 58 92 103 211 363 388 544 1520
2020-07-29 17:30 3.39 953 3510 (1958) 7 (1954) 333 44 58 92 103 211 363 388 544 1520
2020-07-29 16:30 3.39 953 3510 (1958) 7 (1954) 333 44 58 92 103 211 363 388 544 1520
2020-07-29 15:30 3.39 953 3510 (1958) 7 (1954) 333 44 58 92 103 211 363 388 544 1520
2020-07-29 14:30 3.35 926 3510 (1958) 7 (1954) 333 44 58 92 103 211 363 388 544 1520
2020-07-29 13:30 3.28 880 3510 (1958) 7 (1954) 333 44 58 92 103 211 363 388 544 1520
2020-07-29 12:30 3.24 854 3510 (1958) 7 (1954) 333 44 58 92 103 211 363 388 544 1520
2020-07-29 11:30 3.13 791 3510 (1958) 7 (1954) 333 44 58 92 103 211 363 388 544 1520
2020-07-29 10:30 3.05 742 3510 (1958) 7 (1954) 333 44 58 92 103 211 363 388 544 1520
2020-07-29 09:30 2.94 678 3510 (1958) 7 (1954) 333 44 58 92 103 211 363 388 544 1520
2020-07-29 08:30 2.89 651 3510 (1958) 7 (1954) 333 44 58 92 103 211 363 388 544 1520
2020-07-29 07:30 2.90 656 3510 (1958) 7 (1954) 333 44 58 92 103 211 363 388 544 1520
2020-07-29 06:30 2.92 667 3510 (1958) 7 (1954) 333 44 58 92 103 211 363 388 544 1520
2020-07-29 05:30 3.00 712 3510 (1958) 7 (1954) 333 44 58 92 103 211 363 388 544 1520
2020-07-29 04:30 3.06 748 3510 (1958) 7 (1954) 333 44 58 92 103 211 363 388 544 1520
2020-07-29 03:30 3.13 791 3510 (1958) 7 (1954) 333 44 58 92 103 211 363 388 544 1520
2020-07-29 02:30 3.22 842 3510 (1958) 7 (1954) 333 44 58 92 103 211 363 388 544 1520
2020-07-29 01:30 3.28 880 3510 (1958) 7 (1954) 333 44 58 92 103 211 363 388 544 1520
2020-07-29 00:30 3.38 946 3510 (1958) 7 (1954) 333 44 58 92 103 211 363 388 544 1520
2020-07-28 23:30 3.49 1020 5790 (1958) 5 (1954) 434 45 60 100 108 222 388 436 754 1670
2020-07-28 22:30 3.56 1060 5790 (1958) 5 (1954) 434 45 60 100 108 222 388 436 754 1670
2020-07-28 21:30 3.65 1130 5790 (1958) 5 (1954) 434 45 60 100 108 222 388 436 754 1670
2020-07-28 20:30 3.71 1170 5790 (1958) 5 (1954) 434 45 60 100 108 222 388 436 754 1670
2020-07-28 19:30 3.79 1230 5790 (1958) 5 (1954) 434 45 60 100 108 222 388 436 754 1670
2020-07-28 18:30 3.81 1250 5790 (1958) 5 (1954) 434 45 60 100 108 222 388 436 754 1670
2020-07-28 17:30 3.81 1250 5790 (1958) 5 (1954) 434 45 60 100 108 222 388 436 754 1670
2020-07-28 16:30 3.65 1130 5790 (1958) 5 (1954) 434 45 60 100 108 222 388 436 754 1670
2020-07-28 15:30 3.30 893 5790 (1958) 5 (1954) 434 45 60 100 108 222 388 436 754 1670
2020-07-28 14:30 2.72 560 5790 (1958) 5 (1954) 434 45 60 100 108 222 388 436 754 1670
2020-07-28 13:30 2.44 423 5790 (1958) 5 (1954) 434 45 60 100 108 222 388 436 754 1670
2020-07-28 12:30 2.47 438 5790 (1958) 5 (1954) 434 45 60 100 108 222 388 436 754 1670
2020-07-28 11:30 2.56 480 5790 (1958) 5 (1954) 434 45 60 100 108 222 388 436 754 1670
2020-07-28 10:30 2.63 514 5790 (1958) 5 (1954) 434 45 60 100 108 222 388 436 754 1670
2020-07-28 09:30 2.66 529 5790 (1958) 5 (1954) 434 45 60 100 108 222 388 436 754 1670
2020-07-28 08:30 2.67 534 5790 (1958) 5 (1954) 434 45 60 100 108 222 388 436 754 1670
2020-07-28 07:30 2.58 490 5790 (1958) 5 (1954) 434 45 60 100 108 222 388 436 754 1670
2020-07-28 06:30 2.32 367 5790 (1958) 5 (1954) 434 45 60 100 108 222 388 436 754 1670
2020-07-28 05:30 2.07 263 5790 (1958) 5 (1954) 434 45 60 100 108 222 388 436 754 1670
2020-07-28 04:30 1.98 229 5790 (1958) 5 (1954) 434 45 60 100 108 222 388 436 754 1670
2020-07-28 03:30 1.96 222 5790 (1958) 5 (1954) 434 45 60 100 108 222 388 436 754 1670
2020-07-28 02:30 1.93 212 5790 (1958) 5 (1954) 434 45 60 100 108 222 388 436 754 1670
2020-07-28 01:30 1.91 205 5790 (1958) 5 (1954) 434 45 60 100 108 222 388 436 754 1670
2020-07-28 00:30 1.89 198 5790 (1958) 5 (1954) 434 45 60 100 108 222 388 436 754 1670
2020-07-27 23:30 1.90 202 13400 (1948) 6 (1954) 517 34 61 105 117 223 380 436 564 2280
2020-07-27 22:30 1.90 202 13400 (1948) 6 (1954) 517 34 61 105 117 223 380 436 564 2280
2020-07-27 21:30 1.91 205 13400 (1948) 6 (1954) 517 34 61 105 117 223 380 436 564 2280
2020-07-27 20:30 1.91 205 13400 (1948) 6 (1954) 517 34 61 105 117 223 380 436 564 2280
2020-07-27 19:30 1.90 202 13400 (1948) 6 (1954) 517 34 61 105 117 223 380 436 564 2280
2020-07-27 18:30 1.87 192 13400 (1948) 6 (1954) 517 34 61 105 117 223 380 436 564 2280
2020-07-27 17:30 1.85 185 13400 (1948) 6 (1954) 517 34 61 105 117 223 380 436 564 2280
2020-07-27 16:30 1.82 175 13400 (1948) 6 (1954) 517 34 61 105 117 223 380 436 564 2280
2020-07-27 15:30 1.82 175 13400 (1948) 6 (1954) 517 34 61 105 117 223 380 436 564 2280
2020-07-27 14:30 1.82 175 13400 (1948) 6 (1954) 517 34 61 105 117 223 380 436 564 2280
2020-07-27 13:30 1.82 175 13400 (1948) 6 (1954) 517 34 61 105 117 223 380 436 564 2280
2020-07-27 12:30 1.82 175 13400 (1948) 6 (1954) 517 34 61 105 117 223 380 436 564 2280
2020-07-27 11:30 1.82 175 13400 (1948) 6 (1954) 517 34 61 105 117 223 380 436 564 2280
2020-07-27 10:30 1.82 175 13400 (1948) 6 (1954) 517 34 61 105 117 223 380 436 564 2280
2020-07-27 09:30 1.81 172 13400 (1948) 6 (1954) 517 34 61 105 117 223 380 436 564 2280
2020-07-27 08:30 1.82 175 13400 (1948) 6 (1954) 517 34 61 105 117 223 380 436 564 2280
2020-07-27 07:30 1.81 172 13400 (1948) 6 (1954) 517 34 61 105 117 223 380 436 564 2280
2020-07-27 06:30 1.81 172 13400 (1948) 6 (1954) 517 34 61 105 117 223 380 436 564 2280
2020-07-27 05:30 1.81 172 13400 (1948) 6 (1954) 517 34 61 105 117 223 380 436 564 2280
2020-07-27 04:30 1.80 169 13400 (1948) 6 (1954) 517 34 61 105 117 223 380 436 564 2280
2020-07-27 03:30 1.80 169 13400 (1948) 6 (1954) 517 34 61 105 117 223 380 436 564 2280
2020-07-27 02:30 1.81 172 13400 (1948) 6 (1954) 517 34 61 105 117 223 380 436 564 2280
2020-07-27 01:30 1.81 172 13400 (1948) 6 (1954) 517 34 61 105 117 223 380 436 564 2280
2020-07-27 00:30 1.81 172 13400 (1948) 6 (1954) 517 34 61 105 117 223 380 436 564 2280
2020-07-26 23:30 1.81 172 11800 (1948) 9 (1954) 510 36 62 107 123 218 409 463 614 1470
2020-07-26 22:30 1.81 172 11800 (1948) 9 (1954) 510 36 62 107 123 218 409 463 614 1470
2020-07-26 21:30 1.81 172 11800 (1948) 9 (1954) 510 36 62 107 123 218 409 463 614 1470
2020-07-26 20:30 1.81 172 11800 (1948) 9 (1954) 510 36 62 107 123 218 409 463 614 1470
2020-07-26 19:30 1.81 172 11800 (1948) 9 (1954) 510 36 62 107 123 218 409 463 614 1470
2020-07-26 18:30 1.82 175 11800 (1948) 9 (1954) 510 36 62 107 123 218 409 463 614 1470
2020-07-26 17:30 1.82 175 11800 (1948) 9 (1954) 510 36 62 107 123 218 409 463 614 1470
2020-07-26 16:30 1.82 175 11800 (1948) 9 (1954) 510 36 62 107 123 218 409 463 614 1470
2020-07-26 15:30 1.82 175 11800 (1948) 9 (1954) 510 36 62 107 123 218 409 463 614 1470
2020-07-26 14:30 1.82 175 11800 (1948) 9 (1954) 510 36 62 107 123 218 409 463 614 1470
2020-07-26 13:30 1.83 179 11800 (1948) 9 (1954) 510 36 62 107 123 218 409 463 614 1470
2020-07-26 12:30 1.83 179 11800 (1948) 9 (1954) 510 36 62 107 123 218 409 463 614 1470
2020-07-26 11:30 1.83 179 11800 (1948) 9 (1954) 510 36 62 107 123 218 409 463 614 1470
2020-07-26 10:30 1.83 179 11800 (1948) 9 (1954) 510 36 62 107 123 218 409 463 614 1470
2020-07-26 09:30 1.83 179 11800 (1948) 9 (1954) 510 36 62 107 123 218 409 463 614 1470
2020-07-26 08:30 1.83 179 11800 (1948) 9 (1954) 510 36 62 107 123 218 409 463 614 1470
2020-07-26 07:30 1.83 179 11800 (1948) 9 (1954) 510 36 62 107 123 218 409 463 614 1470
2020-07-26 06:30 1.83 179 11800 (1948) 9 (1954) 510 36 62 107 123 218 409 463 614 1470
2020-07-26 05:30 1.83 179 11800 (1948) 9 (1954) 510 36 62 107 123 218 409 463 614 1470
2020-07-26 04:30 1.84 182 11800 (1948) 9 (1954) 510 36 62 107 123 218 409 463 614 1470
2020-07-26 03:30 1.83 179 11800 (1948) 9 (1954) 510 36 62 107 123 218 409 463 614 1470
2020-07-26 02:30 1.83 179 11800 (1948) 9 (1954) 510 36 62 107 123 218 409 463 614 1470
2020-07-26 01:30 1.84 182 11800 (1948) 9 (1954) 510 36 62 107 123 218 409 463 614 1470
2020-07-26 00:30 1.84 182 11800 (1948) 9 (1954) 510 36 62 107 123 218 409 463 614 1470
2020-07-25 23:30 1.84 182 9710 (1958) 14 (1954) 437 36 64 106 120 230 439 477 777 1550
2020-07-25 22:30 1.84 182 9710 (1958) 14 (1954) 437 36 64 106 120 230 439 477 777 1550
2020-07-25 21:30 1.84 182 9710 (1958) 14 (1954) 437 36 64 106 120 230 439 477 777 1550
2020-07-25 20:30 1.85 185 9710 (1958) 14 (1954) 437 36 64 106 120 230 439 477 777 1550
2020-07-25 19:30 1.84 182 9710 (1958) 14 (1954) 437 36 64 106 120 230 439 477 777 1550
2020-07-25 18:30 1.85 185 9710 (1958) 14 (1954) 437 36 64 106 120 230 439 477 777 1550
2020-07-25 17:30 1.84 182 9710 (1958) 14 (1954) 437 36 64 106 120 230 439 477 777 1550
2020-07-25 16:30 1.85 185 9710 (1958) 14 (1954) 437 36 64 106 120 230 439 477 777 1550
2020-07-25 15:30 1.86 188 9710 (1958) 14 (1954) 437 36 64 106 120 230 439 477 777 1550
2020-07-25 14:30 1.86 188 9710 (1958) 14 (1954) 437 36 64 106 120 230 439 477 777 1550
2020-07-25 13:30 1.86 188 9710 (1958) 14 (1954) 437 36 64 106 120 230 439 477 777 1550
2020-07-25 12:30 1.87 192 9710 (1958) 14 (1954) 437 36 64 106 120 230 439 477 777 1550
2020-07-25 11:30 1.86 188 9710 (1958) 14 (1954) 437 36 64 106 120 230 439 477 777 1550
2020-07-25 10:30 1.87 192 9710 (1958) 14 (1954) 437 36 64 106 120 230 439 477 777 1550
2020-07-25 09:30 1.87 192 9710 (1958) 14 (1954) 437 36 64 106 120 230 439 477 777 1550
2020-07-25 08:30 1.87 192 9710 (1958) 14 (1954) 437 36 64 106 120 230 439 477 777 1550
2020-07-25 07:30 1.87 192 9710 (1958) 14 (1954) 437 36 64 106 120 230 439 477 777 1550
2020-07-25 06:30 1.87 192 9710 (1958) 14 (1954) 437 36 64 106 120 230 439 477 777 1550
2020-07-25 05:30 1.87 192 9710 (1958) 14 (1954) 437 36 64 106 120 230 439 477 777 1550
2020-07-25 04:30 1.87 192 9710 (1958) 14 (1954) 437 36 64 106 120 230 439 477 777 1550
2020-07-25 03:30 1.88 195 9710 (1958) 14 (1954) 437 36 64 106 120 230 439 477 777 1550
2020-07-25 02:30 1.87 192 9710 (1958) 14 (1954) 437 36 64 106 120 230 439 477 777 1550
2020-07-25 01:30 1.88 195 9710 (1958) 14 (1954) 437 36 64 106 120 230 439 477 777 1550
2020-07-25 00:30 1.88 195 9710 (1958) 14 (1954) 437 36 64 106 120 230 439 477 777 1550
2020-07-24 23:30 1.87 192 6800 (1992) 12 (1934) 496 37 57 108 121 222 412 546 884 2030
2020-07-24 22:30 1.88 195 6800 (1992) 12 (1934) 496 37 57 108 121 222 412 546 884 2030
2020-07-24 21:30 1.88 195 6800 (1992) 12 (1934) 496 37 57 108 121 222 412 546 884 2030
2020-07-24 20:30 1.88 195 6800 (1992) 12 (1934) 496 37 57 108 121 222 412 546 884 2030
2020-07-24 19:30 1.88 195 6800 (1992) 12 (1934) 496 37 57 108 121 222 412 546 884 2030
2020-07-24 18:30 1.88 195 6800 (1992) 12 (1934) 496 37 57 108 121 222 412 546 884 2030
2020-07-24 17:30 1.89 198 6800 (1992) 12 (1934) 496 37 57 108 121 222 412 546 884 2030
2020-07-24 16:30 1.89 198 6800 (1992) 12 (1934) 496 37 57 108 121 222 412 546 884 2030
2020-07-24 15:30 1.89 198 6800 (1992) 12 (1934) 496 37 57 108 121 222 412 546 884 2030
2020-07-24 14:30 1.90 202 6800 (1992) 12 (1934) 496 37 57 108 121 222 412 546 884 2030
2020-07-24 13:30 1.91 205 6800 (1992) 12 (1934) 496 37 57 108 121 222 412 546 884 2030
2020-07-24 12:30 1.90 202 6800 (1992) 12 (1934) 496 37 57 108 121 222 412 546 884 2030
2020-07-24 11:30 1.91 205 6800 (1992) 12 (1934) 496 37 57 108 121 222 412 546 884 2030
2020-07-24 10:30 1.91 205 6800 (1992) 12 (1934) 496 37 57 108 121 222 412 546 884 2030
2020-07-24 09:30 1.91 205 6800 (1992) 12 (1934) 496 37 57 108 121 222 412 546 884 2030
2020-07-24 08:30 1.91 205 6800 (1992) 12 (1934) 496 37 57 108 121 222 412 546 884 2030
2020-07-24 07:30 1.91 205 6800 (1992) 12 (1934) 496 37 57 108 121 222 412 546 884 2030
2020-07-24 06:30 1.91 205 6800 (1992) 12 (1934) 496 37 57 108 121 222 412 546 884 2030
2020-07-24 05:30 1.91 205 6800 (1992) 12 (1934) 496 37 57 108 121 222 412 546 884 2030
2020-07-24 04:30 1.92 208 6800 (1992) 12 (1934) 496 37 57 108 121 222 412 546 884 2030
2020-07-24 03:30 1.91 205 6800 (1992) 12 (1934) 496 37 57 108 121 222 412 546 884 2030
2020-07-24 02:30 1.92 208 6800 (1992) 12 (1934) 496 37 57 108 121 222 412 546 884 2030
2020-07-24 01:30 1.92 208 6800 (1992) 12 (1934) 496 37 57 108 121 222 412 546 884 2030
2020-07-24 00:30 1.92 208 6800 (1992) 12 (1934) 496 37 57 108 121 222 412 546 884 2030
2020-07-23 23:30 1.92 208 13900 (1927) 13 (1954) 695 42 64 97 125 206 446 553 956 2950
2020-07-23 22:30 1.91 205 13900 (1927) 13 (1954) 695 42 64 97 125 206 446 553 956 2950
2020-07-23 21:30 1.91 205 13900 (1927) 13 (1954) 695 42 64 97 125 206 446 553 956 2950
2020-07-23 20:30 1.92 208 13900 (1927) 13 (1954) 695 42 64 97 125 206 446 553 956 2950
2020-07-23 19:30 1.91 205 13900 (1927) 13 (1954) 695 42 64 97 125 206 446 553 956 2950
2020-07-23 18:30 1.91 205 13900 (1927) 13 (1954) 695 42 64 97 125 206 446 553 956 2950
2020-07-23 17:30 1.91 205 13900 (1927) 13 (1954) 695 42 64 97 125 206 446 553 956 2950
2020-07-23 16:30 1.92 208 13900 (1927) 13 (1954) 695 42 64 97 125 206 446 553 956 2950
2020-07-23 15:30 1.92 208 13900 (1927) 13 (1954) 695 42 64 97 125 206 446 553 956 2950
2020-07-23 14:30 1.92 208 13900 (1927) 13 (1954) 695 42 64 97 125 206 446 553 956 2950
2020-07-23 13:30 1.92 208 13900 (1927) 13 (1954) 695 42 64 97 125 206 446 553 956 2950
2020-07-23 12:30 1.92 208 13900 (1927) 13 (1954) 695 42 64 97 125 206 446 553 956 2950
2020-07-23 11:30 1.93 212 13900 (1927) 13 (1954) 695 42 64 97 125 206 446 553 956 2950
2020-07-23 10:30 1.93 212 13900 (1927) 13 (1954) 695 42 64 97 125 206 446 553 956 2950
2020-07-23 09:30 1.93 212 13900 (1927) 13 (1954) 695 42 64 97 125 206 446 553 956 2950
2020-07-23 08:30 1.93 212 13900 (1927) 13 (1954) 695 42 64 97 125 206 446 553 956 2950
2020-07-23 07:30 1.93 212 13900 (1927) 13 (1954) 695 42 64 97 125 206 446 553 956 2950
2020-07-23 06:30 1.93 212 13900 (1927) 13 (1954) 695 42 64 97 125 206 446 553 956 2950
2020-07-23 05:30 1.93 212 13900 (1927) 13 (1954) 695 42 64 97 125 206 446 553 956 2950
2020-07-23 04:30 1.94 215 13900 (1927) 13 (1954) 695 42 64 97 125 206 446 553 956 2950
2020-07-23 03:30 1.94 215 13900 (1927) 13 (1954) 695 42 64 97 125 206 446 553 956 2950
2020-07-23 02:30 1.94 215 13900 (1927) 13 (1954) 695 42 64 97 125 206 446 553 956 2950
2020-07-23 01:30 1.94 215 13900 (1927) 13 (1954) 695 42 64 97 125 206 446 553 956 2950
2020-07-23 00:30 1.94 215 13900 (1927) 13 (1954) 695 42 64 97 125 206 446 553 956 2950
2020-07-22 23:30 1.94 215 11200 (1927) 14 (1954) 510 49 71 92 121 203 429 523 866 1430
2020-07-22 22:30 1.94 215 11200 (1927) 14 (1954) 510 49 71 92 121 203 429 523 866 1430
2020-07-22 21:30 1.95 219 11200 (1927) 14 (1954) 510 49 71 92 121 203 429 523 866 1430
2020-07-22 20:30 1.95 219 11200 (1927) 14 (1954) 510 49 71 92 121 203 429 523 866 1430
2020-07-22 19:30 1.94 215 11200 (1927) 14 (1954) 510 49 71 92 121 203 429 523 866 1430
2020-07-22 18:30 1.95 219 11200 (1927) 14 (1954) 510 49 71 92 121 203 429 523 866 1430
2020-07-22 17:30 1.95 219 11200 (1927) 14 (1954) 510 49 71 92 121 203 429 523 866 1430
2020-07-22 16:30 1.95 219 11200 (1927) 14 (1954) 510 49 71 92 121 203 429 523 866 1430
2020-07-22 15:30 1.95 219 11200 (1927) 14 (1954) 510 49 71 92 121 203 429 523 866 1430
2020-07-22 14:30 1.95 219 11200 (1927) 14 (1954) 510 49 71 92 121 203 429 523 866 1430
2020-07-22 13:30 1.95 219 11200 (1927) 14 (1954) 510 49 71 92 121 203 429 523 866 1430
2020-07-22 12:30 1.95 219 11200 (1927) 14 (1954) 510 49 71 92 121 203 429 523 866 1430
2020-07-22 11:30 1.95 219 11200 (1927) 14 (1954) 510 49 71 92 121 203 429 523 866 1430
2020-07-22 10:30 1.95 219 11200 (1927) 14 (1954) 510 49 71 92 121 203 429 523 866 1430
2020-07-22 09:30 1.96 222 11200 (1927) 14 (1954) 510 49 71 92 121 203 429 523 866 1430
2020-07-22 08:30 1.96 222 11200 (1927) 14 (1954) 510 49 71 92 121 203 429 523 866 1430
2020-07-22 07:30 1.96 222 11200 (1927) 14 (1954) 510 49 71 92 121 203 429 523 866 1430
2020-07-22 06:30 1.96 222 11200 (1927) 14 (1954) 510 49 71 92 121 203 429 523 866 1430
2020-07-22 05:30 1.97 226 11200 (1927) 14 (1954) 510 49 71 92 121 203 429 523 866 1430
2020-07-22 04:30 1.97 226 11200 (1927) 14 (1954) 510 49 71 92 121 203 429 523 866 1430
2020-07-22 03:30 1.97 226 11200 (1927) 14 (1954) 510 49 71 92 121 203 429 523 866 1430
2020-07-22 02:30 1.98 229 11200 (1927) 14 (1954) 510 49 71 92 121 203 429 523 866 1430
2020-07-22 01:30 1.98 229 11200 (1927) 14 (1954) 510 49 71 92 121 203 429 523 866 1430
2020-07-22 00:30 1.97 226 11200 (1927) 14 (1954) 510 49 71 92 121 203 429 523 866 1430
2020-07-21 23:30 1.98 229 3980 (1927) 14 (1954) 448 50 72 93 118 212 415 491 1240 1790
2020-07-21 22:30 2.00 237 3980 (1927) 14 (1954) 448 50 72 93 118 212 415 491 1240 1790
2020-07-21 21:30 2.00 237 3980 (1927) 14 (1954) 448 50 72 93 118 212 415 491 1240 1790
2020-07-21 20:30 2.02 244 3980 (1927) 14 (1954) 448 50 72 93 118 212 415 491 1240 1790
2020-07-21 19:30 2.03 248 3980 (1927) 14 (1954) 448 50 72 93 118 212 415 491 1240 1790
2020-07-21 18:30 2.03 248 3980 (1927) 14 (1954) 448 50 72 93 118 212 415 491 1240 1790
2020-07-21 17:30 2.00 237 3980 (1927) 14 (1954) 448 50 72 93 118 212 415 491 1240 1790
2020-07-21 16:30 1.99 233 3980 (1927) 14 (1954) 448 50 72 93 118 212 415 491 1240 1790
2020-07-21 15:30 1.99 233 3980 (1927) 14 (1954) 448 50 72 93 118 212 415 491 1240 1790
2020-07-21 14:30 2.00 237 3980 (1927) 14 (1954) 448 50 72 93 118 212 415 491 1240 1790
2020-07-21 13:30 2.00 237 3980 (1927) 14 (1954) 448 50 72 93 118 212 415 491 1240 1790
2020-07-21 12:30 2.00 237 3980 (1927) 14 (1954) 448 50 72 93 118 212 415 491 1240 1790
2020-07-21 11:30 2.01 240 3980 (1927) 14 (1954) 448 50 72 93 118 212 415 491 1240 1790
2020-07-21 10:30 2.02 244 3980 (1927) 14 (1954) 448 50 72 93 118 212 415 491 1240 1790
2020-07-21 09:30 2.02 244 3980 (1927) 14 (1954) 448 50 72 93 118 212 415 491 1240 1790
2020-07-21 08:30 2.02 244 3980 (1927) 14 (1954) 448 50 72 93 118 212 415 491 1240 1790
2020-07-21 07:30 2.02 244 3980 (1927) 14 (1954) 448 50 72 93 118 212 415 491 1240 1790
2020-07-21 06:30 2.02 244 3980 (1927) 14 (1954) 448 50 72 93 118 212 415 491 1240 1790
2020-07-21 05:30 2.02 244 3980 (1927) 14 (1954) 448 50 72 93 118 212 415 491 1240 1790
2020-07-21 04:30 2.03 248 3980 (1927) 14 (1954) 448 50 72 93 118 212 415 491 1240 1790
2020-07-21 03:30 2.02 244 3980 (1927) 14 (1954) 448 50 72 93 118 212 415 491 1240 1790
2020-07-21 02:30 2.02 244 3980 (1927) 14 (1954) 448 50 72 93 118 212 415 491 1240 1790
2020-07-21 01:30 2.02 244 3980 (1927) 14 (1954) 448 50 72 93 118 212 415 491 1240 1790
2020-07-21 00:30 2.02 244 3980 (1927) 14 (1954) 448 50 72 93 118 212 415 491 1240 1790
2020-07-20 23:30 2.02 244 4920 (1950) 8 (1954) 463 51 65 100 121 222 419 515 1060 2390
2020-07-20 22:30 2.02 244 4920 (1950) 8 (1954) 463 51 65 100 121 222 419 515 1060 2390
2020-07-20 21:30 2.04 252 4920 (1950) 8 (1954) 463 51 65 100 121 222 419 515 1060 2390
2020-07-20 20:30 2.04 252 4920 (1950) 8 (1954) 463 51 65 100 121 222 419 515 1060 2390
2020-07-20 19:30 2.05 255 4920 (1950) 8 (1954) 463 51 65 100 121 222 419 515 1060 2390
2020-07-20 18:30 2.06 259 4920 (1950) 8 (1954) 463 51 65 100 121 222 419 515 1060 2390
2020-07-20 17:30 2.07 263 4920 (1950) 8 (1954) 463 51 65 100 121 222 419 515 1060 2390
2020-07-20 16:30 2.08 267 4920 (1950) 8 (1954) 463 51 65 100 121 222 419 515 1060 2390
2020-07-20 15:30 2.09 271 4920 (1950) 8 (1954) 463 51 65 100 121 222 419 515 1060 2390
2020-07-20 14:30 2.11 278 4920 (1950) 8 (1954) 463 51 65 100 121 222 419 515 1060 2390
2020-07-20 13:30 2.12 282 4920 (1950) 8 (1954) 463 51 65 100 121 222 419 515 1060 2390
2020-07-20 12:30 2.15 294 4920 (1950) 8 (1954) 463 51 65 100 121 222 419 515 1060 2390
2020-07-20 11:30 2.16 299 4920 (1950) 8 (1954) 463 51 65 100 121 222 419 515 1060 2390
2020-07-20 10:30 2.19 311 4920 (1950) 8 (1954) 463 51 65 100 121 222 419 515 1060 2390
2020-07-20 09:30 2.17 303 4920 (1950) 8 (1954) 463 51 65 100 121 222 419 515 1060 2390
2020-07-20 08:30 2.00 237 4920 (1950) 8 (1954) 463 51 65 100 121 222 419 515 1060 2390
2020-07-20 07:30 1.99 233 4920 (1950) 8 (1954) 463 51 65 100 121 222 419 515 1060 2390
2020-07-20 06:30 2.00 237 4920 (1950) 8 (1954) 463 51 65 100 121 222 419 515 1060 2390
2020-07-20 05:30 2.00 237 4920 (1950) 8 (1954) 463 51 65 100 121 222 419 515 1060 2390
2020-07-20 04:30 2.00 237 4920 (1950) 8 (1954) 463 51 65 100 121 222 419 515 1060 2390
2020-07-20 03:30 2.00 237 4920 (1950) 8 (1954) 463 51 65 100 121 222 419 515 1060 2390
2020-07-20 02:30 2.00 237 4920 (1950) 8 (1954) 463 51 65 100 121 222 419 515 1060 2390
2020-07-20 01:30 2.00 237 4920 (1950) 8 (1954) 463 51 65 100 121 222 419 515 1060 2390
2020-07-20 00:30 2.01 240 4920 (1950) 8 (1954) 463 51 65 100 121 222 419 515 1060 2390
2020-07-19 23:30 2.01 240 7290 (1950) 12 (1954) 587 52 69 98 126 225 425 521 1320 3120
2020-07-19 22:30 2.01 240 7290 (1950) 12 (1954) 587 52 69 98 126 225 425 521 1320 3120
2020-07-19 21:30 2.01 240 7290 (1950) 12 (1954) 587 52 69 98 126 225 425 521 1320 3120
2020-07-19 20:30 2.01 240 7290 (1950) 12 (1954) 587 52 69 98 126 225 425 521 1320 3120
2020-07-19 19:30 2.02 244 7290 (1950) 12 (1954) 587 52 69 98 126 225 425 521 1320 3120
2020-07-19 18:30 2.02 244 7290 (1950) 12 (1954) 587 52 69 98 126 225 425 521 1320 3120
2020-07-19 17:30 2.03 248 7290 (1950) 12 (1954) 587 52 69 98 126 225 425 521 1320 3120
2020-07-19 16:30 2.03 248 7290 (1950) 12 (1954) 587 52 69 98 126 225 425 521 1320 3120
2020-07-19 15:30 2.04 252 7290 (1950) 12 (1954) 587 52 69 98 126 225 425 521 1320 3120
2020-07-19 14:30 2.04 252 7290 (1950) 12 (1954) 587 52 69 98 126 225 425 521 1320 3120
2020-07-19 13:30 2.04 252 7290 (1950) 12 (1954) 587 52 69 98 126 225 425 521 1320 3120
2020-07-19 12:30 2.04 252 7290 (1950) 12 (1954) 587 52 69 98 126 225 425 521 1320 3120
2020-07-19 11:30 2.05 255 7290 (1950) 12 (1954) 587 52 69 98 126 225 425 521 1320 3120
2020-07-19 10:30 2.05 255 7290 (1950) 12 (1954) 587 52 69 98 126 225 425 521 1320 3120
2020-07-19 09:30 2.05 255 7290 (1950) 12 (1954) 587 52 69 98 126 225 425 521 1320 3120
2020-07-19 08:30 2.06 259 7290 (1950) 12 (1954) 587 52 69 98 126 225 425 521 1320 3120
2020-07-19 07:30 2.07 263 7290 (1950) 12 (1954) 587 52 69 98 126 225 425 521 1320 3120
2020-07-19 06:30 2.07 263 7290 (1950) 12 (1954) 587 52 69 98 126 225 425 521 1320 3120
2020-07-19 05:30 2.08 267 7290 (1950) 12 (1954) 587 52 69 98 126 225 425 521 1320 3120
2020-07-19 04:30 2.07 263 7290 (1950) 12 (1954) 587 52 69 98 126 225 425 521 1320 3120
2020-07-19 03:30 2.08 267 7290 (1950) 12 (1954) 587 52 69 98 126 225 425 521 1320 3120
2020-07-19 02:30 2.08 267 7290 (1950) 12 (1954) 587 52 69 98 126 225 425 521 1320 3120
2020-07-19 01:30 2.09 271 7290 (1950) 12 (1954) 587 52 69 98 126 225 425 521 1320 3120
2020-07-19 00:30 2.11 278 7290 (1950) 12 (1954) 587 52 69 98 126 225 425 521 1320 3120
2020-07-18 23:30 2.11 278 9830 (1958) 13 (1954) 601 48 70 96 108 236 430 512 846 3720
2020-07-18 22:30 2.12 282 9830 (1958) 13 (1954) 601 48 70 96 108 236 430 512 846 3720
2020-07-18 21:30 2.12 282 9830 (1958) 13 (1954) 601 48 70 96 108 236 430 512 846 3720
2020-07-18 20:30 2.14 290 9830 (1958) 13 (1954) 601 48 70 96 108 236 430 512 846 3720
2020-07-18 19:30 2.14 290 9830 (1958) 13 (1954) 601 48 70 96 108 236 430 512 846 3720
2020-07-18 18:30 2.15 294 9830 (1958) 13 (1954) 601 48 70 96 108 236 430 512 846 3720
2020-07-18 17:30 2.16 299 9830 (1958) 13 (1954) 601 48 70 96 108 236 430 512 846 3720
2020-07-18 16:30 2.17 303 9830 (1958) 13 (1954) 601 48 70 96 108 236 430 512 846 3720
2020-07-18 15:30 2.18 307 9830 (1958) 13 (1954) 601 48 70 96 108 236 430 512 846 3720
2020-07-18 14:30 2.18 307 9830 (1958) 13 (1954) 601 48 70 96 108 236 430 512 846 3720
2020-07-18 13:30 2.20 315 9830 (1958) 13 (1954) 601 48 70 96 108 236 430 512 846 3720
2020-07-18 12:30 2.20 315 9830 (1958) 13 (1954) 601 48 70 96 108 236 430 512 846 3720
2020-07-18 11:30 2.18 307 9830 (1958) 13 (1954) 601 48 70 96 108 236 430 512 846 3720
2020-07-18 10:30 2.18 307 9830 (1958) 13 (1954) 601 48 70 96 108 236 430 512 846 3720
2020-07-18 09:30 2.16 299 9830 (1958) 13 (1954) 601 48 70 96 108 236 430 512 846 3720
2020-07-18 08:30 2.14 290 9830 (1958) 13 (1954) 601 48 70 96 108 236 430 512 846 3720
2020-07-18 07:30 2.10 275 9830 (1958) 13 (1954) 601 48 70 96 108 236 430 512 846 3720
2020-07-18 06:30 2.07 263 9830 (1958) 13 (1954) 601 48 70 96 108 236 430 512 846 3720
2020-07-18 05:30 2.04 252 9830 (1958) 13 (1954) 601 48 70 96 108 236 430 512 846 3720
2020-07-18 04:30 2.01 240 9830 (1958) 13 (1954) 601 48 70 96 108 236 430 512 846 3720
2020-07-18 03:30 1.99 233 9830 (1958) 13 (1954) 601 48 70 96 108 236 430 512 846 3720
2020-07-18 02:30 1.98 229 9830 (1958) 13 (1954) 601 48 70 96 108 236 430 512 846 3720
2020-07-18 01:30 1.98 229 9830 (1958) 13 (1954) 601 48 70 96 108 236 430 512 846 3720
2020-07-18 00:30 1.97 226 9830 (1958) 13 (1954) 601 48 70 96 108 236 430 512 846 3720
2020-07-17 23:30 1.97 226 11700 (1958) 15 (1954) 634 48 74 106 131 242 453 546 924 2650
2020-07-17 22:30 1.98 229 11700 (1958) 15 (1954) 634 48 74 106 131 242 453 546 924 2650
2020-07-17 21:30 1.98 229 11700 (1958) 15 (1954) 634 48 74 106 131 242 453 546 924 2650
2020-07-17 20:30 1.98 229 11700 (1958) 15 (1954) 634 48 74 106 131 242 453 546 924 2650
2020-07-17 19:30 1.98 229 11700 (1958) 15 (1954) 634 48 74 106 131 242 453 546 924 2650
2020-07-17 18:30 1.98 229 11700 (1958) 15 (1954) 634 48 74 106 131 242 453 546 924 2650
2020-07-17 17:30 1.98 229 11700 (1958) 15 (1954) 634 48 74 106 131 242 453 546 924 2650
2020-07-17 16:30 1.99 233 11700 (1958) 15 (1954) 634 48 74 106 131 242 453 546 924 2650
2020-07-17 15:30 2.00 237 11700 (1958) 15 (1954) 634 48 74 106 131 242 453 546 924 2650
2020-07-17 14:30 2.00 237 11700 (1958) 15 (1954) 634 48 74 106 131 242 453 546 924 2650
2020-07-17 13:30 2.01 240 11700 (1958) 15 (1954) 634 48 74 106 131 242 453 546 924 2650
2020-07-17 12:30 2.01 240 11700 (1958) 15 (1954) 634 48 74 106 131 242 453 546 924 2650
2020-07-17 11:30 2.00 237 11700 (1958) 15 (1954) 634 48 74 106 131 242 453 546 924 2650
2020-07-17 10:30 2.00 237 11700 (1958) 15 (1954) 634 48 74 106 131 242 453 546 924 2650
2020-07-17 09:30 2.00 237 11700 (1958) 15 (1954) 634 48 74 106 131 242 453 546 924 2650
2020-07-17 08:30 2.00 237 11700 (1958) 15 (1954) 634 48 74 106 131 242 453 546 924 2650
2020-07-17 07:30 2.00 237 11700 (1958) 15 (1954) 634 48 74 106 131 242 453 546 924 2650
2020-07-17 06:30 2.00 237 11700 (1958) 15 (1954) 634 48 74 106 131 242 453 546 924 2650
2020-07-17 05:30 2.00 237 11700 (1958) 15 (1954) 634 48 74 106 131 242 453 546 924 2650
2020-07-17 04:30 2.00 237 11700 (1958) 15 (1954) 634 48 74 106 131 242 453 546 924 2650
2020-07-17 03:30 2.00 237 11700 (1958) 15 (1954) 634 48 74 106 131 242 453 546 924 2650
2020-07-17 02:30 2.00 237 11700 (1958) 15 (1954) 634 48 74 106 131 242 453 546 924 2650
2020-07-17 01:30 2.00 237 11700 (1958) 15 (1954) 634 48 74 106 131 242 453 546 924 2650
2020-07-17 00:30 1.99 233 11700 (1958) 15 (1954) 634 48 74 106 131 242 453 546 924 2650
2020-07-16 23:30 2.00 237 4700 (1992) 20 (1954) 499 56 72 101 123 253 475 550 799 2980
2020-07-16 22:30 2.00 237 4700 (1992) 20 (1954) 499 56 72 101 123 253 475 550 799 2980
2020-07-16 21:30 2.00 237 4700 (1992) 20 (1954) 499 56 72 101 123 253 475 550 799 2980
2020-07-16 20:30 2.00 237 4700 (1992) 20 (1954) 499 56 72 101 123 253 475 550 799 2980
2020-07-16 19:30 2.00 237 4700 (1992) 20 (1954) 499 56 72 101 123 253 475 550 799 2980
2020-07-16 18:30 2.00 237 4700 (1992) 20 (1954) 499 56 72 101 123 253 475 550 799 2980
2020-07-16 17:30 2.00 237 4700 (1992) 20 (1954) 499 56 72 101 123 253 475 550 799 2980
2020-07-16 16:30 2.00 237 4700 (1992) 20 (1954) 499 56 72 101 123 253 475 550 799 2980
2020-07-16 15:30 2.00 237 4700 (1992) 20 (1954) 499 56 72 101 123 253 475 550 799 2980
2020-07-16 14:30 2.01 240 4700 (1992) 20 (1954) 499 56 72 101 123 253 475 550 799 2980
2020-07-16 13:30 2.00 237 4700 (1992) 20 (1954) 499 56 72 101 123 253 475 550 799 2980
2020-07-16 12:30 2.01 240 4700 (1992) 20 (1954) 499 56 72 101 123 253 475 550 799 2980
2020-07-16 11:30 2.01 240 4700 (1992) 20 (1954) 499 56 72 101 123 253 475 550 799 2980
2020-07-16 10:30 2.01 240 4700 (1992) 20 (1954) 499 56 72 101 123 253 475 550 799 2980
2020-07-16 09:30 2.00 237 4700 (1992) 20 (1954) 499 56 72 101 123 253 475 550 799 2980
2020-07-16 08:30 2.01 240 4700 (1992) 20 (1954) 499 56 72 101 123 253 475 550 799 2980
2020-07-16 07:30 2.01 240 4700 (1992) 20 (1954) 499 56 72 101 123 253 475 550 799 2980
2020-07-16 06:30 2.01 240 4700 (1992) 20 (1954) 499 56 72 101 123 253 475 550 799 2980
2020-07-16 05:30 2.02 244 4700 (1992) 20 (1954) 499 56 72 101 123 253 475 550 799 2980
2020-07-16 04:30 2.02 244 4700 (1992) 20 (1954) 499 56 72 101 123 253 475 550 799 2980
2020-07-16 03:30 2.02 244 4700 (1992) 20 (1954) 499 56 72 101 123 253 475 550 799 2980
2020-07-16 02:30 2.02 244 4700 (1992) 20 (1954) 499 56 72 101 123 253 475 550 799 2980
2020-07-16 01:30 2.02 244 4700 (1992) 20 (1954) 499 56 72 101 123 253 475 550 799 2980
2020-07-16 00:30 2.02 244 4700 (1992) 20 (1954) 499 56 72 101 123 253 475 550 799 2980
2020-07-15 23:30 2.02 244 7810 (1924) 24 (1954) 451 53 77 109 126 257 516 574 817 1150
2020-07-15 22:30 2.02 244 7810 (1924) 24 (1954) 451 53 77 109 126 257 516 574 817 1150
2020-07-15 21:30 2.03 248 7810 (1924) 24 (1954) 451 53 77 109 126 257 516 574 817 1150
2020-07-15 20:30 2.03 248 7810 (1924) 24 (1954) 451 53 77 109 126 257 516 574 817 1150
2020-07-15 19:30 2.03 248 7810 (1924) 24 (1954) 451 53 77 109 126 257 516 574 817 1150
2020-07-15 18:30 2.03 248 7810 (1924) 24 (1954) 451 53 77 109 126 257 516 574 817 1150
2020-07-15 17:30 2.03 248 7810 (1924) 24 (1954) 451 53 77 109 126 257 516 574 817 1150
2020-07-15 16:30 2.03 248 7810 (1924) 24 (1954) 451 53 77 109 126 257 516 574 817 1150
2020-07-15 15:30 2.03 248 7810 (1924) 24 (1954) 451 53 77 109 126 257 516 574 817 1150
2020-07-15 14:30 2.03 248 7810 (1924) 24 (1954) 451 53 77 109 126 257 516 574 817 1150
2020-07-15 13:30 2.03 248 7810 (1924) 24 (1954) 451 53 77 109 126 257 516 574 817 1150
2020-07-15 12:30 2.03 248 7810 (1924) 24 (1954) 451 53 77 109 126 257 516 574 817 1150
2020-07-15 11:30 2.04 252 7810 (1924) 24 (1954) 451 53 77 109 126 257 516 574 817 1150
2020-07-15 10:30 2.04 252 7810 (1924) 24 (1954) 451 53 77 109 126 257 516 574 817 1150
2020-07-15 09:30 2.04 252 7810 (1924) 24 (1954) 451 53 77 109 126 257 516 574 817 1150
2020-07-15 08:30 2.04 252 7810 (1924) 24 (1954) 451 53 77 109 126 257 516 574 817 1150
2020-07-15 07:30 2.04 252 7810 (1924) 24 (1954) 451 53 77 109 126 257 516 574 817 1150
2020-07-15 06:30 2.04 252 7810 (1924) 24 (1954) 451 53 77 109 126 257 516 574 817 1150
2020-07-15 05:30 2.04 252 7810 (1924) 24 (1954) 451 53 77 109 126 257 516 574 817 1150
2020-07-15 04:30 2.05 255 7810 (1924) 24 (1954) 451 53 77 109 126 257 516 574 817 1150
2020-07-15 03:30 2.05 255 7810 (1924) 24 (1954) 451 53 77 109 126 257 516 574 817 1150
2020-07-15 02:30 2.04 252 7810 (1924) 24 (1954) 451 53 77 109 126 257 516 574 817 1150
2020-07-15 01:30 2.05 255 7810 (1924) 24 (1954) 451 53 77 109 126 257 516 574 817 1150
2020-07-15 00:30 2.05 255 7810 (1924) 24 (1954) 451 53 77 109 126 257 516 574 817 1150
2020-07-14 23:30 2.05 255 10500 (1924) 23 (1954) 529 58 76 115 130 252 552 674 894 1650
2020-07-14 22:30 2.05 255 10500 (1924) 23 (1954) 529 58 76 115 130 252 552 674 894 1650
2020-07-14 21:30 2.05 255 10500 (1924) 23 (1954) 529 58 76 115 130 252 552 674 894 1650
2020-07-14 20:30 2.05 255 10500 (1924) 23 (1954) 529 58 76 115 130 252 552 674 894 1650
2020-07-14 19:30 2.05 255 10500 (1924) 23 (1954) 529 58 76 115 130 252 552 674 894 1650
2020-07-14 18:30 2.06 259 10500 (1924) 23 (1954) 529 58 76 115 130 252 552 674 894 1650
2020-07-14 17:30 2.06 259 10500 (1924) 23 (1954) 529 58 76 115 130 252 552 674 894 1650
2020-07-14 16:30 2.06 259 10500 (1924) 23 (1954) 529 58 76 115 130 252 552 674 894 1650
2020-07-14 15:30 2.06 259 10500 (1924) 23 (1954) 529 58 76 115 130 252 552 674 894 1650
2020-07-14 14:30 2.06 259 10500 (1924) 23 (1954) 529 58 76 115 130 252 552 674 894 1650
2020-07-14 13:30 2.06 259 10500 (1924) 23 (1954) 529 58 76 115 130 252 552 674 894 1650
2020-07-14 12:30 2.06 259 10500 (1924) 23 (1954) 529 58 76 115 130 252 552 674 894 1650
2020-07-14 11:30 2.06 259 10500 (1924) 23 (1954) 529 58 76 115 130 252 552 674 894 1650
2020-07-14 10:30 2.07 263 10500 (1924) 23 (1954) 529 58 76 115 130 252 552 674 894 1650
2020-07-14 09:30 2.06 259 10500 (1924) 23 (1954) 529 58 76 115 130 252 552 674 894 1650
2020-07-14 08:30 2.06 259 10500 (1924) 23 (1954) 529 58 76 115 130 252 552 674 894 1650
2020-07-14 07:30 2.06 259 10500 (1924) 23 (1954) 529 58 76 115 130 252 552 674 894 1650
2020-07-14 06:30 2.07 263 10500 (1924) 23 (1954) 529 58 76 115 130 252 552 674 894 1650
2020-07-14 05:30 2.06 259 10500 (1924) 23 (1954) 529 58 76 115 130 252 552 674 894 1650
2020-07-14 04:30 2.07 263 10500 (1924) 23 (1954) 529 58 76 115 130 252 552 674 894 1650
2020-07-14 03:30 2.07 263 10500 (1924) 23 (1954) 529 58 76 115 130 252 552 674 894 1650
2020-07-14 02:30 2.07 263 10500 (1924) 23 (1954) 529 58 76 115 130 252 552 674 894 1650
2020-07-14 01:30 2.07 263 10500 (1924) 23 (1954) 529 58 76 115 130 252 552 674 894 1650
2020-07-14 00:30 2.07 263 10500 (1924) 23 (1954) 529 58 76 115 130 252 552 674 894 1650
2020-07-13 23:30 2.07 263 7620 (1992) 29 (1934) 639 52 66 114 131 275 589 708 1430 2370
2020-07-13 22:30 2.07 263 7620 (1992) 29 (1934) 639 52 66 114 131 275 589 708 1430 2370
2020-07-13 21:30 2.08 267 7620 (1992) 29 (1934) 639 52 66 114 131 275 589 708 1430 2370
2020-07-13 20:30 2.08 267 7620 (1992) 29 (1934) 639 52 66 114 131 275 589 708 1430 2370
2020-07-13 19:30 2.08 267 7620 (1992) 29 (1934) 639 52 66 114 131 275 589 708 1430 2370
2020-07-13 18:30 2.09 271 7620 (1992) 29 (1934) 639 52 66 114 131 275 589 708 1430 2370
2020-07-13 17:30 2.09 271 7620 (1992) 29 (1934) 639 52 66 114 131 275 589 708 1430 2370
2020-07-13 16:30 2.09 271 7620 (1992) 29 (1934) 639 52 66 114 131 275 589 708 1430 2370
2020-07-13 15:30 2.09 271 7620 (1992) 29 (1934) 639 52 66 114 131 275 589 708 1430 2370
2020-07-13 14:30 2.09 271 7620 (1992) 29 (1934) 639 52 66 114 131 275 589 708 1430 2370
2020-07-13 13:30 2.09 271 7620 (1992) 29 (1934) 639 52 66 114 131 275 589 708 1430 2370
2020-07-13 12:30 2.09 271 7620 (1992) 29 (1934) 639 52 66 114 131 275 589 708 1430 2370
2020-07-13 11:30 2.10 275 7620 (1992) 29 (1934) 639 52 66 114 131 275 589 708 1430 2370
2020-07-13 10:30 2.11 278 7620 (1992) 29 (1934) 639 52 66 114 131 275 589 708 1430 2370
2020-07-13 09:30 2.10 275 7620 (1992) 29 (1934) 639 52 66 114 131 275 589 708 1430 2370
2020-07-13 08:30 2.11 278 7620 (1992) 29 (1934) 639 52 66 114 131 275 589 708 1430 2370
2020-07-13 07:30 2.10 275 7620 (1992) 29 (1934) 639 52 66 114 131 275 589 708 1430 2370
2020-07-13 06:30 2.11 278 7620 (1992) 29 (1934) 639 52 66 114 131 275 589 708 1430 2370
2020-07-13 05:30 2.10 275 7620 (1992) 29 (1934) 639 52 66 114 131 275 589 708 1430 2370
2020-07-13 04:30 2.11 278 7620 (1992) 29 (1934) 639 52 66 114 131 275 589 708 1430 2370
2020-07-13 03:30 2.11 278 7620 (1992) 29 (1934) 639 52 66 114 131 275 589 708 1430 2370
2020-07-13 02:30 2.11 278 7620 (1992) 29 (1934) 639 52 66 114 131 275 589 708 1430 2370
2020-07-13 01:30 2.11 278 7620 (1992) 29 (1934) 639 52 66 114 131 275 589 708 1430 2370
2020-07-13 00:30 2.11 278 7620 (1992) 29 (1934) 639 52 66 114 131 275 589 708 1430 2370
2020-07-12 23:30 2.12 282 14200 (1992) 23 (1954) 825 55 70 108 126 279 666 817 1240 3720
2020-07-12 22:30 2.12 282 14200 (1992) 23 (1954) 825 55 70 108 126 279 666 817 1240 3720
2020-07-12 21:30 2.12 282 14200 (1992) 23 (1954) 825 55 70 108 126 279 666 817 1240 3720
2020-07-12 20:30 2.12 282 14200 (1992) 23 (1954) 825 55 70 108 126 279 666 817 1240 3720
2020-07-12 19:30 2.12 282 14200 (1992) 23 (1954) 825 55 70 108 126 279 666 817 1240 3720
2020-07-12 18:30 2.12 282 14200 (1992) 23 (1954) 825 55 70 108 126 279 666 817 1240 3720
2020-07-12 17:30 2.12 282 14200 (1992) 23 (1954) 825 55 70 108 126 279 666 817 1240 3720
2020-07-12 16:30 2.12 282 14200 (1992) 23 (1954) 825 55 70 108 126 279 666 817 1240 3720
2020-07-12 15:30 2.12 282 14200 (1992) 23 (1954) 825 55 70 108 126 279 666 817 1240 3720
2020-07-12 14:30 2.14 290 14200 (1992) 23 (1954) 825 55 70 108 126 279 666 817 1240 3720
2020-07-12 13:30 2.13 286 14200 (1992) 23 (1954) 825 55 70 108 126 279 666 817 1240 3720
2020-07-12 12:30 2.14 290 14200 (1992) 23 (1954) 825 55 70 108 126 279 666 817 1240 3720
2020-07-12 11:30 2.14 290 14200 (1992) 23 (1954) 825 55 70 108 126 279 666 817 1240 3720
2020-07-12 10:30 2.15 294 14200 (1992) 23 (1954) 825 55 70 108 126 279 666 817 1240 3720
2020-07-12 09:30 2.14 290 14200 (1992) 23 (1954) 825 55 70 108 126 279 666 817 1240 3720
2020-07-12 08:30 2.15 294 14200 (1992) 23 (1954) 825 55 70 108 126 279 666 817 1240 3720
2020-07-12 07:30 2.14 290 14200 (1992) 23 (1954) 825 55 70 108 126 279 666 817 1240 3720
2020-07-12 06:30 2.15 294 14200 (1992) 23 (1954) 825 55 70 108 126 279 666 817 1240 3720
2020-07-12 05:30 2.15 294 14200 (1992) 23 (1954) 825 55 70 108 126 279 666 817 1240 3720
2020-07-12 04:30 2.16 299 14200 (1992) 23 (1954) 825 55 70 108 126 279 666 817 1240 3720
2020-07-12 03:30 2.16 299 14200 (1992) 23 (1954) 825 55 70 108 126 279 666 817 1240 3720
2020-07-12 02:30 2.16 299 14200 (1992) 23 (1954) 825 55 70 108 126 279 666 817 1240 3720
2020-07-12 01:30 2.16 299 14200 (1992) 23 (1954) 825 55 70 108 126 279 666 817 1240 3720
2020-07-12 00:30 2.17 303 14200 (1992) 23 (1954) 825 55 70 108 126 279 666 817 1240 3720
2020-07-11 23:30 2.17 303 14100 (1992) 33 (1954) 874 55 69 111 131 295 636 792 2110 3470
2020-07-11 22:30 2.17 303 14100 (1992) 33 (1954) 874 55 69 111 131 295 636 792 2110 3470
2020-07-11 21:30 2.17 303 14100 (1992) 33 (1954) 874 55 69 111 131 295 636 792 2110 3470
2020-07-11 20:30 2.18 307 14100 (1992) 33 (1954) 874 55 69 111 131 295 636 792 2110 3470
2020-07-11 19:30 2.18 307 14100 (1992) 33 (1954) 874 55 69 111 131 295 636 792 2110 3470
2020-07-11 18:30 2.18 307 14100 (1992) 33 (1954) 874 55 69 111 131 295 636 792 2110 3470
2020-07-11 17:30 2.19 311 14100 (1992) 33 (1954) 874 55 69 111 131 295 636 792 2110 3470
2020-07-11 16:30 2.20 315 14100 (1992) 33 (1954) 874 55 69 111 131 295 636 792 2110 3470
2020-07-11 15:30 2.21 319 14100 (1992) 33 (1954) 874 55 69 111 131 295 636 792 2110 3470
2020-07-11 14:30 2.21 319 14100 (1992) 33 (1954) 874 55 69 111 131 295 636 792 2110 3470
2020-07-11 13:30 2.20 315 14100 (1992) 33 (1954) 874 55 69 111 131 295 636 792 2110 3470
2020-07-11 12:30 2.21 319 14100 (1992) 33 (1954) 874 55 69 111 131 295 636 792 2110 3470
2020-07-11 11:30 2.21 319 14100 (1992) 33 (1954) 874 55 69 111 131 295 636 792 2110 3470
2020-07-11 10:30 2.21 319 14100 (1992) 33 (1954) 874 55 69 111 131 295 636 792 2110 3470
2020-07-11 09:30 2.22 324 14100 (1992) 33 (1954) 874 55 69 111 131 295 636 792 2110 3470
2020-07-11 08:30 2.22 324 14100 (1992) 33 (1954) 874 55 69 111 131 295 636 792 2110 3470
2020-07-11 07:30 2.22 324 14100 (1992) 33 (1954) 874 55 69 111 131 295 636 792 2110 3470
2020-07-11 06:30 2.21 319 14100 (1992) 33 (1954) 874 55 69 111 131 295 636 792 2110 3470
2020-07-11 05:30 2.22 324 14100 (1992) 33 (1954) 874 55 69 111 131 295 636 792 2110 3470
2020-07-11 04:30 2.21 319 14100 (1992) 33 (1954) 874 55 69 111 131 295 636 792 2110 3470
2020-07-11 03:30 2.21 319 14100 (1992) 33 (1954) 874 55 69 111 131 295 636 792 2110 3470
2020-07-11 02:30 2.21 319 14100 (1992) 33 (1954) 874 55 69 111 131 295 636 792 2110 3470
2020-07-11 01:30 2.20 315 14100 (1992) 33 (1954) 874 55 69 111 131 295 636 792 2110 3470
2020-07-11 00:30 2.21 319 14100 (1992) 33 (1954) 874 55 69 111 131 295 636 792 2110 3470
2020-07-10 23:30 2.20 315 12600 (2015) 24 (1954) 758 57 81 111 139 309 664 888 1510 3670
2020-07-10 22:30 2.20 315 12600 (2015) 24 (1954) 758 57 81 111 139 309 664 888 1510 3670
2020-07-10 21:30 2.19 311 12600 (2015) 24 (1954) 758 57 81 111 139 309 664 888 1510 3670
2020-07-10 20:30 2.20 315 12600 (2015) 24 (1954) 758 57 81 111 139 309 664 888 1510 3670
2020-07-10 19:30 2.21 319 12600 (2015) 24 (1954) 758 57 81 111 139 309 664 888 1510 3670
2020-07-10 18:30 2.21 319 12600 (2015) 24 (1954) 758 57 81 111 139 309 664 888 1510 3670
2020-07-10 17:30 2.20 315 12600 (2015) 24 (1954) 758 57 81 111 139 309 664 888 1510 3670
2020-07-10 16:30 2.20 315 12600 (2015) 24 (1954) 758 57 81 111 139 309 664 888 1510 3670
2020-07-10 15:30 2.21 319 12600 (2015) 24 (1954) 758 57 81 111 139 309 664 888 1510 3670
2020-07-10 14:30 2.21 319 12600 (2015) 24 (1954) 758 57 81 111 139 309 664 888 1510 3670
2020-07-10 13:30 2.21 319 12600 (2015) 24 (1954) 758 57 81 111 139 309 664 888 1510 3670
2020-07-10 12:30 2.21 319 12600 (2015) 24 (1954) 758 57 81 111 139 309 664 888 1510 3670
2020-07-10 11:30 2.22 324 12600 (2015) 24 (1954) 758 57 81 111 139 309 664 888 1510 3670
2020-07-10 10:30 2.22 324 12600 (2015) 24 (1954) 758 57 81 111 139 309 664 888 1510 3670
2020-07-10 09:30 2.21 319 12600 (2015) 24 (1954) 758 57 81 111 139 309 664 888 1510 3670
2020-07-10 08:30 2.22 324 12600 (2015) 24 (1954) 758 57 81 111 139 309 664 888 1510 3670
2020-07-10 07:30 2.23 328 12600 (2015) 24 (1954) 758 57 81 111 139 309 664 888 1510 3670
2020-07-10 06:30 2.23 328 12600 (2015) 24 (1954) 758 57 81 111 139 309 664 888 1510 3670
2020-07-10 05:30 2.24 332 12600 (2015) 24 (1954) 758 57 81 111 139 309 664 888 1510 3670
2020-07-10 04:30 2.24 332 12600 (2015) 24 (1954) 758 57 81 111 139 309 664 888 1510 3670
2020-07-10 03:30 2.24 332 12600 (2015) 24 (1954) 758 57 81 111 139 309 664 888 1510 3670
2020-07-10 02:30 2.25 336 12600 (2015) 24 (1954) 758 57 81 111 139 309 664 888 1510 3670
2020-07-10 01:30 2.26 341 12600 (2015) 24 (1954) 758 57 81 111 139 309 664 888 1510 3670
2020-07-10 00:30 2.27 345 12600 (2015) 24 (1954) 758 57 81 111 139 309 664 888 1510 3670
2020-07-09 23:30 2.27 345 15700 (2015) 19 (1954) 911 59 85 113 141 327 715 816 1550 3220
2020-07-09 22:30 2.28 350 15700 (2015) 19 (1954) 911 59 85 113 141 327 715 816 1550 3220
2020-07-09 21:30 2.28 350 15700 (2015) 19 (1954) 911 59 85 113 141 327 715 816 1550 3220
2020-07-09 20:30 2.26 341 15700 (2015) 19 (1954) 911 59 85 113 141 327 715 816 1550 3220
2020-07-09 19:30 2.25 336 15700 (2015) 19 (1954) 911 59 85 113 141 327 715 816 1550 3220
2020-07-09 18:30 2.24 332 15700 (2015) 19 (1954) 911 59 85 113 141 327 715 816 1550 3220
2020-07-09 17:30 2.24 332 15700 (2015) 19 (1954) 911 59 85 113 141 327 715 816 1550 3220
2020-07-09 16:30 2.25 336 15700 (2015) 19 (1954) 911 59 85 113 141 327 715 816 1550 3220
2020-07-09 15:30 2.25 336 15700 (2015) 19 (1954) 911 59 85 113 141 327 715 816 1550 3220
2020-07-09 14:30 2.25 336 15700 (2015) 19 (1954) 911 59 85 113 141 327 715 816 1550 3220
2020-07-09 13:30 2.26 341 15700 (2015) 19 (1954) 911 59 85 113 141 327 715 816 1550 3220
2020-07-09 12:30 2.26 341 15700 (2015) 19 (1954) 911 59 85 113 141 327 715 816 1550 3220
2020-07-09 11:30 2.25 336 15700 (2015) 19 (1954) 911 59 85 113 141 327 715 816 1550 3220
2020-07-09 10:30 2.26 341 15700 (2015) 19 (1954) 911 59 85 113 141 327 715 816 1550 3220
2020-07-09 09:30 2.25 336 15700 (2015) 19 (1954) 911 59 85 113 141 327 715 816 1550 3220
2020-07-09 08:30 2.26 341 15700 (2015) 19 (1954) 911 59 85 113 141 327 715 816 1550 3220
2020-07-09 07:30 2.25 336 15700 (2015) 19 (1954) 911 59 85 113 141 327 715 816 1550 3220
2020-07-09 06:30 2.25 336 15700 (2015) 19 (1954) 911 59 85 113 141 327 715 816 1550 3220
2020-07-09 05:30 2.26 341 15700 (2015) 19 (1954) 911 59 85 113 141 327 715 816 1550 3220
2020-07-09 04:30 2.25 336 15700 (2015) 19 (1954) 911 59 85 113 141 327 715 816 1550 3220
2020-07-09 03:30 2.26 341 15700 (2015) 19 (1954) 911 59 85 113 141 327 715 816 1550 3220
2020-07-09 02:30 2.27 345 15700 (2015) 19 (1954) 911 59 85 113 141 327 715 816 1550 3220
2020-07-09 01:30 2.26 341 15700 (2015) 19 (1954) 911 59 85 113 141 327 715 816 1550 3220
2020-07-09 00:30 2.27 345 15700 (2015) 19 (1954) 911 59 85 113 141 327 715 816 1550 3220
2020-07-08 23:30 2.27 345 9560 (2015) 17 (1954) 801 59 88 125 149 327 729 873 1850 3970
2020-07-08 22:30 2.28 350 9560 (2015) 17 (1954) 801 59 88 125 149 327 729 873 1850 3970
2020-07-08 21:30 2.28 350 9560 (2015) 17 (1954) 801 59 88 125 149 327 729 873 1850 3970
2020-07-08 20:30 2.28 350 9560 (2015) 17 (1954) 801 59 88 125 149 327 729 873 1850 3970
2020-07-08 19:30 2.30 358 9560 (2015) 17 (1954) 801 59 88 125 149 327 729 873 1850 3970
2020-07-08 18:30 2.30 358 9560 (2015) 17 (1954) 801 59 88 125 149 327 729 873 1850 3970
2020-07-08 17:30 2.30 358 9560 (2015) 17 (1954) 801 59 88 125 149 327 729 873 1850 3970
2020-07-08 16:30 2.31 363 9560 (2015) 17 (1954) 801 59 88 125 149 327 729 873 1850 3970
2020-07-08 15:30 2.31 363 9560 (2015) 17 (1954) 801 59 88 125 149 327 729 873 1850 3970
2020-07-08 14:30 2.32 367 9560 (2015) 17 (1954) 801 59 88 125 149 327 729 873 1850 3970
2020-07-08 13:30 2.32 367 9560 (2015) 17 (1954) 801 59 88 125 149 327 729 873 1850 3970
2020-07-08 12:30 2.33 372 9560 (2015) 17 (1954) 801 59 88 125 149 327 729 873 1850 3970
2020-07-08 11:30 2.33 372 9560 (2015) 17 (1954) 801 59 88 125 149 327 729 873 1850 3970
2020-07-08 10:30 2.34 376 9560 (2015) 17 (1954) 801 59 88 125 149 327 729 873 1850 3970
2020-07-08 09:30 2.35 381 9560 (2015) 17 (1954) 801 59 88 125 149 327 729 873 1850 3970
2020-07-08 08:30 2.35 381 9560 (2015) 17 (1954) 801 59 88 125 149 327 729 873 1850 3970
2020-07-08 07:30 2.34 376 9560 (2015) 17 (1954) 801 59 88 125 149 327 729 873 1850 3970
2020-07-08 06:30 2.35 381 9560 (2015) 17 (1954) 801 59 88 125 149 327 729 873 1850 3970
2020-07-08 05:30 2.36 386 9560 (2015) 17 (1954) 801 59 88 125 149 327 729 873 1850 3970
2020-07-08 04:30 2.35 381 9560 (2015) 17 (1954) 801 59 88 125 149 327 729 873 1850 3970
2020-07-08 03:30 2.35 381 9560 (2015) 17 (1954) 801 59 88 125 149 327 729 873 1850 3970
2020-07-08 02:30 2.37 390 9560 (2015) 17 (1954) 801 59 88 125 149 327 729 873 1850 3970
2020-07-08 01:30 2.37 390 9560 (2015) 17 (1954) 801 59 88 125 149 327 729 873 1850 3970
2020-07-08 00:30 2.37 390 9560 (2015) 17 (1954) 801 59 88 125 149 327 729 873 1850 3970
2020-07-07 23:30 2.38 395 9860 (1992) 11 (1954) 863 59 98 128 157 331 812 970 2200 4500
2020-07-07 22:30 2.38 395 9860 (1992) 11 (1954) 863 59 98 128 157 331 812 970 2200 4500
2020-07-07 21:30 2.40 404 9860 (1992) 11 (1954) 863 59 98 128 157 331 812 970 2200 4500
2020-07-07 20:30 2.40 404 9860 (1992) 11 (1954) 863 59 98 128 157 331 812 970 2200 4500
2020-07-07 19:30 2.41 409 9860 (1992) 11 (1954) 863 59 98 128 157 331 812 970 2200 4500
2020-07-07 18:30 2.40 404 9860 (1992) 11 (1954) 863 59 98 128 157 331 812 970 2200 4500
2020-07-07 17:30 2.42 414 9860 (1992) 11 (1954) 863 59 98 128 157 331 812 970 2200 4500
2020-07-07 16:30 2.42 414 9860 (1992) 11 (1954) 863 59 98 128 157 331 812 970 2200 4500
2020-07-07 15:30 2.43 419 9860 (1992) 11 (1954) 863 59 98 128 157 331 812 970 2200 4500
2020-07-07 14:30 2.43 419 9860 (1992) 11 (1954) 863 59 98 128 157 331 812 970 2200 4500
2020-07-07 13:30 2.44 423 9860 (1992) 11 (1954) 863 59 98 128 157 331 812 970 2200 4500
2020-07-07 12:30 2.45 428 9860 (1992) 11 (1954) 863 59 98 128 157 331 812 970 2200 4500
2020-07-07 11:30 2.46 433 9860 (1992) 11 (1954) 863 59 98 128 157 331 812 970 2200 4500
2020-07-07 10:30 2.46 433 9860 (1992) 11 (1954) 863 59 98 128 157 331 812 970 2200 4500
2020-07-07 09:30 2.47 438 9860 (1992) 11 (1954) 863 59 98 128 157 331 812 970 2200 4500
2020-07-07 08:30 2.47 438 9860 (1992) 11 (1954) 863 59 98 128 157 331 812 970 2200 4500
2020-07-07 07:30 2.48 442 9860 (1992) 11 (1954) 863 59 98 128 157 331 812 970 2200 4500
2020-07-07 06:30 2.48 442 9860 (1992) 11 (1954) 863 59 98 128 157 331 812 970 2200 4500
2020-07-07 05:30 2.50 452 9860 (1992) 11 (1954) 863 59 98 128 157 331 812 970 2200 4500
2020-07-07 04:30 2.50 452 9860 (1992) 11 (1954) 863 59 98 128 157 331 812 970 2200 4500
2020-07-07 03:30 2.53 466 9860 (1992) 11 (1954) 863 59 98 128 157 331 812 970 2200 4500
2020-07-07 02:30 2.53 466 9860 (1992) 11 (1954) 863 59 98 128 157 331 812 970 2200 4500
2020-07-07 01:30 2.54 471 9860 (1992) 11 (1954) 863 59 98 128 157 331 812 970 2200 4500
2020-07-07 00:30 2.55 475 9860 (1992) 11 (1954) 863 59 98 128 157 331 812 970 2200 4500
2020-07-06 23:30 2.56 480 14800 (1983) 9 (1954) 1200 63 109 133 169 323 791 883 2550 8960
2020-07-06 22:30 2.57 485 14800 (1983) 9 (1954) 1200 63 109 133 169 323 791 883 2550 8960
2020-07-06 21:30 2.58 490 14800 (1983) 9 (1954) 1200 63 109 133 169 323 791 883 2550 8960
2020-07-06 20:30 2.59 495 14800 (1983) 9 (1954) 1200 63 109 133 169 323 791 883 2550 8960
2020-07-06 19:30 2.60 500 14800 (1983) 9 (1954) 1200 63 109 133 169 323 791 883 2550 8960
2020-07-06 18:30 2.62 509 14800 (1983) 9 (1954) 1200 63 109 133 169 323 791 883 2550 8960
2020-07-06 17:30 2.63 514 14800 (1983) 9 (1954) 1200 63 109 133 169 323 791 883 2550 8960
2020-07-06 16:30 2.64 519 14800 (1983) 9 (1954) 1200 63 109 133 169 323 791 883 2550 8960
2020-07-06 15:30 2.65 524 14800 (1983) 9 (1954) 1200 63 109 133 169 323 791 883 2550 8960
2020-07-06 14:30 2.64 519 14800 (1983) 9 (1954) 1200 63 109 133 169 323 791 883 2550 8960
2020-07-06 13:30 2.68 539 14800 (1983) 9 (1954) 1200 63 109 133 169 323 791 883 2550 8960
2020-07-06 12:30 2.68 539 14800 (1983) 9 (1954) 1200 63 109 133 169 323 791 883 2550 8960
2020-07-06 11:30 2.71 555 14800 (1983) 9 (1954) 1200 63 109 133 169 323 791 883 2550 8960
2020-07-06 10:30 2.69 545 14800 (1983) 9 (1954) 1200 63 109 133 169 323 791 883 2550 8960
2020-07-06 09:30 2.71 555 14800 (1983) 9 (1954) 1200 63 109 133 169 323 791 883 2550 8960
2020-07-06 08:30 2.71 555 14800 (1983) 9 (1954) 1200 63 109 133 169 323 791 883 2550 8960
2020-07-06 07:30 2.74 570 14800 (1983) 9 (1954) 1200 63 109 133 169 323 791 883 2550 8960
2020-07-06 06:30 2.74 570 14800 (1983) 9 (1954) 1200 63 109 133 169 323 791 883 2550 8960
2020-07-06 05:30 2.77 586 14800 (1983) 9 (1954) 1200 63 109 133 169 323 791 883 2550 8960
2020-07-06 04:30 2.79 596 14800 (1983) 9 (1954) 1200 63 109 133 169 323 791 883 2550 8960
2020-07-06 03:30 2.81 607 14800 (1983) 9 (1954) 1200 63 109 133 169 323 791 883 2550 8960
2020-07-06 02:30 2.85 629 14800 (1983) 9 (1954) 1200 63 109 133 169 323 791 883 2550 8960
2020-07-06 01:30 2.85 629 14800 (1983) 9 (1954) 1200 63 109 133 169 323 791 883 2550 8960
2020-07-06 00:30 2.89 651 14800 (1983) 9 (1954) 1200 63 109 133 169 323 791 883 2550 8960
2020-07-05 23:30 2.92 667 29300 (1976) 15 (1954) 1320 72 110 141 177 319 740 1040 2890 6670
2020-07-05 22:30 2.97 695 29300 (1976) 15 (1954) 1320 72 110 141 177 319 740 1040 2890 6670
2020-07-05 21:30 2.98 701 29300 (1976) 15 (1954) 1320 72 110 141 177 319 740 1040 2890 6670
2020-07-05 20:30 3.04 736 29300 (1976) 15 (1954) 1320 72 110 141 177 319 740 1040 2890 6670
2020-07-05 19:30 3.08 760 29300 (1976) 15 (1954) 1320 72 110 141 177 319 740 1040 2890 6670
2020-07-05 18:30 3.13 790 29300 (1976) 15 (1954) 1320 72 110 141 177 319 740 1040 2890 6670
2020-07-05 17:30 3.17 815 29300 (1976) 15 (1954) 1320 72 110 141 177 319 740 1040 2890 6670
2020-07-05 16:30 3.21 840 29300 (1976) 15 (1954) 1320 72 110 141 177 319 740 1040 2890 6670
2020-07-05 15:30 3.27 872 29300 (1976) 15 (1954) 1320 72 110 141 177 319 740 1040 2890 6670
2020-07-05 14:30 3.34 917 29300 (1976) 15 (1954) 1320 72 110 141 177 319 740 1040 2890 6670
2020-07-05 13:30 3.36 931 29300 (1976) 15 (1954) 1320 72 110 141 177 319 740 1040 2890 6670
2020-07-05 12:30 3.42 971 29300 (1976) 15 (1954) 1320 72 110 141 177 319 740 1040 2890 6670
2020-07-05 11:30 3.46 998 29300 (1976) 15 (1954) 1320 72 110 141 177 319 740 1040 2890 6670
2020-07-05 10:30 3.49 1020 29300 (1976) 15 (1954) 1320 72 110 141 177 319 740 1040 2890 6670
2020-07-05 09:30 3.55 1060 29300 (1976) 15 (1954) 1320 72 110 141 177 319 740 1040 2890 6670
2020-07-05 08:30 3.61 1100 29300 (1976) 15 (1954) 1320 72 110 141 177 319 740 1040 2890 6670
2020-07-05 07:30 3.69 1160 29300 (1976) 15 (1954) 1320 72 110 141 177 319 740 1040 2890 6670
2020-07-05 06:30 3.75 1200 29300 (1976) 15 (1954) 1320 72 110 141 177 319 740 1040 2890 6670
2020-07-05 05:30 3.84 1260 29300 (1976) 15 (1954) 1320 72 110 141 177 319 740 1040 2890 6670
2020-07-05 04:30 3.91 1320 29300 (1976) 15 (1954) 1320 72 110 141 177 319 740 1040 2890 6670
2020-07-05 03:30 4.01 1390 29300 (1976) 15 (1954) 1320 72 110 141 177 319 740 1040 2890 6670
2020-07-05 02:30 4.07 1440 29300 (1976) 15 (1954) 1320 72 110 141 177 319 740 1040 2890 6670
2020-07-05 01:30 4.12 1480 29300 (1976) 15 (1954) 1320 72 110 141 177 319 740 1040 2890 6670
2020-07-05 00:30 4.21 1550 29300 (1976) 15 (1954) 1320 72 110 141 177 319 740 1040 2890 6670
2020-07-04 23:30 4.24 1570 41400 (1976) 15 (1954) 1370 71 105 171 180 328 921 1010 2150 6920
2020-07-04 22:30 4.29 1600 41400 (1976) 15 (1954) 1370 71 105 171 180 328 921 1010 2150 6920
2020-07-04 21:30 4.28 1590 41400 (1976) 15 (1954) 1370 71 105 171 180 328 921 1010 2150 6920
2020-07-04 20:30 4.24 1570 41400 (1976) 15 (1954) 1370 71 105 171 180 328 921 1010 2150 6920
2020-07-04 19:30 4.16 1510 41400 (1976) 15 (1954) 1370 71 105 171 180 328 921 1010 2150 6920
2020-07-04 18:30 3.99 1380 41400 (1976) 15 (1954) 1370 71 105 171 180 328 921 1010 2150 6920
2020-07-04 17:30 3.61 1100 41400 (1976) 15 (1954) 1370 71 105 171 180 328 921 1010 2150 6920
2020-07-04 16:30 2.96 690 41400 (1976) 15 (1954) 1370 71 105 171 180 328 921 1010 2150 6920
2020-07-04 15:30 2.42 414 41400 (1976) 15 (1954) 1370 71 105 171 180 328 921 1010 2150 6920
2020-07-04 14:30 2.35 381 41400 (1976) 15 (1954) 1370 71 105 171 180 328 921 1010 2150 6920
2020-07-04 13:30 2.35 381 41400 (1976) 15 (1954) 1370 71 105 171 180 328 921 1010 2150 6920
2020-07-04 12:30 2.35 381 41400 (1976) 15 (1954) 1370 71 105 171 180 328 921 1010 2150 6920
2020-07-04 11:30 2.35 381 41400 (1976) 15 (1954) 1370 71 105 171 180 328 921 1010 2150 6920
2020-07-04 10:30 2.35 381 41400 (1976) 15 (1954) 1370 71 105 171 180 328 921 1010 2150 6920
2020-07-04 09:30 2.35 381 41400 (1976) 15 (1954) 1370 71 105 171 180 328 921 1010 2150 6920
2020-07-04 08:30 2.35 381 41400 (1976) 15 (1954) 1370 71 105 171 180 328 921 1010 2150 6920
2020-07-04 07:30 2.35 381 41400 (1976) 15 (1954) 1370 71 105 171 180 328 921 1010 2150 6920
2020-07-04 06:30 2.36 386 41400 (1976) 15 (1954) 1370 71 105 171 180 328 921 1010 2150 6920
2020-07-04 05:30 2.36 386 41400 (1976) 15 (1954) 1370 71 105 171 180 328 921 1010 2150 6920
2020-07-04 04:30 2.35 381 41400 (1976) 15 (1954) 1370 71 105 171 180 328 921 1010 2150 6920
2020-07-04 03:30 2.36 386 41400 (1976) 15 (1954) 1370 71 105 171 180 328 921 1010 2150 6920
2020-07-04 02:30 2.36 386 41400 (1976) 15 (1954) 1370 71 105 171 180 328 921 1010 2150 6920
2020-07-04 01:30 2.37 390 41400 (1976) 15 (1954) 1370 71 105 171 180 328 921 1010 2150 6920
2020-07-04 00:30 2.37 390 41400 (1976) 15 (1954) 1370 71 105 171 180 328 921 1010 2150 6920
2020-07-03 23:30 2.38 395 28000 (1976) 16 (1954) 1370 64 121 165 181 328 967 1320 2910 6880
2020-07-03 22:30 2.39 400 28000 (1976) 16 (1954) 1370 64 121 165 181 328 967 1320 2910 6880
2020-07-03 21:30 2.39 400 28000 (1976) 16 (1954) 1370 64 121 165 181 328 967 1320 2910 6880
2020-07-03 20:30 2.39 400 28000 (1976) 16 (1954) 1370 64 121 165 181 328 967 1320 2910 6880
2020-07-03 19:30 2.40 404 28000 (1976) 16 (1954) 1370 64 121 165 181 328 967 1320 2910 6880
2020-07-03 18:30 2.40 404 28000 (1976) 16 (1954) 1370 64 121 165 181 328 967 1320 2910 6880
2020-07-03 17:30 2.40 404 28000 (1976) 16 (1954) 1370 64 121 165 181 328 967 1320 2910 6880
2020-07-03 16:30 2.41 409 28000 (1976) 16 (1954) 1370 64 121 165 181 328 967 1320 2910 6880
2020-07-03 15:30 2.41 409 28000 (1976) 16 (1954) 1370 64 121 165 181 328 967 1320 2910 6880
2020-07-03 14:30 2.41 409 28000 (1976) 16 (1954) 1370 64 121 165 181 328 967 1320 2910 6880
2020-07-03 13:30 2.43 419 28000 (1976) 16 (1954) 1370 64 121 165 181 328 967 1320 2910 6880
2020-07-03 12:30 2.43 419 28000 (1976) 16 (1954) 1370 64 121 165 181 328 967 1320 2910 6880
2020-07-03 11:30 2.45 428 28000 (1976) 16 (1954) 1370 64 121 165 181 328 967 1320 2910 6880
2020-07-03 10:30 2.46 433 28000 (1976) 16 (1954) 1370 64 121 165 181 328 967 1320 2910 6880
2020-07-03 09:30 2.47 438 28000 (1976) 16 (1954) 1370 64 121 165 181 328 967 1320 2910 6880
2020-07-03 08:30 2.49 447 28000 (1976) 16 (1954) 1370 64 121 165 181 328 967 1320 2910 6880
2020-07-03 07:30 2.52 461 28000 (1976) 16 (1954) 1370 64 121 165 181 328 967 1320 2910 6880
2020-07-03 06:30 2.51 456 28000 (1976) 16 (1954) 1370 64 121 165 181 328 967 1320 2910 6880
2020-07-03 05:30 2.52 461 28000 (1976) 16 (1954) 1370 64 121 165 181 328 967 1320 2910 6880
2020-07-03 04:30 2.51 456 28000 (1976) 16 (1954) 1370 64 121 165 181 328 967 1320 2910 6880
2020-07-03 03:30 2.46 433 28000 (1976) 16 (1954) 1370 64 121 165 181 328 967 1320 2910 6880
2020-07-03 02:30 2.42 414 28000 (1976) 16 (1954) 1370 64 121 165 181 328 967 1320 2910 6880
2020-07-03 01:30 2.41 409 28000 (1976) 16 (1954) 1370 64 121 165 181 328 967 1320 2910 6880
2020-07-03 00:30 2.41 409 28000 (1976) 16 (1954) 1370 64 121 165 181 328 967 1320 2910 6880
2020-07-02 23:30 2.40 404 18200 (2007) 16 (1954) 1390 66 113 174 193 329 1070 1830 3850 6870
2020-07-02 22:30 2.40 404 18200 (2007) 16 (1954) 1390 66 113 174 193 329 1070 1830 3850 6870
2020-07-02 21:30 2.40 404 18200 (2007) 16 (1954) 1390 66 113 174 193 329 1070 1830 3850 6870
2020-07-02 20:30 2.41 409 18200 (2007) 16 (1954) 1390 66 113 174 193 329 1070 1830 3850 6870
2020-07-02 19:30 2.43 419 18200 (2007) 16 (1954) 1390 66 113 174 193 329 1070 1830 3850 6870
2020-07-02 18:30 2.44 423 18200 (2007) 16 (1954) 1390 66 113 174 193 329 1070 1830 3850 6870
2020-07-02 17:30 2.43 419 18200 (2007) 16 (1954) 1390 66 113 174 193 329 1070 1830 3850 6870
2020-07-02 16:30 2.41 409 18200 (2007) 16 (1954) 1390 66 113 174 193 329 1070 1830 3850 6870
2020-07-02 15:30 2.36 386 18200 (2007) 16 (1954) 1390 66 113 174 193 329 1070 1830 3850 6870
2020-07-02 14:30 2.35 381 18200 (2007) 16 (1954) 1390 66 113 174 193 329 1070 1830 3850 6870
2020-07-02 13:30 2.35 381 18200 (2007) 16 (1954) 1390 66 113 174 193 329 1070 1830 3850 6870
2020-07-02 12:30 2.37 390 18200 (2007) 16 (1954) 1390 66 113 174 193 329 1070 1830 3850 6870
2020-07-02 11:30 2.36 386 18200 (2007) 16 (1954) 1390 66 113 174 193 329 1070 1830 3850 6870
2020-07-02 10:30 2.36 386 18200 (2007) 16 (1954) 1390 66 113 174 193 329 1070 1830 3850 6870
2020-07-02 09:30 2.37 390 18200 (2007) 16 (1954) 1390 66 113 174 193 329 1070 1830 3850 6870
2020-07-02 08:30 2.38 395 18200 (2007) 16 (1954) 1390 66 113 174 193 329 1070 1830 3850 6870
2020-07-02 07:30 2.38 395 18200 (2007) 16 (1954) 1390 66 113 174 193 329 1070 1830 3850 6870
2020-07-02 06:30 2.37 390 18200 (2007) 16 (1954) 1390 66 113 174 193 329 1070 1830 3850 6870
2020-07-02 05:30 2.37 390 18200 (2007) 16 (1954) 1390 66 113 174 193 329 1070 1830 3850 6870
2020-07-02 04:30 2.38 395 18200 (2007) 16 (1954) 1390 66 113 174 193 329 1070 1830 3850 6870
2020-07-02 03:30 2.37 390 18200 (2007) 16 (1954) 1390 66 113 174 193 329 1070 1830 3850 6870
2020-07-02 02:30 2.37 390 18200 (2007) 16 (1954) 1390 66 113 174 193 329 1070 1830 3850 6870
2020-07-02 01:30 2.37 390 18200 (2007) 16 (1954) 1390 66 113 174 193 329 1070 1830 3850 6870
2020-07-02 00:30 2.37 390 18200 (2007) 16 (1954) 1390 66 113 174 193 329 1070 1830 3850 6870
2020-07-01 23:30 2.38 395 14000 (2007) 17 (1954) 1300 67 117 174 197 368 1020 1460 3690 6210
2020-07-01 22:30 2.37 390 14000 (2007) 17 (1954) 1300 67 117 174 197 368 1020 1460 3690 6210
2020-07-01 21:30 2.38 395 14000 (2007) 17 (1954) 1300 67 117 174 197 368 1020 1460 3690 6210
2020-07-01 20:30 2.37 390 14000 (2007) 17 (1954) 1300 67 117 174 197 368 1020 1460 3690 6210
2020-07-01 19:30 2.38 395 14000 (2007) 17 (1954) 1300 67 117 174 197 368 1020 1460 3690 6210
2020-07-01 18:30 2.38 395 14000 (2007) 17 (1954) 1300 67 117 174 197 368 1020 1460 3690 6210
2020-07-01 17:30 2.38 395 14000 (2007) 17 (1954) 1300 67 117 174 197 368 1020 1460 3690 6210
2020-07-01 16:30 2.38 395 14000 (2007) 17 (1954) 1300 67 117 174 197 368 1020 1460 3690 6210
2020-07-01 15:30 2.38 395 14000 (2007) 17 (1954) 1300 67 117 174 197 368 1020 1460 3690 6210
2020-07-01 14:30 2.37 390 14000 (2007) 17 (1954) 1300 67 117 174 197 368 1020 1460 3690 6210
2020-07-01 13:30 2.38 395 14000 (2007) 17 (1954) 1300 67 117 174 197 368 1020 1460 3690 6210
2020-07-01 12:30 2.39 400 14000 (2007) 17 (1954) 1300 67 117 174 197 368 1020 1460 3690 6210
2020-07-01 11:30 2.39 400 14000 (2007) 17 (1954) 1300 67 117 174 197 368 1020 1460 3690 6210
2020-07-01 10:30 2.39 400 14000 (2007) 17 (1954) 1300 67 117 174 197 368 1020 1460 3690 6210
2020-07-01 09:30 2.40 404 14000 (2007) 17 (1954) 1300 67 117 174 197 368 1020 1460 3690 6210
2020-07-01 08:30 2.39 400 14000 (2007) 17 (1954) 1300 67 117 174 197 368 1020 1460 3690 6210
2020-07-01 07:30 2.40 404 14000 (2007) 17 (1954) 1300 67 117 174 197 368 1020 1460 3690 6210
2020-07-01 06:30 2.41 409 14000 (2007) 17 (1954) 1300 67 117 174 197 368 1020 1460 3690 6210
2020-07-01 05:30 2.42 414 14000 (2007) 17 (1954) 1300 67 117 174 197 368 1020 1460 3690 6210
2020-07-01 04:30 2.42 414 14000 (2007) 17 (1954) 1300 67 117 174 197 368 1020 1460 3690 6210
2020-07-01 03:30 2.45 428 14000 (2007) 17 (1954) 1300 67 117 174 197 368 1020 1460 3690 6210
2020-07-01 02:30 2.45 428 14000 (2007) 17 (1954) 1300 67 117 174 197 368 1020 1460 3690 6210
2020-07-01 01:30 2.46 433 14000 (2007) 17 (1954) 1300 67 117 174 197 368 1020 1460 3690 6210
2020-07-01 00:30 2.48 442 14000 (2007) 17 (1954) 1300 67 117 174 197 368 1020 1460 3690 6210
2020-06-30 23:30 2.50 452 10800 (1951) 21 (1954) 1050 64 102 180 205 366 812 1200 3450 5980
2020-06-30 22:30 2.51 456 10800 (1951) 21 (1954) 1050 64 102 180 205 366 812 1200 3450 5980
2020-06-30 21:30 2.50 452 10800 (1951) 21 (1954) 1050 64 102 180 205 366 812 1200 3450 5980
2020-06-30 20:30 2.48 442 10800 (1951) 21 (1954) 1050 64 102 180 205 366 812 1200 3450 5980
2020-06-30 19:30 2.48 442 10800 (1951) 21 (1954) 1050 64 102 180 205 366 812 1200 3450 5980
2020-06-30 18:30 2.47 438 10800 (1951) 21 (1954) 1050 64 102 180 205 366 812 1200 3450 5980
2020-06-30 17:30 2.47 438 10800 (1951) 21 (1954) 1050 64 102 180 205 366 812 1200 3450 5980
2020-06-30 16:30 2.47 438 10800 (1951) 21 (1954) 1050 64 102 180 205 366 812 1200 3450 5980
2020-06-30 15:30 2.48 442 10800 (1951) 21 (1954) 1050 64 102 180 205 366 812 1200 3450 5980
2020-06-30 14:30 2.46 433 10800 (1951) 21 (1954) 1050 64 102 180 205 366 812 1200 3450 5980
2020-06-30 13:30 2.46 433 10800 (1951) 21 (1954) 1050 64 102 180 205 366 812 1200 3450 5980
2020-06-30 12:30 2.46 433 10800 (1951) 21 (1954) 1050 64 102 180 205 366 812 1200 3450 5980
2020-06-30 11:30 2.46 433 10800 (1951) 21 (1954) 1050 64 102 180 205 366 812 1200 3450 5980
2020-06-30 10:30 2.43 419 10800 (1951) 21 (1954) 1050 64 102 180 205 366 812 1200 3450 5980
2020-06-30 09:30 2.46 433 10800 (1951) 21 (1954) 1050 64 102 180 205 366 812 1200 3450 5980
2020-06-30 08:30 2.43 419 10800 (1951) 21 (1954) 1050 64 102 180 205 366 812 1200 3450 5980
2020-06-30 07:30 2.40 404 10800 (1951) 21 (1954) 1050 64 102 180 205 366 812 1200 3450 5980
2020-06-30 06:30 2.39 400 10800 (1951) 21 (1954) 1050 64 102 180 205 366 812 1200 3450 5980
2020-06-30 05:30 2.40 404 10800 (1951) 21 (1954) 1050 64 102 180 205 366 812 1200 3450 5980
2020-06-30 04:30 2.40 404 10800 (1951) 21 (1954) 1050 64 102 180 205 366 812 1200 3450 5980
2020-06-30 03:30 2.40 404 10800 (1951) 21 (1954) 1050 64 102 180 205 366 812 1200 3450 5980
2020-06-30 02:30 2.39 400 10800 (1951) 21 (1954) 1050 64 102 180 205 366 812 1200 3450 5980
2020-06-30 01:30 2.41 409 10800 (1951) 21 (1954) 1050 64 102 180 205 366 812 1200 3450 5980
2020-06-30 00:30 2.39 400 10800 (1951) 21 (1954) 1050 64 102 180 205 366 812 1200 3450 5980
2020-06-29 23:30 2.41 409 10100 (2007) 18 (1954) 1120 65 106 181 203 397 945 1320 3300 6470
2020-06-29 22:30 2.39 400 10100 (2007) 18 (1954) 1120 65 106 181 203 397 945 1320 3300 6470
2020-06-29 21:30 2.40 404 10100 (2007) 18 (1954) 1120 65 106 181 203 397 945 1320 3300 6470
2020-06-29 20:30 2.40 404 10100 (2007) 18 (1954) 1120 65 106 181 203 397 945 1320 3300 6470
2020-06-29 19:30 2.41 409 10100 (2007) 18 (1954) 1120 65 106 181 203 397 945 1320 3300 6470
2020-06-29 18:30 2.41 409 10100 (2007) 18 (1954) 1120 65 106 181 203 397 945 1320 3300 6470
2020-06-29 17:30 2.40 404 10100 (2007) 18 (1954) 1120 65 106 181 203 397 945 1320 3300 6470
2020-06-29 16:30 2.41 409 10100 (2007) 18 (1954) 1120 65 106 181 203 397 945 1320 3300 6470
2020-06-29 15:30 2.42 414 10100 (2007) 18 (1954) 1120 65 106 181 203 397 945 1320 3300 6470
2020-06-29 14:30 2.41 409 10100 (2007) 18 (1954) 1120 65 106 181 203 397 945 1320 3300 6470
2020-06-29 13:30 2.41 409 10100 (2007) 18 (1954) 1120 65 106 181 203 397 945 1320 3300 6470
2020-06-29 12:30 2.41 409 10100 (2007) 18 (1954) 1120 65 106 181 203 397 945 1320 3300 6470
2020-06-29 11:30 2.42 414 10100 (2007) 18 (1954) 1120 65 106 181 203 397 945 1320 3300 6470
2020-06-29 10:30 2.41 409 10100 (2007) 18 (1954) 1120 65 106 181 203 397 945 1320 3300 6470
2020-06-29 09:30 2.42 414 10100 (2007) 18 (1954) 1120 65 106 181 203 397 945 1320 3300 6470
2020-06-29 08:30 2.41 409 10100 (2007) 18 (1954) 1120 65 106 181 203 397 945 1320 3300 6470
2020-06-29 07:30 2.42 414 10100 (2007) 18 (1954) 1120 65 106 181 203 397 945 1320 3300 6470
2020-06-29 06:30 2.42 414 10100 (2007) 18 (1954) 1120 65 106 181 203 397 945 1320 3300 6470
2020-06-29 05:30 2.42 414 10100 (2007) 18 (1954) 1120 65 106 181 203 397 945 1320 3300 6470
2020-06-29 04:30 2.41 409 10100 (2007) 18 (1954) 1120 65 106 181 203 397 945 1320 3300 6470
2020-06-29 03:30 2.42 414 10100 (2007) 18 (1954) 1120 65 106 181 203 397 945 1320 3300 6470
2020-06-29 02:30 2.41 409 10100 (2007) 18 (1954) 1120 65 106 181 203 397 945 1320 3300 6470
2020-06-29 01:30 2.42 414 10100 (2007) 18 (1954) 1120 65 106 181 203 397 945 1320 3300 6470
2020-06-29 00:30 2.43 419 10100 (2007) 18 (1954) 1120 65 106 181 203 397 945 1320 3300 6470
2020-06-28 23:30 2.42 414 15900 (1932) 15 (1954) 1130 74 102 170 208 513 984 1510 2590 3530
2020-06-28 22:30 2.43 419 15900 (1932) 15 (1954) 1130 74 102 170 208 513 984 1510 2590 3530
2020-06-28 21:30 2.43 419 15900 (1932) 15 (1954) 1130 74 102 170 208 513 984 1510 2590 3530
2020-06-28 20:30 2.43 419 15900 (1932) 15 (1954) 1130 74 102 170 208 513 984 1510 2590 3530
2020-06-28 19:30 2.43 419 15900 (1932) 15 (1954) 1130 74 102 170 208 513 984 1510 2590 3530
2020-06-28 18:30 2.44 423 15900 (1932) 15 (1954) 1130 74 102 170 208 513 984 1510 2590 3530
2020-06-28 17:30 2.42 414 15900 (1932) 15 (1954) 1130 74 102 170 208 513 984 1510 2590 3530
2020-06-28 16:30 2.44 423 15900 (1932) 15 (1954) 1130 74 102 170 208 513 984 1510 2590 3530
2020-06-28 15:30 2.45 428 15900 (1932) 15 (1954) 1130 74 102 170 208 513 984 1510 2590 3530
2020-06-28 14:30 2.44 423 15900 (1932) 15 (1954) 1130 74 102 170 208 513 984 1510 2590 3530
2020-06-28 13:30 2.44 423 15900 (1932) 15 (1954) 1130 74 102 170 208 513 984 1510 2590 3530
2020-06-28 12:30 2.44 423 15900 (1932) 15 (1954) 1130 74 102 170 208 513 984 1510 2590 3530
2020-06-28 11:30 2.45 428 15900 (1932) 15 (1954) 1130 74 102 170 208 513 984 1510 2590 3530
2020-06-28 10:30 2.45 428 15900 (1932) 15 (1954) 1130 74 102 170 208 513 984 1510 2590 3530
2020-06-28 09:30 2.45 428 15900 (1932) 15 (1954) 1130 74 102 170 208 513 984 1510 2590 3530
2020-06-28 08:30 2.46 433 15900 (1932) 15 (1954) 1130 74 102 170 208 513 984 1510 2590 3530
2020-06-28 07:30 2.46 433 15900 (1932) 15 (1954) 1130 74 102 170 208 513 984 1510 2590 3530
2020-06-28 06:30 2.46 433 15900 (1932) 15 (1954) 1130 74 102 170 208 513 984 1510 2590 3530
2020-06-28 05:30 2.46 433 15900 (1932) 15 (1954) 1130 74 102 170 208 513 984 1510 2590 3530
2020-06-28 04:30 2.46 433 15900 (1932) 15 (1954) 1130 74 102 170 208 513 984 1510 2590 3530
2020-06-28 03:30 2.46 433 15900 (1932) 15 (1954) 1130 74 102 170 208 513 984 1510 2590 3530
2020-06-28 02:30 2.47 438 15900 (1932) 15 (1954) 1130 74 102 170 208 513 984 1510 2590 3530
2020-06-28 01:30 2.47 438 15900 (1932) 15 (1954) 1130 74 102 170 208 513 984 1510 2590 3530
2020-06-28 00:30 2.46 433 15900 (1932) 15 (1954) 1130 74 102 170 208 513 984 1510 2590 3530
2020-06-27 23:30 2.47 438 11100 (1955) 21 (1954) 1130 79 109 184 235 518 1070 1400 2570 4510
2020-06-27 22:30 2.47 438 11100 (1955) 21 (1954) 1130 79 109 184 235 518 1070 1400 2570 4510
2020-06-27 21:30 2.45 428 11100 (1955) 21 (1954) 1130 79 109 184 235 518 1070 1400 2570 4510
2020-06-27 20:30 2.47 438 11100 (1955) 21 (1954) 1130 79 109 184 235 518 1070 1400 2570 4510
2020-06-27 19:30 2.48 442 11100 (1955) 21 (1954) 1130 79 109 184 235 518 1070 1400 2570 4510
2020-06-27 18:30 2.48 442 11100 (1955) 21 (1954) 1130 79 109 184 235 518 1070 1400 2570 4510
2020-06-27 17:30 2.47 438 11100 (1955) 21 (1954) 1130 79 109 184 235 518 1070 1400 2570 4510
2020-06-27 16:30 2.49 447 11100 (1955) 21 (1954) 1130 79 109 184 235 518 1070 1400 2570 4510
2020-06-27 15:30 2.48 442 11100 (1955) 21 (1954) 1130 79 109 184 235 518 1070 1400 2570 4510
2020-06-27 14:30 2.48 442 11100 (1955) 21 (1954) 1130 79 109 184 235 518 1070 1400 2570 4510
2020-06-27 13:30 2.48 442 11100 (1955) 21 (1954) 1130 79 109 184 235 518 1070 1400 2570 4510
2020-06-27 12:30 2.47 438 11100 (1955) 21 (1954) 1130 79 109 184 235 518 1070 1400 2570 4510
2020-06-27 11:30 2.48 442 11100 (1955) 21 (1954) 1130 79 109 184 235 518 1070 1400 2570 4510
2020-06-27 10:30 2.48 442 11100 (1955) 21 (1954) 1130 79 109 184 235 518 1070 1400 2570 4510
2020-06-27 09:30 2.47 438 11100 (1955) 21 (1954) 1130 79 109 184 235 518 1070 1400 2570 4510
2020-06-27 08:30 2.48 442 11100 (1955) 21 (1954) 1130 79 109 184 235 518 1070 1400 2570 4510
2020-06-27 07:30 2.46 433 11100 (1955) 21 (1954) 1130 79 109 184 235 518 1070 1400 2570 4510
2020-06-27 06:30 2.47 438 11100 (1955) 21 (1954) 1130 79 109 184 235 518 1070 1400 2570 4510
2020-06-27 05:30 2.47 438 11100 (1955) 21 (1954) 1130 79 109 184 235 518 1070 1400 2570 4510
2020-06-27 04:30 2.48 442 11100 (1955) 21 (1954) 1130 79 109 184 235 518 1070 1400 2570 4510
2020-06-27 03:30 2.47 438 11100 (1955) 21 (1954) 1130 79 109 184 235 518 1070 1400 2570 4510
2020-06-27 02:30 2.49 447 11100 (1955) 21 (1954) 1130 79 109 184 235 518 1070 1400 2570 4510
2020-06-27 01:30 2.49 447 11100 (1955) 21 (1954) 1130 79 109 184 235 518 1070 1400 2570 4510
2020-06-27 00:30 2.46 433 11100 (1955) 21 (1954) 1130 79 109 184 235 518 1070 1400 2570 4510
2020-06-26 23:30 2.50 452 17300 (1993) 30 (1954) 1200 85 121 202 271 462 1140 1390 3160 3790
2020-06-26 22:30 2.50 452 17300 (1993) 30 (1954) 1200 85 121 202 271 462 1140 1390 3160 3790
2020-06-26 21:30 2.48 442 17300 (1993) 30 (1954) 1200 85 121 202 271 462 1140 1390 3160 3790
2020-06-26 20:30 2.50 452 17300 (1993) 30 (1954) 1200 85 121 202 271 462 1140 1390 3160 3790
2020-06-26 19:30 2.48 442 17300 (1993) 30 (1954) 1200 85 121 202 271 462 1140 1390 3160 3790
2020-06-26 18:30 2.50 452 17300 (1993) 30 (1954) 1200 85 121 202 271 462 1140 1390 3160 3790
2020-06-26 17:30 2.50 452 17300 (1993) 30 (1954) 1200 85 121 202 271 462 1140 1390 3160 3790
2020-06-26 16:30 2.49 447 17300 (1993) 30 (1954) 1200 85 121 202 271 462 1140 1390 3160 3790
2020-06-26 15:30 2.49 447 17300 (1993) 30 (1954) 1200 85 121 202 271 462 1140 1390 3160 3790
2020-06-26 14:30 2.50 452 17300 (1993) 30 (1954) 1200 85 121 202 271 462 1140 1390 3160 3790
2020-06-26 13:30 2.51 456 17300 (1993) 30 (1954) 1200 85 121 202 271 462 1140 1390 3160 3790
2020-06-26 12:30 2.51 456 17300 (1993) 30 (1954) 1200 85 121 202 271 462 1140 1390 3160 3790
2020-06-26 11:30 2.50 452 17300 (1993) 30 (1954) 1200 85 121 202 271 462 1140 1390 3160 3790
2020-06-26 10:30 2.51 456 17300 (1993) 30 (1954) 1200 85 121 202 271 462 1140 1390 3160 3790
2020-06-26 09:30 2.51 456 17300 (1993) 30 (1954) 1200 85 121 202 271 462 1140 1390 3160 3790
2020-06-26 08:30 2.52 461 17300 (1993) 30 (1954) 1200 85 121 202 271 462 1140 1390 3160 3790
2020-06-26 07:30 2.52 461 17300 (1993) 30 (1954) 1200 85 121 202 271 462 1140 1390 3160 3790
2020-06-26 06:30 2.51 456 17300 (1993) 30 (1954) 1200 85 121 202 271 462 1140 1390 3160 3790
2020-06-26 05:30 2.53 466 17300 (1993) 30 (1954) 1200 85 121 202 271 462 1140 1390 3160 3790
2020-06-26 04:30 2.51 456 17300 (1993) 30 (1954) 1200 85 121 202 271 462 1140 1390 3160 3790
2020-06-26 03:30 2.51 456 17300 (1993) 30 (1954) 1200 85 121 202 271 462 1140 1390 3160 3790
2020-06-26 02:30 2.51 456 17300 (1993) 30 (1954) 1200 85 121 202 271 462 1140 1390 3160 3790
2020-06-26 01:30 2.52 461 17300 (1993) 30 (1954) 1200 85 121 202 271 462 1140 1390 3160 3790
2020-06-26 00:30 2.53 466 17300 (1993) 30 (1954) 1200 85 121 202 271 462 1140 1390 3160 3790
2020-06-25 23:30 2.53 466 16200 (1948) 29 (1954) 1250 79 127 202 238 497 1100 1520 3100 4880
2020-06-25 22:30 2.53 466 16200 (1948) 29 (1954) 1250 79 127 202 238 497 1100 1520 3100 4880
2020-06-25 21:30 2.53 466 16200 (1948) 29 (1954) 1250 79 127 202 238 497 1100 1520 3100 4880
2020-06-25 20:30 2.54 471 16200 (1948) 29 (1954) 1250 79 127 202 238 497 1100 1520 3100 4880
2020-06-25 19:30 2.55 475 16200 (1948) 29 (1954) 1250 79 127 202 238 497 1100 1520 3100 4880
2020-06-25 18:30 2.55 475 16200 (1948) 29 (1954) 1250 79 127 202 238 497 1100 1520 3100 4880
2020-06-25 17:30 2.54 471 16200 (1948) 29 (1954) 1250 79 127 202 238 497 1100 1520 3100 4880
2020-06-25 16:30 2.55 475 16200 (1948) 29 (1954) 1250 79 127 202 238 497 1100 1520 3100 4880
2020-06-25 15:30 2.54 471 16200 (1948) 29 (1954) 1250 79 127 202 238 497 1100 1520 3100 4880
2020-06-25 14:30 2.55 475 16200 (1948) 29 (1954) 1250 79 127 202 238 497 1100 1520 3100 4880
2020-06-25 13:30 2.56 480 16200 (1948) 29 (1954) 1250 79 127 202 238 497 1100 1520 3100 4880
2020-06-25 12:30 2.56 480 16200 (1948) 29 (1954) 1250 79 127 202 238 497 1100 1520 3100 4880
2020-06-25 11:30 2.56 480 16200 (1948) 29 (1954) 1250 79 127 202 238 497 1100 1520 3100 4880
2020-06-25 10:30 2.57 485 16200 (1948) 29 (1954) 1250 79 127 202 238 497 1100 1520 3100 4880
2020-06-25 09:30 2.56 480 16200 (1948) 29 (1954) 1250 79 127 202 238 497 1100 1520 3100 4880
2020-06-25 08:30 2.57 485 16200 (1948) 29 (1954) 1250 79 127 202 238 497 1100 1520 3100 4880
2020-06-25 07:30 2.57 485 16200 (1948) 29 (1954) 1250 79 127 202 238 497 1100 1520 3100 4880
2020-06-25 06:30 2.58 490 16200 (1948) 29 (1954) 1250 79 127 202 238 497 1100 1520 3100 4880
2020-06-25 05:30 2.58 490 16200 (1948) 29 (1954) 1250 79 127 202 238 497 1100 1520 3100 4880
2020-06-25 04:30 2.57 485 16200 (1948) 29 (1954) 1250 79 127 202 238 497 1100 1520 3100 4880
2020-06-25 03:30 2.58 490 16200 (1948) 29 (1954) 1250 79 127 202 238 497 1100 1520 3100 4880
2020-06-25 02:30 2.58 490 16200 (1948) 29 (1954) 1250 79 127 202 238 497 1100 1520 3100 4880
2020-06-25 01:30 2.59 495 16200 (1948) 29 (1954) 1250 79 127 202 238 497 1100 1520 3100 4880
2020-06-25 00:30 2.59 495 16200 (1948) 29 (1954) 1250 79 127 202 238 497 1100 1520 3100 4880
2020-06-24 23:30 2.59 495 26400 (1948) 30 (1954) 1490 74 129 206 249 615 1380 2040 3410 5350
2020-06-24 22:30 2.60 500 26400 (1948) 30 (1954) 1490 74 129 206 249 615 1380 2040 3410 5350
2020-06-24 21:30 2.60 500 26400 (1948) 30 (1954) 1490 74 129 206 249 615 1380 2040 3410 5350
2020-06-24 20:30 2.60 500 26400 (1948) 30 (1954) 1490 74 129 206 249 615 1380 2040 3410 5350
2020-06-24 19:30 2.60 500 26400 (1948) 30 (1954) 1490 74 129 206 249 615 1380 2040 3410 5350
2020-06-24 18:30 2.60 500 26400 (1948) 30 (1954) 1490 74 129 206 249 615 1380 2040 3410 5350
2020-06-24 17:30 2.60 500 26400 (1948) 30 (1954) 1490 74 129 206 249 615 1380 2040 3410 5350
2020-06-24 16:30 2.61 504 26400 (1948) 30 (1954) 1490 74 129 206 249 615 1380 2040 3410 5350
2020-06-24 15:30 2.60 500 26400 (1948) 30 (1954) 1490 74 129 206 249 615 1380 2040 3410 5350
2020-06-24 14:30 2.60 500 26400 (1948) 30 (1954) 1490 74 129 206 249 615 1380 2040 3410 5350
2020-06-24 13:30 2.62 509 26400 (1948) 30 (1954) 1490 74 129 206 249 615 1380 2040 3410 5350
2020-06-24 12:30 2.61 504 26400 (1948) 30 (1954) 1490 74 129 206 249 615 1380 2040 3410 5350
2020-06-24 11:30 2.61 504 26400 (1948) 30 (1954) 1490 74 129 206 249 615 1380 2040 3410 5350
2020-06-24 10:30 2.62 509 26400 (1948) 30 (1954) 1490 74 129 206 249 615 1380 2040 3410 5350
2020-06-24 09:30 2.62 509 26400 (1948) 30 (1954) 1490 74 129 206 249 615 1380 2040 3410 5350
2020-06-24 08:30 2.62 509 26400 (1948) 30 (1954) 1490 74 129 206 249 615 1380 2040 3410 5350
2020-06-24 07:30 2.63 514 26400 (1948) 30 (1954) 1490 74 129 206 249 615 1380 2040 3410 5350
2020-06-24 06:30 2.62 509 26400 (1948) 30 (1954) 1490 74 129 206 249 615 1380 2040 3410 5350
2020-06-24 05:30 2.64 519 26400 (1948) 30 (1954) 1490 74 129 206 249 615 1380 2040 3410 5350
2020-06-24 04:30 2.64 519 26400 (1948) 30 (1954) 1490 74 129 206 249 615 1380 2040 3410 5350
2020-06-24 03:30 2.63 514 26400 (1948) 30 (1954) 1490 74 129 206 249 615 1380 2040 3410 5350
2020-06-24 02:30 2.64 519 26400 (1948) 30 (1954) 1490 74 129 206 249 615 1380 2040 3410 5350
2020-06-24 01:30 2.64 519 26400 (1948) 30 (1954) 1490 74 129 206 249 615 1380 2040 3410 5350
2020-06-24 00:30 2.65 524 26400 (1948) 30 (1954) 1490 74 129 206 249 615 1380 2040 3410 5350
2020-06-23 23:30 2.65 524 36300 (1948) 32 (1954) 1760 83 138 186 247 620 1350 2080 4050 7300
2020-06-23 22:30 2.65 524 36300 (1948) 32 (1954) 1760 83 138 186 247 620 1350 2080 4050 7300
2020-06-23 21:30 2.66 529 36300 (1948) 32 (1954) 1760 83 138 186 247 620 1350 2080 4050 7300
2020-06-23 20:30 2.66 529 36300 (1948) 32 (1954) 1760 83 138 186 247 620 1350 2080 4050 7300
2020-06-23 19:30 2.65 524 36300 (1948) 32 (1954) 1760 83 138 186 247 620 1350 2080 4050 7300
2020-06-23 18:30 2.66 529 36300 (1948) 32 (1954) 1760 83 138 186 247 620 1350 2080 4050 7300
2020-06-23 17:30 2.66 529 36300 (1948) 32 (1954) 1760 83 138 186 247 620 1350 2080 4050 7300
2020-06-23 16:30 2.64 519 36300 (1948) 32 (1954) 1760 83 138 186 247 620 1350 2080 4050 7300
2020-06-23 15:30 2.66 529 36300 (1948) 32 (1954) 1760 83 138 186 247 620 1350 2080 4050 7300
2020-06-23 14:30 2.65 524 36300 (1948) 32 (1954) 1760 83 138 186 247 620 1350 2080 4050 7300
2020-06-23 13:30 2.66 529 36300 (1948) 32 (1954) 1760 83 138 186 247 620 1350 2080 4050 7300
2020-06-23 12:30 2.66 529 36300 (1948) 32 (1954) 1760 83 138 186 247 620 1350 2080 4050 7300
2020-06-23 11:30 2.68 539 36300 (1948) 32 (1954) 1760 83 138 186 247 620 1350 2080 4050 7300
2020-06-23 10:30 2.69 545 36300 (1948) 32 (1954) 1760 83 138 186 247 620 1350 2080 4050 7300
2020-06-23 09:30 2.67 534 36300 (1948) 32 (1954) 1760 83 138 186 247 620 1350 2080 4050 7300
2020-06-23 08:30 2.66 529 36300 (1948) 32 (1954) 1760 83 138 186 247 620 1350 2080 4050 7300
2020-06-23 07:30 2.68 539 36300 (1948) 32 (1954) 1760 83 138 186 247 620 1350 2080 4050 7300
2020-06-23 06:30 2.68 539 36300 (1948) 32 (1954) 1760 83 138 186 247 620 1350 2080 4050 7300
2020-06-23 05:30 2.69 545 36300 (1948) 32 (1954) 1760 83 138 186 247 620 1350 2080 4050 7300
2020-06-23 04:30 2.68 539 36300 (1948) 32 (1954) 1760 83 138 186 247 620 1350 2080 4050 7300
2020-06-23 03:30 2.69 545 36300 (1948) 32 (1954) 1760 83 138 186 247 620 1350 2080 4050 7300
2020-06-23 02:30 2.70 550 36300 (1948) 32 (1954) 1760 83 138 186 247 620 1350 2080 4050 7300
2020-06-23 01:30 2.70 550 36300 (1948) 32 (1954) 1760 83 138 186 247 620 1350 2080 4050 7300
2020-06-23 00:30 2.71 555 36300 (1948) 32 (1954) 1760 83 138 186 247 620 1350 2080 4050 7300
2020-06-22 23:30 2.69 545 27800 (1948) 29 (1954) 1800 80 137 176 219 520 1500 1940 5760 7370
2020-06-22 22:30 2.70 550 27800 (1948) 29 (1954) 1800 80 137 176 219 520 1500 1940 5760 7370
2020-06-22 21:30 2.69 545 27800 (1948) 29 (1954) 1800 80 137 176 219 520 1500 1940 5760 7370
2020-06-22 20:30 2.70 550 27800 (1948) 29 (1954) 1800 80 137 176 219 520 1500 1940 5760 7370
2020-06-22 19:30 2.70 550 27800 (1948) 29 (1954) 1800 80 137 176 219 520 1500 1940 5760 7370
2020-06-22 18:30 2.71 555 27800 (1948) 29 (1954) 1800 80 137 176 219 520 1500 1940 5760 7370
2020-06-22 17:30 2.70 550 27800 (1948) 29 (1954) 1800 80 137 176 219 520 1500 1940 5760 7370
2020-06-22 16:30 2.69 545 27800 (1948) 29 (1954) 1800 80 137 176 219 520 1500 1940 5760 7370
2020-06-22 15:30 2.71 555 27800 (1948) 29 (1954) 1800 80 137 176 219 520 1500 1940 5760 7370
2020-06-22 14:30 2.72 560 27800 (1948) 29 (1954) 1800 80 137 176 219 520 1500 1940 5760 7370
2020-06-22 13:30 2.71 555 27800 (1948) 29 (1954) 1800 80 137 176 219 520 1500 1940 5760 7370
2020-06-22 12:30 2.71 555 27800 (1948) 29 (1954) 1800 80 137 176 219 520 1500 1940 5760 7370
2020-06-22 11:30 2.72 560 27800 (1948) 29 (1954) 1800 80 137 176 219 520 1500 1940 5760 7370
2020-06-22 10:30 2.71 555 27800 (1948) 29 (1954) 1800 80 137 176 219 520 1500 1940 5760 7370
2020-06-22 09:30 2.71 555 27800 (1948) 29 (1954) 1800 80 137 176 219 520 1500 1940 5760 7370
2020-06-22 08:30 2.71 555 27800 (1948) 29 (1954) 1800 80 137 176 219 520 1500 1940 5760 7370
2020-06-22 07:30 2.73 565 27800 (1948) 29 (1954) 1800 80 137 176 219 520 1500 1940 5760 7370
2020-06-22 06:30 2.71 555 27800 (1948) 29 (1954) 1800 80 137 176 219 520 1500 1940 5760 7370
2020-06-22 05:30 2.72 560 27800 (1948) 29 (1954) 1800 80 137 176 219 520 1500 1940 5760 7370
2020-06-22 04:30 2.72 560 27800 (1948) 29 (1954) 1800 80 137 176 219 520 1500 1940 5760 7370
2020-06-22 03:30 2.72 560 27800 (1948) 29 (1954) 1800 80 137 176 219 520 1500 1940 5760 7370
2020-06-22 02:30 2.73 565 27800 (1948) 29 (1954) 1800 80 137 176 219 520 1500 1940 5760 7370
2020-06-22 01:30 2.74 570 27800 (1948) 29 (1954) 1800 80 137 176 219 520 1500 1940 5760 7370
2020-06-22 00:30 2.74 570 27800 (1948) 29 (1954) 1800 80 137 176 219 520 1500 1940 5760 7370
2020-06-21 23:30 2.74 570 13700 (1928) 33 (1954) 1600 82 149 200 228 553 1190 1520 5920 8420
2020-06-21 22:30 2.74 570 13700 (1928) 33 (1954) 1600 82 149 200 228 553 1190 1520 5920 8420
2020-06-21 21:30 2.75 575 13700 (1928) 33 (1954) 1600 82 149 200 228 553 1190 1520 5920 8420
2020-06-21 20:30 2.74 570 13700 (1928) 33 (1954) 1600 82 149 200 228 553 1190 1520 5920 8420
2020-06-21 19:30 2.76 581 13700 (1928) 33 (1954) 1600 82 149 200 228 553 1190 1520 5920 8420
2020-06-21 18:30 2.75 575 13700 (1928) 33 (1954) 1600 82 149 200 228 553 1190 1520 5920 8420
2020-06-21 17:30 2.77 586 13700 (1928) 33 (1954) 1600 82 149 200 228 553 1190 1520 5920 8420
2020-06-21 16:30 2.78 591 13700 (1928) 33 (1954) 1600 82 149 200 228 553 1190 1520 5920 8420
2020-06-21 15:30 2.77 586 13700 (1928) 33 (1954) 1600 82 149 200 228 553 1190 1520 5920 8420
2020-06-21 14:30 2.79 596 13700 (1928) 33 (1954) 1600 82 149 200 228 553 1190 1520 5920 8420
2020-06-21 13:30 2.79 596 13700 (1928) 33 (1954) 1600 82 149 200 228 553 1190 1520 5920 8420
2020-06-21 12:30 2.78 591 13700 (1928) 33 (1954) 1600 82 149 200 228 553 1190 1520 5920 8420
2020-06-21 11:30 2.80 602 13700 (1928) 33 (1954) 1600 82 149 200 228 553 1190 1520 5920 8420
2020-06-21 10:30 2.80 602 13700 (1928) 33 (1954) 1600 82 149 200 228 553 1190 1520 5920 8420
2020-06-21 09:30 2.81 607 13700 (1928) 33 (1954) 1600 82 149 200 228 553 1190 1520 5920 8420
2020-06-21 08:30 2.83 618 13700 (1928) 33 (1954) 1600 82 149 200 228 553 1190 1520 5920 8420
2020-06-21 07:30 2.83 618 13700 (1928) 33 (1954) 1600 82 149 200 228 553 1190 1520 5920 8420
2020-06-21 06:30 2.83 618 13700 (1928) 33 (1954) 1600 82 149 200 228 553 1190 1520 5920 8420
2020-06-21 05:30 2.83 618 13700 (1928) 33 (1954) 1600 82 149 200 228 553 1190 1520 5920 8420
2020-06-21 04:30 2.82 612 13700 (1928) 33 (1954) 1600 82 149 200 228 553 1190 1520 5920 8420
2020-06-21 03:30 2.81 607 13700 (1928) 33 (1954) 1600 82 149 200 228 553 1190 1520 5920 8420
2020-06-21 02:30 2.83 618 13700 (1928) 33 (1954) 1600 82 149 200 228 553 1190 1520 5920 8420
2020-06-21 01:30 2.83 618 13700 (1928) 33 (1954) 1600 82 149 200 228 553 1190 1520 5920 8420
2020-06-21 00:30 2.84 623 13700 (1928) 33 (1954) 1600 82 149 200 228 553 1190 1520 5920 8420
2020-06-20 23:30 2.84 623 9660 (1944) 40 (1954) 1320 88 141 215 238 580 1200 1460 3530 7120
2020-06-20 22:30 2.81 607 9660 (1944) 40 (1954) 1320 88 141 215 238 580 1200 1460 3530 7120
2020-06-20 21:30 2.81 607 9660 (1944) 40 (1954) 1320 88 141 215 238 580 1200 1460 3530 7120
2020-06-20 20:30 2.80 602 9660 (1944) 40 (1954) 1320 88 141 215 238 580 1200 1460 3530 7120
2020-06-20 19:30 2.81 607 9660 (1944) 40 (1954) 1320 88 141 215 238 580 1200 1460 3530 7120
2020-06-20 18:30 2.79 596 9660 (1944) 40 (1954) 1320 88 141 215 238 580 1200 1460 3530 7120
2020-06-20 17:30 2.80 602 9660 (1944) 40 (1954) 1320 88 141 215 238 580 1200 1460 3530 7120
2020-06-20 16:30 2.79 596 9660 (1944) 40 (1954) 1320 88 141 215 238 580 1200 1460 3530 7120
2020-06-20 15:30 2.79 596 9660 (1944) 40 (1954) 1320 88 141 215 238 580 1200 1460 3530 7120
2020-06-20 14:30 2.78 591 9660 (1944) 40 (1954) 1320 88 141 215 238 580 1200 1460 3530 7120
2020-06-20 13:30 2.78 591 9660 (1944) 40 (1954) 1320 88 141 215 238 580 1200 1460 3530 7120
2020-06-20 12:30 2.78 591 9660 (1944) 40 (1954) 1320 88 141 215 238 580 1200 1460 3530 7120
2020-06-20 11:30 2.76 581 9660 (1944) 40 (1954) 1320 88 141 215 238 580 1200 1460 3530 7120
2020-06-20 10:30 2.76 581 9660 (1944) 40 (1954) 1320 88 141 215 238 580 1200 1460 3530 7120
2020-06-20 09:30 2.77 586 9660 (1944) 40 (1954) 1320 88 141 215 238 580 1200 1460 3530 7120
2020-06-20 08:30 2.75 575 9660 (1944) 40 (1954) 1320 88 141 215 238 580 1200 1460 3530 7120
2020-06-20 07:30 2.75 575 9660 (1944) 40 (1954) 1320 88 141 215 238 580 1200 1460 3530 7120
2020-06-20 06:30 2.76 581 9660 (1944) 40 (1954) 1320 88 141 215 238 580 1200 1460 3530 7120
2020-06-20 05:30 2.76 581 9660 (1944) 40 (1954) 1320 88 141 215 238 580 1200 1460 3530 7120
2020-06-20 04:30 2.75 575 9660 (1944) 40 (1954) 1320 88 141 215 238 580 1200 1460 3530 7120
2020-06-20 03:30 2.77 586 9660 (1944) 40 (1954) 1320 88 141 215 238 580 1200 1460 3530 7120
2020-06-20 02:30 2.75 575 9660 (1944) 40 (1954) 1320 88 141 215 238 580 1200 1460 3530 7120
2020-06-20 01:30 2.77 586 9660 (1944) 40 (1954) 1320 88 141 215 238 580 1200 1460 3530 7120
2020-06-20 00:30 2.78 591 9660 (1944) 40 (1954) 1320 88 141 215 238 580 1200 1460 3530 7120
2020-06-19 23:30 2.78 591 12500 (2015) 44 (1954) 1400 91 143 201 250 524 1210 1510 4490 7530
2020-06-19 22:30 2.77 586 12500 (2015) 44 (1954) 1400 91 143 201 250 524 1210 1510 4490 7530
2020-06-19 21:30 2.78 591 12500 (2015) 44 (1954) 1400 91 143 201 250 524 1210 1510 4490 7530
2020-06-19 20:30 2.78 591 12500 (2015) 44 (1954) 1400 91 143 201 250 524 1210 1510 4490 7530
2020-06-19 19:30 2.77 586 12500 (2015) 44 (1954) 1400 91 143 201 250 524 1210 1510 4490 7530
2020-06-19 18:30 2.80 602 12500 (2015) 44 (1954) 1400 91 143 201 250 524 1210 1510 4490 7530
2020-06-19 17:30 2.80 602 12500 (2015) 44 (1954) 1400 91 143 201 250 524 1210 1510 4490 7530
2020-06-19 16:30 2.81 607 12500 (2015) 44 (1954) 1400 91 143 201 250 524 1210 1510 4490 7530
2020-06-19 15:30 2.81 607 12500 (2015) 44 (1954) 1400 91 143 201 250 524 1210 1510 4490 7530
2020-06-19 14:30 2.79 596 12500 (2015) 44 (1954) 1400 91 143 201 250 524 1210 1510 4490 7530
2020-06-19 13:30 2.81 607 12500 (2015) 44 (1954) 1400 91 143 201 250 524 1210 1510 4490 7530
2020-06-19 12:30 2.80 602 12500 (2015) 44 (1954) 1400 91 143 201 250 524 1210 1510 4490 7530
2020-06-19 11:30 2.80 602 12500 (2015) 44 (1954) 1400 91 143 201 250 524 1210 1510 4490 7530
2020-06-19 10:30 2.82 612 12500 (2015) 44 (1954) 1400 91 143 201 250 524 1210 1510 4490 7530
2020-06-19 09:30 2.81 607 12500 (2015) 44 (1954) 1400 91 143 201 250 524 1210 1510 4490 7530
2020-06-19 08:30 2.83 618 12500 (2015) 44 (1954) 1400 91 143 201 250 524 1210 1510 4490 7530
2020-06-19 07:30 2.83 618 12500 (2015) 44 (1954) 1400 91 143 201 250 524 1210 1510 4490 7530
2020-06-19 06:30 2.83 618 12500 (2015) 44 (1954) 1400 91 143 201 250 524 1210 1510 4490 7530
2020-06-19 05:30 2.83 618 12500 (2015) 44 (1954) 1400 91 143 201 250 524 1210 1510 4490 7530
2020-06-19 04:30 2.83 618 12500 (2015) 44 (1954) 1400 91 143 201 250 524 1210 1510 4490 7530
2020-06-19 03:30 2.83 618 12500 (2015) 44 (1954) 1400 91 143 201 250 524 1210 1510 4490 7530
2020-06-19 02:30 2.82 612 12500 (2015) 44 (1954) 1400 91 143 201 250 524 1210 1510 4490 7530
2020-06-19 01:30 2.83 618 12500 (2015) 44 (1954) 1400 91 143 201 250 524 1210 1510 4490 7530
2020-06-19 00:30 2.84 623 12500 (2015) 44 (1954) 1400 91 143 201 250 524 1210 1510 4490 7530
2020-06-18 23:30 2.85 629 12800 (1928) 49 (1977) 1370 89 147 206 255 460 1530 1720 3280 6380
2020-06-18 22:30 2.87 640 12800 (1928) 49 (1977) 1370 89 147 206 255 460 1530 1720 3280 6380
2020-06-18 21:30 2.86 634 12800 (1928) 49 (1977) 1370 89 147 206 255 460 1530 1720 3280 6380
2020-06-18 20:30 2.88 645 12800 (1928) 49 (1977) 1370 89 147 206 255 460 1530 1720 3280 6380
2020-06-18 19:30 2.88 645 12800 (1928) 49 (1977) 1370 89 147 206 255 460 1530 1720 3280 6380
2020-06-18 18:30 2.89 651 12800 (1928) 49 (1977) 1370 89 147 206 255 460 1530 1720 3280 6380
2020-06-18 17:30 2.90 656 12800 (1928) 49 (1977) 1370 89 147 206 255 460 1530 1720 3280 6380
2020-06-18 16:30 2.90 656 12800 (1928) 49 (1977) 1370 89 147 206 255 460 1530 1720 3280 6380
2020-06-18 15:30 2.91 662 12800 (1928) 49 (1977) 1370 89 147 206 255 460 1530 1720 3280 6380
2020-06-18 14:30 2.92 667 12800 (1928) 49 (1977) 1370 89 147 206 255 460 1530 1720 3280 6380
2020-06-18 13:30 2.92 667 12800 (1928) 49 (1977) 1370 89 147 206 255 460 1530 1720 3280 6380
2020-06-18 12:30 2.94 678 12800 (1928) 49 (1977) 1370 89 147 206 255 460 1530 1720 3280 6380
2020-06-18 11:30 2.95 684 12800 (1928) 49 (1977) 1370 89 147 206 255 460 1530 1720 3280 6380
2020-06-18 10:30 2.96 690 12800 (1928) 49 (1977) 1370 89 147 206 255 460 1530 1720 3280 6380
2020-06-18 09:30 2.96 690 12800 (1928) 49 (1977) 1370 89 147 206 255 460 1530 1720 3280 6380
2020-06-18 08:30 2.99 707 12800 (1928) 49 (1977) 1370 89 147 206 255 460 1530 1720 3280 6380
2020-06-18 07:30 3.01 718 12800 (1928) 49 (1977) 1370 89 147 206 255 460 1530 1720 3280 6380
2020-06-18 06:30 3.01 718 12800 (1928) 49 (1977) 1370 89 147 206 255 460 1530 1720 3280 6380
2020-06-18 05:30 3.03 730 12800 (1928) 49 (1977) 1370 89 147 206 255 460 1530 1720 3280 6380
2020-06-18 04:30 3.06 748 12800 (1928) 49 (1977) 1370 89 147 206 255 460 1530 1720 3280 6380
2020-06-18 03:30 3.07 754 12800 (1928) 49 (1977) 1370 89 147 206 255 460 1530 1720 3280 6380
2020-06-18 02:30 3.10 772 12800 (1928) 49 (1977) 1370 89 147 206 255 460 1530 1720 3280 6380
2020-06-18 01:30 3.13 790 12800 (1928) 49 (1977) 1370 89 147 206 255 460 1530 1720 3280 6380
2020-06-18 00:30 3.17 815 12800 (1928) 49 (1977) 1370 89 147 206 255 460 1530 1720 3280 6380
2020-06-17 23:30 3.26 866 13100 (1945) 42 (1977) 1450 93 147 231 257 469 1480 1870 4220 6640
2020-06-17 22:30 3.27 872 13100 (1945) 42 (1977) 1450 93 147 231 257 469 1480 1870 4220 6640
2020-06-17 21:30 3.33 911 13100 (1945) 42 (1977) 1450 93 147 231 257 469 1480 1870 4220 6640
2020-06-17 20:30 3.37 937 13100 (1945) 42 (1977) 1450 93 147 231 257 469 1480 1870 4220 6640
2020-06-17 19:30 3.44 984 13100 (1945) 42 (1977) 1450 93 147 231 257 469 1480 1870 4220 6640
2020-06-17 18:30 3.52 1040 13100 (1945) 42 (1977) 1450 93 147 231 257 469 1480 1870 4220 6640
2020-06-17 17:30 3.61 1100 13100 (1945) 42 (1977) 1450 93 147 231 257 469 1480 1870 4220 6640
2020-06-17 16:30 3.69 1160 13100 (1945) 42 (1977) 1450 93 147 231 257 469 1480 1870 4220 6640
2020-06-17 15:30 3.85 1270 13100 (1945) 42 (1977) 1450 93 147 231 257 469 1480 1870 4220 6640
2020-06-17 14:30 3.96 1360 13100 (1945) 42 (1977) 1450 93 147 231 257 469 1480 1870 4220 6640
2020-06-17 13:30 4.09 1450 13100 (1945) 42 (1977) 1450 93 147 231 257 469 1480 1870 4220 6640
2020-06-17 12:30 4.24 1570 13100 (1945) 42 (1977) 1450 93 147 231 257 469 1480 1870 4220 6640
2020-06-17 11:30 4.32 1620 13100 (1945) 42 (1977) 1450 93 147 231 257 469 1480 1870 4220 6640
2020-06-17 10:30 4.32 1620 13100 (1945) 42 (1977) 1450 93 147 231 257 469 1480 1870 4220 6640
2020-06-17 09:30 4.11 1470 13100 (1945) 42 (1977) 1450 93 147 231 257 469 1480 1870 4220 6640
2020-06-17 08:30 3.65 1130 13100 (1945) 42 (1977) 1450 93 147 231 257 469 1480 1870 4220 6640
2020-06-17 07:30 3.07 754 13100 (1945) 42 (1977) 1450 93 147 231 257 469 1480 1870 4220 6640
2020-06-17 06:30 2.91 662 13100 (1945) 42 (1977) 1450 93 147 231 257 469 1480 1870 4220 6640
2020-06-17 05:30 2.88 645 13100 (1945) 42 (1977) 1450 93 147 231 257 469 1480 1870 4220 6640
2020-06-17 04:30 2.90 656 13100 (1945) 42 (1977) 1450 93 147 231 257 469 1480 1870 4220 6640
2020-06-17 03:30 2.89 651 13100 (1945) 42 (1977) 1450 93 147 231 257 469 1480 1870 4220 6640
2020-06-17 02:30 2.89 651 13100 (1945) 42 (1977) 1450 93 147 231 257 469 1480 1870 4220 6640
2020-06-17 01:30 2.91 662 13100 (1945) 42 (1977) 1450 93 147 231 257 469 1480 1870 4220 6640
2020-06-17 00:30 2.89 651 13100 (1945) 42 (1977) 1450 93 147 231 257 469 1480 1870 4220 6640
2020-06-16 23:30 2.90 656 16200 (2013) 53 (1977) 1440 102 153 218 268 484 1440 1890 2980 7320
2020-06-16 22:30 2.89 651 16200 (2013) 53 (1977) 1440 102 153 218 268 484 1440 1890 2980 7320
2020-06-16 21:30 2.93 673 16200 (2013) 53 (1977) 1440 102 153 218 268 484 1440 1890 2980 7320
2020-06-16 20:30 2.92 667 16200 (2013) 53 (1977) 1440 102 153 218 268 484 1440 1890 2980 7320
2020-06-16 19:30 2.92 667 16200 (2013) 53 (1977) 1440 102 153 218 268 484 1440 1890 2980 7320
2020-06-16 18:30 2.93 673 16200 (2013) 53 (1977) 1440 102 153 218 268 484 1440 1890 2980 7320
2020-06-16 17:30 2.91 662 16200 (2013) 53 (1977) 1440 102 153 218 268 484 1440 1890 2980 7320
2020-06-16 16:30 2.93 673 16200 (2013) 53 (1977) 1440 102 153 218 268 484 1440 1890 2980 7320
2020-06-16 15:30 2.94 678 16200 (2013) 53 (1977) 1440 102 153 218 268 484 1440 1890 2980 7320
2020-06-16 14:30 2.95 684 16200 (2013) 53 (1977) 1440 102 153 218 268 484 1440 1890 2980 7320
2020-06-16 13:30 2.96 690 16200 (2013) 53 (1977) 1440 102 153 218 268 484 1440 1890 2980 7320
2020-06-16 12:30 2.95 684 16200 (2013) 53 (1977) 1440 102 153 218 268 484 1440 1890 2980 7320
2020-06-16 11:30 2.94 678 16200 (2013) 53 (1977) 1440 102 153 218 268 484 1440 1890 2980 7320
2020-06-16 10:30 2.96 690 16200 (2013) 53 (1977) 1440 102 153 218 268 484 1440 1890 2980 7320
2020-06-16 09:30 2.97 695 16200 (2013) 53 (1977) 1440 102 153 218 268 484 1440 1890 2980 7320
2020-06-16 08:30 2.96 690 16200 (2013) 53 (1977) 1440 102 153 218 268 484 1440 1890 2980 7320
2020-06-16 07:30 2.94 678 16200 (2013) 53 (1977) 1440 102 153 218 268 484 1440 1890 2980 7320
2020-06-16 06:30 2.97 695 16200 (2013) 53 (1977) 1440 102 153 218 268 484 1440 1890 2980 7320
2020-06-16 05:30 2.95 684 16200 (2013) 53 (1977) 1440 102 153 218 268 484 1440 1890 2980 7320
2020-06-16 04:30 2.97 695 16200 (2013) 53 (1977) 1440 102 153 218 268 484 1440 1890 2980 7320
2020-06-16 03:30 2.96 690 16200 (2013) 53 (1977) 1440 102 153 218 268 484 1440 1890 2980 7320
2020-06-16 02:30 2.98 701 16200 (2013) 53 (1977) 1440 102 153 218 268 484 1440 1890 2980 7320
2020-06-16 01:30 2.98 701 16200 (2013) 53 (1977) 1440 102 153 218 268 484 1440 1890 2980 7320
2020-06-16 00:30 2.99 707 16200 (2013) 53 (1977) 1440 102 153 218 268 484 1440 1890 2980 7320
2020-06-15 23:30 2.97 695 18000 (2008) 51 (1977) 1510 94 140 206 258 524 1270 1590 3020 9930
2020-06-15 22:30 2.98 701 18000 (2008) 51 (1977) 1510 94 140 206 258 524 1270 1590 3020 9930
2020-06-15 21:30 2.98 701 18000 (2008) 51 (1977) 1510 94 140 206 258 524 1270 1590 3020 9930
2020-06-15 20:30 3.00 712 18000 (2008) 51 (1977) 1510 94 140 206 258 524 1270 1590 3020 9930
2020-06-15 19:30 3.00 712 18000 (2008) 51 (1977) 1510 94 140 206 258 524 1270 1590 3020 9930
2020-06-15 18:30 3.01 718 18000 (2008) 51 (1977) 1510 94 140 206 258 524 1270 1590 3020 9930
2020-06-15 17:30 3.01 718 18000 (2008) 51 (1977) 1510 94 140 206 258 524 1270 1590 3020 9930
2020-06-15 16:30 3.01 718 18000 (2008) 51 (1977) 1510 94 140 206 258 524 1270 1590 3020 9930
2020-06-15 15:30 3.02 724 18000 (2008) 51 (1977) 1510 94 140 206 258 524 1270 1590 3020 9930
2020-06-15 14:30 3.00 712 18000 (2008) 51 (1977) 1510 94 140 206 258 524 1270 1590 3020 9930
2020-06-15 13:30 3.02 724 18000 (2008) 51 (1977) 1510 94 140 206 258 524 1270 1590 3020 9930
2020-06-15 12:30 3.01 718 18000 (2008) 51 (1977) 1510 94 140 206 258 524 1270 1590 3020 9930
2020-06-15 11:30 3.02 724 18000 (2008) 51 (1977) 1510 94 140 206 258 524 1270 1590 3020 9930
2020-06-15 10:30 3.02 724 18000 (2008) 51 (1977) 1510 94 140 206 258 524 1270 1590 3020 9930
2020-06-15 09:30 3.03 730 18000 (2008) 51 (1977) 1510 94 140 206 258 524 1270 1590 3020 9930
2020-06-15 08:30 3.01 718 18000 (2008) 51 (1977) 1510 94 140 206 258 524 1270 1590 3020 9930
2020-06-15 07:30 3.03 730 18000 (2008) 51 (1977) 1510 94 140 206 258 524 1270 1590 3020 9930
2020-06-15 06:30 3.03 730 18000 (2008) 51 (1977) 1510 94 140 206 258 524 1270 1590 3020 9930
2020-06-15 05:30 3.01 718 18000 (2008) 51 (1977) 1510 94 140 206 258 524 1270 1590 3020 9930
2020-06-15 04:30 3.04 736 18000 (2008) 51 (1977) 1510 94 140 206 258 524 1270 1590 3020 9930
2020-06-15 03:30 3.03 730 18000 (2008) 51 (1977) 1510 94 140 206 258 524 1270 1590 3020 9930
2020-06-15 02:30 3.03 730 18000 (2008) 51 (1977) 1510 94 140 206 258 524 1270 1590 3020 9930
2020-06-15 01:30 3.04 736 18000 (2008) 51 (1977) 1510 94 140 206 258 524 1270 1590 3020 9930
2020-06-15 00:30 3.05 742 18000 (2008) 51 (1977) 1510 94 140 206 258 524 1270 1590 3020 9930
2020-06-14 23:30 3.05 742 23800 (2007) 48 (1977) 1650 102 146 237 271 538 1160 1620 3590 8800
2020-06-14 22:30 3.06 748 23800 (2007) 48 (1977) 1650 102 146 237 271 538 1160 1620 3590 8800
2020-06-14 21:30 3.04 736 23800 (2007) 48 (1977) 1650 102 146 237 271 538 1160 1620 3590 8800
2020-06-14 20:30 3.03 730 23800 (2007) 48 (1977) 1650 102 146 237 271 538 1160 1620 3590 8800
2020-06-14 19:30 3.08 760 23800 (2007) 48 (1977) 1650 102 146 237 271 538 1160 1620 3590 8800
2020-06-14 18:30 3.08 760 23800 (2007) 48 (1977) 1650 102 146 237 271 538 1160 1620 3590 8800
2020-06-14 17:30 3.08 760 23800 (2007) 48 (1977) 1650 102 146 237 271 538 1160 1620 3590 8800
2020-06-14 16:30 3.08 760 23800 (2007) 48 (1977) 1650 102 146 237 271 538 1160 1620 3590 8800
2020-06-14 15:30 3.08 760 23800 (2007) 48 (1977) 1650 102 146 237 271 538 1160 1620 3590 8800
2020-06-14 14:30 3.05 742 23800 (2007) 48 (1977) 1650 102 146 237 271 538 1160 1620 3590 8800
2020-06-14 13:30 3.09 766 23800 (2007) 48 (1977) 1650 102 146 237 271 538 1160 1620 3590 8800
2020-06-14 12:30 3.08 760 23800 (2007) 48 (1977) 1650 102 146 237 271 538 1160 1620 3590 8800
2020-06-14 11:30 3.08 760 23800 (2007) 48 (1977) 1650 102 146 237 271 538 1160 1620 3590 8800
2020-06-14 10:30 3.10 772 23800 (2007) 48 (1977) 1650 102 146 237 271 538 1160 1620 3590 8800
2020-06-14 09:30 3.11 778 23800 (2007) 48 (1977) 1650 102 146 237 271 538 1160 1620 3590 8800
2020-06-14 08:30 3.09 766 23800 (2007) 48 (1977) 1650 102 146 237 271 538 1160 1620 3590 8800
2020-06-14 07:30 3.11 778 23800 (2007) 48 (1977) 1650 102 146 237 271 538 1160 1620 3590 8800
2020-06-14 06:30 3.11 778 23800 (2007) 48 (1977) 1650 102 146 237 271 538 1160 1620 3590 8800
2020-06-14 05:30 3.13 790 23800 (2007) 48 (1977) 1650 102 146 237 271 538 1160 1620 3590 8800
2020-06-14 04:30 3.09 766 23800 (2007) 48 (1977) 1650 102 146 237 271 538 1160 1620 3590 8800
2020-06-14 03:30 3.11 778 23800 (2007) 48 (1977) 1650 102 146 237 271 538 1160 1620 3590 8800
2020-06-14 02:30 3.12 784 23800 (2007) 48 (1977) 1650 102 146 237 271 538 1160 1620 3590 8800
2020-06-14 01:30 3.11 778 23800 (2007) 48 (1977) 1650 102 146 237 271 538 1160 1620 3590 8800
2020-06-14 00:30 3.11 778 23800 (2007) 48 (1977) 1650 102 146 237 271 538 1160 1620 3590 8800
2020-06-13 23:30 3.12 784 37200 (2007) 48 (1977) 1720 105 152 229 254 555 1420 2010 3680 8070
2020-06-13 22:30 3.13 790 37200 (2007) 48 (1977) 1720 105 152 229 254 555 1420 2010 3680 8070
2020-06-13 21:30 3.13 790 37200 (2007) 48 (1977) 1720 105 152 229 254 555 1420 2010 3680 8070
2020-06-13 20:30 3.15 803 37200 (2007) 48 (1977) 1720 105 152 229 254 555 1420 2010 3680 8070
2020-06-13 19:30 3.13 790 37200 (2007) 48 (1977) 1720 105 152 229 254 555 1420 2010 3680 8070
2020-06-13 18:30 3.15 803 37200 (2007) 48 (1977) 1720 105 152 229 254 555 1420 2010 3680 8070
2020-06-13 17:30 3.16 809 37200 (2007) 48 (1977) 1720 105 152 229 254 555 1420 2010 3680 8070
2020-06-13 16:30 3.15 803 37200 (2007) 48 (1977) 1720 105 152 229 254 555 1420 2010 3680 8070
2020-06-13 15:30 3.16 809 37200 (2007) 48 (1977) 1720 105 152 229 254 555 1420 2010 3680 8070
2020-06-13 14:30 3.16 809 37200 (2007) 48 (1977) 1720 105 152 229 254 555 1420 2010 3680 8070
2020-06-13 13:30 3.16 809 37200 (2007) 48 (1977) 1720 105 152 229 254 555 1420 2010 3680 8070
2020-06-13 12:30 3.17 815 37200 (2007) 48 (1977) 1720 105 152 229 254 555 1420 2010 3680 8070
2020-06-13 11:30 3.18 821 37200 (2007) 48 (1977) 1720 105 152 229 254 555 1420 2010 3680 8070
2020-06-13 10:30 3.18 821 37200 (2007) 48 (1977) 1720 105 152 229 254 555 1420 2010 3680 8070
2020-06-13 09:30 3.16 809 37200 (2007) 48 (1977) 1720 105 152 229 254 555 1420 2010 3680 8070
2020-06-13 08:30 3.15 803 37200 (2007) 48 (1977) 1720 105 152 229 254 555 1420 2010 3680 8070
2020-06-13 07:30 3.17 815 37200 (2007) 48 (1977) 1720 105 152 229 254 555 1420 2010 3680 8070
2020-06-13 06:30 3.20 834 37200 (2007) 48 (1977) 1720 105 152 229 254 555 1420 2010 3680 8070
2020-06-13 05:30 3.21 840 37200 (2007) 48 (1977) 1720 105 152 229 254 555 1420 2010 3680 8070
2020-06-13 04:30 3.20 834 37200 (2007) 48 (1977) 1720 105 152 229 254 555 1420 2010 3680 8070
2020-06-13 03:30 3.19 828 37200 (2007) 48 (1977) 1720 105 152 229 254 555 1420 2010 3680 8070
2020-06-13 02:30 3.17 815 37200 (2007) 48 (1977) 1720 105 152 229 254 555 1420 2010 3680 8070
2020-06-13 01:30 3.19 828 37200 (2007) 48 (1977) 1720 105 152 229 254 555 1420 2010 3680 8070
2020-06-13 00:30 3.16 809 37200 (2007) 48 (1977) 1720 105 152 229 254 555 1420 2010 3680 8070
2020-06-12 23:30 3.22 847 61000 (2007) 53 (1977) 2170 110 156 225 269 575 2010 2160 4420 7490
2020-06-12 22:30 3.22 847 61000 (2007) 53 (1977) 2170 110 156 225 269 575 2010 2160 4420 7490
2020-06-12 21:30 3.21 840 61000 (2007) 53 (1977) 2170 110 156 225 269 575 2010 2160 4420 7490
2020-06-12 20:30 3.23 853 61000 (2007) 53 (1977) 2170 110 156 225 269 575 2010 2160 4420 7490
2020-06-12 19:30 3.19 828 61000 (2007) 53 (1977) 2170 110 156 225 269 575 2010 2160 4420 7490
2020-06-12 18:30 3.22 847 61000 (2007) 53 (1977) 2170 110 156 225 269 575 2010 2160 4420 7490
2020-06-12 17:30 3.23 853 61000 (2007) 53 (1977) 2170 110 156 225 269 575 2010 2160 4420 7490
2020-06-12 16:30 3.22 847 61000 (2007) 53 (1977) 2170 110 156 225 269 575 2010 2160 4420 7490
2020-06-12 15:30 3.27 872 61000 (2007) 53 (1977) 2170 110 156 225 269 575 2010 2160 4420 7490
2020-06-12 14:30 3.23 853 61000 (2007) 53 (1977) 2170 110 156 225 269 575 2010 2160 4420 7490
2020-06-12 13:30 3.28 878 61000 (2007) 53 (1977) 2170 110 156 225 269 575 2010 2160 4420 7490
2020-06-12 12:30 3.28 878 61000 (2007) 53 (1977) 2170 110 156 225 269 575 2010 2160 4420 7490
2020-06-12 11:30 3.29 885 61000 (2007) 53 (1977) 2170 110 156 225 269 575 2010 2160 4420 7490
2020-06-12 10:30 3.29 885 61000 (2007) 53 (1977) 2170 110 156 225 269 575 2010 2160 4420 7490
2020-06-12 09:30 3.28 878 61000 (2007) 53 (1977) 2170 110 156 225 269 575 2010 2160 4420 7490
2020-06-12 08:30 3.27 872 61000 (2007) 53 (1977) 2170 110 156 225 269 575 2010 2160 4420 7490
2020-06-12 07:30 3.27 872 61000 (2007) 53 (1977) 2170 110 156 225 269 575 2010 2160 4420 7490
2020-06-12 06:30 3.28 878 61000 (2007) 53 (1977) 2170 110 156 225 269 575 2010 2160 4420 7490
2020-06-12 05:30 3.29 885 61000 (2007) 53 (1977) 2170 110 156 225 269 575 2010 2160 4420 7490
2020-06-12 04:30 3.31 898 61000 (2007) 53 (1977) 2170 110 156 225 269 575 2010 2160 4420 7490
2020-06-12 03:30 3.24 859 61000 (2007) 53 (1977) 2170 110 156 225 269 575 2010 2160 4420 7490
2020-06-12 02:30 3.30 891 61000 (2007) 53 (1977) 2170 110 156 225 269 575 2010 2160 4420 7490
2020-06-12 01:30 3.29 885 61000 (2007) 53 (1977) 2170 110 156 225 269 575 2010 2160 4420 7490
2020-06-12 00:30 3.31 898 61000 (2007) 53 (1977) 2170 110 156 225 269 575 2010 2160 4420 7490
2020-06-11 23:30 3.31 898 30300 (1995) 55 (1977) 2200 108 157 199 251 611 1860 2490 4140 12900
2020-06-11 22:30 3.32 904 30300 (1995) 55 (1977) 2200 108 157 199 251 611 1860 2490 4140 12900
2020-06-11 21:30 3.32 904 30300 (1995) 55 (1977) 2200 108 157 199 251 611 1860 2490 4140 12900
2020-06-11 20:30 3.31 898 30300 (1995) 55 (1977) 2200 108 157 199 251 611 1860 2490 4140 12900
2020-06-11 19:30 3.33 911 30300 (1995) 55 (1977) 2200 108 157 199 251 611 1860 2490 4140 12900
2020-06-11 18:30 3.36 931 30300 (1995) 55 (1977) 2200 108 157 199 251 611 1860 2490 4140 12900
2020-06-11 17:30 3.33 911 30300 (1995) 55 (1977) 2200 108 157 199 251 611 1860 2490 4140 12900
2020-06-11 16:30 3.32 904 30300 (1995) 55 (1977) 2200 108 157 199 251 611 1860 2490 4140 12900
2020-06-11 15:30 3.34 917 30300 (1995) 55 (1977) 2200 108 157 199 251 611 1860 2490 4140 12900
2020-06-11 14:30 3.37 937 30300 (1995) 55 (1977) 2200 108 157 199 251 611 1860 2490 4140 12900
2020-06-11 13:30 3.39 951 30300 (1995) 55 (1977) 2200 108 157 199 251 611 1860 2490 4140 12900
2020-06-11 12:30 3.38 944 30300 (1995) 55 (1977) 2200 108 157 199 251 611 1860 2490 4140 12900
2020-06-11 11:30 3.39 951 30300 (1995) 55 (1977) 2200 108 157 199 251 611 1860 2490 4140 12900
2020-06-11 10:30 3.39 951 30300 (1995) 55 (1977) 2200 108 157 199 251 611 1860 2490 4140 12900
2020-06-11 09:30 3.42 971 30300 (1995) 55 (1977) 2200 108 157 199 251 611 1860 2490 4140 12900
2020-06-11 08:30 3.36 931 30300 (1995) 55 (1977) 2200 108 157 199 251 611 1860 2490 4140 12900
2020-06-11 07:30 3.40 957 30300 (1995) 55 (1977) 2200 108 157 199 251 611 1860 2490 4140 12900
2020-06-11 06:30 3.40 957 30300 (1995) 55 (1977) 2200 108 157 199 251 611 1860 2490 4140 12900
2020-06-11 05:30 3.42 971 30300 (1995) 55 (1977) 2200 108 157 199 251 611 1860 2490 4140 12900
2020-06-11 04:30 3.45 991 30300 (1995) 55 (1977) 2200 108 157 199 251 611 1860 2490 4140 12900
2020-06-11 03:30 3.46 998 30300 (1995) 55 (1977) 2200 108 157 199 251 611 1860 2490 4140 12900
2020-06-11 02:30 3.46 998 30300 (1995) 55 (1977) 2200 108 157 199 251 611 1860 2490 4140 12900
2020-06-11 01:30 3.45 991 30300 (1995) 55 (1977) 2200 108 157 199 251 611 1860 2490 4140 12900
2020-06-11 00:30 3.48 1010 30300 (1995) 55 (1977) 2200 108 157 199 251 611 1860 2490 4140 12900
2020-06-10 23:30 3.48 1010 27000 (1995) 42 (1934) 2190 93 132 182 226 513 1570 2330 4070 16400
2020-06-10 22:30 3.49 1020 27000 (1995) 42 (1934) 2190 93 132 182 226 513 1570 2330 4070 16400
2020-06-10 21:30 3.49 1020 27000 (1995) 42 (1934) 2190 93 132 182 226 513 1570 2330 4070 16400
2020-06-10 20:30 3.50 1030 27000 (1995) 42 (1934) 2190 93 132 182 226 513 1570 2330 4070 16400
2020-06-10 19:30 3.47 1000 27000 (1995) 42 (1934) 2190 93 132 182 226 513 1570 2330 4070 16400
2020-06-10 18:30 3.52 1040 27000 (1995) 42 (1934) 2190 93 132 182 226 513 1570 2330 4070 16400
2020-06-10 17:30 3.50 1030 27000 (1995) 42 (1934) 2190 93 132 182 226 513 1570 2330 4070 16400
2020-06-10 16:30 3.49 1020 27000 (1995) 42 (1934) 2190 93 132 182 226 513 1570 2330 4070 16400
2020-06-10 15:30 3.54 1050 27000 (1995) 42 (1934) 2190 93 132 182 226 513 1570 2330 4070 16400
2020-06-10 14:30 3.51 1030 27000 (1995) 42 (1934) 2190 93 132 182 226 513 1570 2330 4070 16400
2020-06-10 13:30 3.51 1030 27000 (1995) 42 (1934) 2190 93 132 182 226 513 1570 2330 4070 16400
2020-06-10 12:30 3.52 1040 27000 (1995) 42 (1934) 2190 93 132 182 226 513 1570 2330 4070 16400
2020-06-10 11:30 3.52 1040 27000 (1995) 42 (1934) 2190 93 132 182 226 513 1570 2330 4070 16400
2020-06-10 10:30 3.50 1030 27000 (1995) 42 (1934) 2190 93 132 182 226 513 1570 2330 4070 16400
2020-06-10 09:30 3.47 1000 27000 (1995) 42 (1934) 2190 93 132 182 226 513 1570 2330 4070 16400
2020-06-10 08:30 3.52 1040 27000 (1995) 42 (1934) 2190 93 132 182 226 513 1570 2330 4070 16400
2020-06-10 07:30 3.53 1050 27000 (1995) 42 (1934) 2190 93 132 182 226 513 1570 2330 4070 16400
2020-06-10 06:30 3.52 1040 27000 (1995) 42 (1934) 2190 93 132 182 226 513 1570 2330 4070 16400
2020-06-10 05:30 3.55 1060 27000 (1995) 42 (1934) 2190 93 132 182 226 513 1570 2330 4070 16400
2020-06-10 04:30 3.53 1050 27000 (1995) 42 (1934) 2190 93 132 182 226 513 1570 2330 4070 16400
2020-06-10 03:30 3.54 1050 27000 (1995) 42 (1934) 2190 93 132 182 226 513 1570 2330 4070 16400
2020-06-10 02:30 3.51 1030 27000 (1995) 42 (1934) 2190 93 132 182 226 513 1570 2330 4070 16400
2020-06-10 01:30 3.52 1040 27000 (1995) 42 (1934) 2190 93 132 182 226 513 1570 2330 4070 16400
2020-06-10 00:30 3.55 1060 27000 (1995) 42 (1934) 2190 93 132 182 226 513 1570 2330 4070 16400
2020-06-09 23:30 3.55 1060 19700 (1957) 62 (1977) 1750 93 125 196 235 533 1150 2220 5890 9320
2020-06-09 22:30 3.56 1070 19700 (1957) 62 (1977) 1750 93 125 196 235 533 1150 2220 5890 9320
2020-06-09 21:30 3.53 1050 19700 (1957) 62 (1977) 1750 93 125 196 235 533 1150 2220 5890 9320
2020-06-09 20:30 3.57 1070 19700 (1957) 62 (1977) 1750 93 125 196 235 533 1150 2220 5890 9320
2020-06-09 19:30 3.55 1060 19700 (1957) 62 (1977) 1750 93 125 196 235 533 1150 2220 5890 9320
2020-06-09 18:30 3.59 1090 19700 (1957) 62 (1977) 1750 93 125 196 235 533 1150 2220 5890 9320
2020-06-09 17:30 3.58 1080 19700 (1957) 62 (1977) 1750 93 125 196 235 533 1150 2220 5890 9320
2020-06-09 16:30 3.59 1090 19700 (1957) 62 (1977) 1750 93 125 196 235 533 1150 2220 5890 9320
2020-06-09 15:30 3.57 1070 19700 (1957) 62 (1977) 1750 93 125 196 235 533 1150 2220 5890 9320
2020-06-09 14:30 3.62 1110 19700 (1957) 62 (1977) 1750 93 125 196 235 533 1150 2220 5890 9320
2020-06-09 13:30 3.60 1100 19700 (1957) 62 (1977) 1750 93 125 196 235 533 1150 2220 5890 9320
2020-06-09 12:30 3.61 1100 19700 (1957) 62 (1977) 1750 93 125 196 235 533 1150 2220 5890 9320
2020-06-09 11:30 3.61 1100 19700 (1957) 62 (1977) 1750 93 125 196 235 533 1150 2220 5890 9320
2020-06-09 10:30 3.61 1100 19700 (1957) 62 (1977) 1750 93 125 196 235 533 1150 2220 5890 9320
2020-06-09 09:30 3.63 1120 19700 (1957) 62 (1977) 1750 93 125 196 235 533 1150 2220 5890 9320
2020-06-09 08:30 3.64 1120 19700 (1957) 62 (1977) 1750 93 125 196 235 533 1150 2220 5890 9320
2020-06-09 07:30 3.64 1120 19700 (1957) 62 (1977) 1750 93 125 196 235 533 1150 2220 5890 9320
2020-06-09 06:30 3.62 1110 19700 (1957) 62 (1977) 1750 93 125 196 235 533 1150 2220 5890 9320
2020-06-09 05:30 3.62 1110 19700 (1957) 62 (1977) 1750 93 125 196 235 533 1150 2220 5890 9320
2020-06-09 04:30 3.65 1130 19700 (1957) 62 (1977) 1750 93 125 196 235 533 1150 2220 5890 9320
2020-06-09 03:30 3.65 1130 19700 (1957) 62 (1977) 1750 93 125 196 235 533 1150 2220 5890 9320
2020-06-09 02:30 3.65 1130 19700 (1957) 62 (1977) 1750 93 125 196 235 533 1150 2220 5890 9320
2020-06-09 01:30 3.68 1150 19700 (1957) 62 (1977) 1750 93 125 196 235 533 1150 2220 5890 9320
2020-06-09 00:30 3.66 1140 19700 (1957) 62 (1977) 1750 93 125 196 235 533 1150 2220 5890 9320
2020-06-08 23:30 3.64 1120 23200 (1974) 62 (1934) 1380 93 131 202 241 468 1010 1300 3730 6790
2020-06-08 22:30 3.64 1120 23200 (1974) 62 (1934) 1380 93 131 202 241 468 1010 1300 3730 6790
2020-06-08 21:30 3.70 1170 23200 (1974) 62 (1934) 1380 93 131 202 241 468 1010 1300 3730 6790
2020-06-08 20:30 3.71 1170 23200 (1974) 62 (1934) 1380 93 131 202 241 468 1010 1300 3730 6790
2020-06-08 19:30 3.67 1150 23200 (1974) 62 (1934) 1380 93 131 202 241 468 1010 1300 3730 6790
2020-06-08 18:30 3.71 1170 23200 (1974) 62 (1934) 1380 93 131 202 241 468 1010 1300 3730 6790
2020-06-08 17:30 3.73 1190 23200 (1974) 62 (1934) 1380 93 131 202 241 468 1010 1300 3730 6790
2020-06-08 16:30 3.74 1200 23200 (1974) 62 (1934) 1380 93 131 202 241 468 1010 1300 3730 6790
2020-06-08 15:30 3.75 1200 23200 (1974) 62 (1934) 1380 93 131 202 241 468 1010 1300 3730 6790
2020-06-08 14:30 3.78 1220 23200 (1974) 62 (1934) 1380 93 131 202 241 468 1010 1300 3730 6790
2020-06-08 13:30 3.76 1210 23200 (1974) 62 (1934) 1380 93 131 202 241 468 1010 1300 3730 6790
2020-06-08 12:30 3.75 1200 23200 (1974) 62 (1934) 1380 93 131 202 241 468 1010 1300 3730 6790
2020-06-08 11:30 3.78 1220 23200 (1974) 62 (1934) 1380 93 131 202 241 468 1010 1300 3730 6790
2020-06-08 10:30 3.79 1230 23200 (1974) 62 (1934) 1380 93 131 202 241 468 1010 1300 3730 6790
2020-06-08 09:30 3.80 1230 23200 (1974) 62 (1934) 1380 93 131 202 241 468 1010 1300 3730 6790
2020-06-08 08:30 3.79 1230 23200 (1974) 62 (1934) 1380 93 131 202 241 468 1010 1300 3730 6790
2020-06-08 07:30 3.84 1260 23200 (1974) 62 (1934) 1380 93 131 202 241 468 1010 1300 3730 6790
2020-06-08 06:30 3.80 1230 23200 (1974) 62 (1934) 1380 93 131 202 241 468 1010 1300 3730 6790
2020-06-08 05:30 3.78 1220 23200 (1974) 62 (1934) 1380 93 131 202 241 468 1010 1300 3730 6790
2020-06-08 04:30 3.80 1230 23200 (1974) 62 (1934) 1380 93 131 202 241 468 1010 1300 3730 6790
2020-06-08 03:30 3.80 1230 23200 (1974) 62 (1934) 1380 93 131 202 241 468 1010 1300 3730 6790
2020-06-08 02:30 3.84 1260 23200 (1974) 62 (1934) 1380 93 131 202 241 468 1010 1300 3730 6790
2020-06-08 01:30 3.85 1270 23200 (1974) 62 (1934) 1380 93 131 202 241 468 1010 1300 3730 6790
2020-06-08 00:30 3.87 1290 23200 (1974) 62 (1934) 1380 93 131 202 241 468 1010 1300 3730 6790
2020-06-07 23:30 3.89 1300 15900 (1974) 65 (1934) 1430 96 130 218 243 515 1090 1190 2640 7600
2020-06-07 22:30 3.90 1310 15900 (1974) 65 (1934) 1430 96 130 218 243 515 1090 1190 2640 7600
2020-06-07 21:30 3.90 1310 15900 (1974) 65 (1934) 1430 96 130 218 243 515 1090 1190 2640 7600
2020-06-07 20:30 3.93 1330 15900 (1974) 65 (1934) 1430 96 130 218 243 515 1090 1190 2640 7600
2020-06-07 19:30 3.91 1320 15900 (1974) 65 (1934) 1430 96 130 218 243 515 1090 1190 2640 7600
2020-06-07 18:30 3.93 1330 15900 (1974) 65 (1934) 1430 96 130 218 243 515 1090 1190 2640 7600
2020-06-07 17:30 3.95 1350 15900 (1974) 65 (1934) 1430 96 130 218 243 515 1090 1190 2640 7600
2020-06-07 16:30 3.98 1370 15900 (1974) 65 (1934) 1430 96 130 218 243 515 1090 1190 2640 7600
2020-06-07 15:30 3.99 1380 15900 (1974) 65 (1934) 1430 96 130 218 243 515 1090 1190 2640 7600
2020-06-07 14:30 4.01 1390 15900 (1974) 65 (1934) 1430 96 130 218 243 515 1090 1190 2640 7600
2020-06-07 13:30 4.03 1410 15900 (1974) 65 (1934) 1430 96 130 218 243 515 1090 1190 2640 7600
2020-06-07 12:30 4.04 1420 15900 (1974) 65 (1934) 1430 96 130 218 243 515 1090 1190 2640 7600
2020-06-07 11:30 4.05 1420 15900 (1974) 65 (1934) 1430 96 130 218 243 515 1090 1190 2640 7600
2020-06-07 10:30 4.07 1440 15900 (1974) 65 (1934) 1430 96 130 218 243 515 1090 1190 2640 7600
2020-06-07 09:30 4.08 1450 15900 (1974) 65 (1934) 1430 96 130 218 243 515 1090 1190 2640 7600
2020-06-07 08:30 4.10 1460 15900 (1974) 65 (1934) 1430 96 130 218 243 515 1090 1190 2640 7600
2020-06-07 07:30 4.13 1480 15900 (1974) 65 (1934) 1430 96 130 218 243 515 1090 1190 2640 7600
2020-06-07 06:30 4.17 1510 15900 (1974) 65 (1934) 1430 96 130 218 243 515 1090 1190 2640 7600
2020-06-07 05:30 4.16 1510 15900 (1974) 65 (1934) 1430 96 130 218 243 515 1090 1190 2640 7600
2020-06-07 04:30 4.17 1510 15900 (1974) 65 (1934) 1430 96 130 218 243 515 1090 1190 2640 7600
2020-06-07 03:30 4.19 1530 15900 (1974) 65 (1934) 1430 96 130 218 243 515 1090 1190 2640 7600
2020-06-07 02:30 4.24 1570 15900 (1974) 65 (1934) 1430 96 130 218 243 515 1090 1190 2640 7600
2020-06-07 01:30 4.25 1580 15900 (1974) 65 (1934) 1430 96 130 218 243 515 1090 1190 2640 7600
2020-06-07 00:30 4.25 1580 15900 (1974) 65 (1934) 1430 96 130 218 243 515 1090 1190 2640 7600
2020-06-06 23:30 4.31 1620 17500 (2014) 75 (1936) 1290 100 135 229 241 551 1200 1460 3090 5080
2020-06-06 22:30 4.34 1640 17500 (2014) 75 (1936) 1290 100 135 229 241 551 1200 1460 3090 5080
2020-06-06 21:30 4.35 1650 17500 (2014) 75 (1936) 1290 100 135 229 241 551 1200 1460 3090 5080
2020-06-06 20:30 4.42 1700 17500 (2014) 75 (1936) 1290 100 135 229 241 551 1200 1460 3090 5080
2020-06-06 19:30 4.42 1700 17500 (2014) 75 (1936) 1290 100 135 229 241 551 1200 1460 3090 5080
2020-06-06 18:30 4.46 1730 17500 (2014) 75 (1936) 1290 100 135 229 241 551 1200 1460 3090 5080
2020-06-06 17:30 4.50 1760 17500 (2014) 75 (1936) 1290 100 135 229 241 551 1200 1460 3090 5080
2020-06-06 16:30 4.57 1820 17500 (2014) 75 (1936) 1290 100 135 229 241 551 1200 1460 3090 5080
2020-06-06 15:30 4.61 1860 17500 (2014) 75 (1936) 1290 100 135 229 241 551 1200 1460 3090 5080
2020-06-06 14:30 4.66 1900 17500 (2014) 75 (1936) 1290 100 135 229 241 551 1200 1460 3090 5080
2020-06-06 13:30 4.67 1910 17500 (2014) 75 (1936) 1290 100 135 229 241 551 1200 1460 3090 5080
2020-06-06 12:30 4.78 2000 17500 (2014) 75 (1936) 1290 100 135 229 241 551 1200 1460 3090 5080
2020-06-06 11:30 4.78 2000 17500 (2014) 75 (1936) 1290 100 135 229 241 551 1200 1460 3090 5080
2020-06-06 10:30 4.91 2100 17500 (2014) 75 (1936) 1290 100 135 229 241 551 1200 1460 3090 5080
2020-06-06 09:30 4.99 2170 17500 (2014) 75 (1936) 1290 100 135 229 241 551 1200 1460 3090 5080
2020-06-06 08:30 5.04 2210 17500 (2014) 75 (1936) 1290 100 135 229 241 551 1200 1460 3090 5080
2020-06-06 07:30 5.11 2270 17500 (2014) 75 (1936) 1290 100 135 229 241 551 1200 1460 3090 5080
2020-06-06 06:30 5.21 2360 17500 (2014) 75 (1936) 1290 100 135 229 241 551 1200 1460 3090 5080
2020-06-06 05:30 5.30 2430 17500 (2014) 75 (1936) 1290 100 135 229 241 551 1200 1460 3090 5080
2020-06-06 04:30 5.40 2520 17500 (2014) 75 (1936) 1290 100 135 229 241 551 1200 1460 3090 5080
2020-06-06 03:30 5.45 2570 17500 (2014) 75 (1936) 1290 100 135 229 241 551 1200 1460 3090 5080
2020-06-06 02:30 5.57 2680 17500 (2014) 75 (1936) 1290 100 135 229 241 551 1200 1460 3090 5080
2020-06-06 01:30 5.71 2800 17500 (2014) 75 (1936) 1290 100 135 229 241 551 1200 1460 3090 5080
2020-06-06 00:30 5.74 2830 17500 (2014) 75 (1936) 1290 100 135 229 241 551 1200 1460 3090 5080
2020-06-05 23:30 5.92 2990 9750 (1943) 71 (1936) 1210 108 135 227 264 595 1160 1440 3100 5450
2020-06-05 22:30 6.00 3060 9750 (1943) 71 (1936) 1210 108 135 227 264 595 1160 1440 3100 5450
2020-06-05 21:30 6.10 3150 9750 (1943) 71 (1936) 1210 108 135 227 264 595 1160 1440 3100 5450
2020-06-05 20:30 6.17 3220 9750 (1943) 71 (1936) 1210 108 135 227 264 595 1160 1440 3100 5450
2020-06-05 19:30 6.39 3420 9750 (1943) 71 (1936) 1210 108 135 227 264 595 1160 1440 3100 5450
2020-06-05 18:30 6.41 3440 9750 (1943) 71 (1936) 1210 108 135 227 264 595 1160 1440 3100 5450
2020-06-05 17:30 6.58 3600 9750 (1943) 71 (1936) 1210 108 135 227 264 595 1160 1440 3100 5450
2020-06-05 16:30 6.70 3710 9750 (1943) 71 (1936) 1210 108 135 227 264 595 1160 1440 3100 5450
2020-06-05 15:30 6.84 3840 9750 (1943) 71 (1936) 1210 108 135 227 264 595 1160 1440 3100 5450
2020-06-05 14:30 6.99 3990 9750 (1943) 71 (1936) 1210 108 135 227 264 595 1160 1440 3100 5450
2020-06-05 13:30 7.11 4110 9750 (1943) 71 (1936) 1210 108 135 227 264 595 1160 1440 3100 5450
2020-06-05 12:30 7.25 4250 9750 (1943) 71 (1936) 1210 108 135 227 264 595 1160 1440 3100 5450
2020-06-05 11:30 7.38 4370 9750 (1943) 71 (1936) 1210 108 135 227 264 595 1160 1440 3100 5450
2020-06-05 10:30 7.49 4480 9750 (1943) 71 (1936) 1210 108 135 227 264 595 1160 1440 3100 5450
2020-06-05 09:30 7.69 4680 9750 (1943) 71 (1936) 1210 108 135 227 264 595 1160 1440 3100 5450
2020-06-05 08:30 7.78 4770 9750 (1943) 71 (1936) 1210 108 135 227 264 595 1160 1440 3100 5450
2020-06-05 07:30 8.08 5070 9750 (1943) 71 (1936) 1210 108 135 227 264 595 1160 1440 3100 5450
2020-06-05 06:30 8.31 5300 9750 (1943) 71 (1936) 1210 108 135 227 264 595 1160 1440 3100 5450
2020-06-05 05:30 8.47 5470 9750 (1943) 71 (1936) 1210 108 135 227 264 595 1160 1440 3100 5450
2020-06-05 04:30 8.62 5620 9750 (1943) 71 (1936) 1210 108 135 227 264 595 1160 1440 3100 5450
2020-06-05 03:30 8.87 5870 9750 (1943) 71 (1936) 1210 108 135 227 264 595 1160 1440 3100 5450
2020-06-05 02:30 8.92 5920 9750 (1943) 71 (1936) 1210 108 135 227 264 595 1160 1440 3100 5450
2020-06-05 01:30 9.10 6110 9750 (1943) 71 (1936) 1210 108 135 227 264 595 1160 1440 3100 5450
2020-06-05 00:30 9.21 6220 9750 (1943) 71 (1936) 1210 108 135 227 264 595 1160 1440 3100 5450
2020-06-04 23:30 9.09 6100 11500 (2007) 60 (1934) 1230 104 166 239 248 484 1120 1390 3820 6050
2020-06-04 22:30 8.94 5940 11500 (2007) 60 (1934) 1230 104 166 239 248 484 1120 1390 3820 6050
2020-06-04 21:30 8.79 5800 11500 (2007) 60 (1934) 1230 104 166 239 248 484 1120 1390 3820 6050
2020-06-04 20:30 8.32 5310 11500 (2007) 60 (1934) 1230 104 166 239 248 484 1120 1390 3820 6050
2020-06-04 19:30 7.62 4610 11500 (2007) 60 (1934) 1230 104 166 239 248 484 1120 1390 3820 6050
2020-06-04 18:30 6.66 3680 11500 (2007) 60 (1934) 1230 104 166 239 248 484 1120 1390 3820 6050
2020-06-04 17:30 5.59 2690 11500 (2007) 60 (1934) 1230 104 166 239 248 484 1120 1390 3820 6050
2020-06-04 16:30 4.69 1920 11500 (2007) 60 (1934) 1230 104 166 239 248 484 1120 1390 3820 6050
2020-06-04 15:30 4.28 1590 11500 (2007) 60 (1934) 1230 104 166 239 248 484 1120 1390 3820 6050
2020-06-04 14:30 4.20 1540 11500 (2007) 60 (1934) 1230 104 166 239 248 484 1120 1390 3820 6050
2020-06-04 13:30 4.20 1540 11500 (2007) 60 (1934) 1230 104 166 239 248 484 1120 1390 3820 6050
2020-06-04 12:30 4.18 1520 11500 (2007) 60 (1934) 1230 104 166 239 248 484 1120 1390 3820 6050
2020-06-04 11:30 4.14 1490 11500 (2007) 60 (1934) 1230 104 166 239 248 484 1120 1390 3820 6050
2020-06-04 10:30 4.16 1510 11500 (2007) 60 (1934) 1230 104 166 239 248 484 1120 1390 3820 6050
2020-06-04 09:30 4.15 1500 11500 (2007) 60 (1934) 1230 104 166 239 248 484 1120 1390 3820 6050
2020-06-04 08:30 4.14 1490 11500 (2007) 60 (1934) 1230 104 166 239 248 484 1120 1390 3820 6050
2020-06-04 07:30 4.13 1480 11500 (2007) 60 (1934) 1230 104 166 239 248 484 1120 1390 3820 6050
2020-06-04 06:30 4.13 1480 11500 (2007) 60 (1934) 1230 104 166 239 248 484 1120 1390 3820 6050
2020-06-04 05:30 4.14 1490 11500 (2007) 60 (1934) 1230 104 166 239 248 484 1120 1390 3820 6050
2020-06-04 04:30 4.10 1460 11500 (2007) 60 (1934) 1230 104 166 239 248 484 1120 1390 3820 6050
2020-06-04 03:30 4.12 1480 11500 (2007) 60 (1934) 1230 104 166 239 248 484 1120 1390 3820 6050
2020-06-04 02:30 4.09 1450 11500 (2007) 60 (1934) 1230 104 166 239 248 484 1120 1390 3820 6050
2020-06-04 01:30 4.09 1450 11500 (2007) 60 (1934) 1230 104 166 239 248 484 1120 1390 3820 6050
2020-06-04 00:30 4.09 1450 11500 (2007) 60 (1934) 1230 104 166 239 248 484 1120 1390 3820 6050
2020-06-03 23:30 4.13 1480 15600 (2007) 65 (1940) 1370 121 147 226 265 513 1290 1840 3010 6780
2020-06-03 22:30 4.17 1510 15600 (2007) 65 (1940) 1370 121 147 226 265 513 1290 1840 3010 6780
2020-06-03 21:30 4.12 1480 15600 (2007) 65 (1940) 1370 121 147 226 265 513 1290 1840 3010 6780
2020-06-03 20:30 4.17 1510 15600 (2007) 65 (1940) 1370 121 147 226 265 513 1290 1840 3010 6780
2020-06-03 19:30 4.16 1510 15600 (2007) 65 (1940) 1370 121 147 226 265 513 1290 1840 3010 6780
2020-06-03 18:30 4.18 1520 15600 (2007) 65 (1940) 1370 121 147 226 265 513 1290 1840 3010 6780
2020-06-03 17:30 4.17 1510 15600 (2007) 65 (1940) 1370 121 147 226 265 513 1290 1840 3010 6780
2020-06-03 16:30 4.19 1530 15600 (2007) 65 (1940) 1370 121 147 226 265 513 1290 1840 3010 6780
2020-06-03 15:30 4.16 1510 15600 (2007) 65 (1940) 1370 121 147 226 265 513 1290 1840 3010 6780
2020-06-03 14:30 4.21 1550 15600 (2007) 65 (1940) 1370 121 147 226 265 513 1290 1840 3010 6780
2020-06-03 13:30 4.24 1570 15600 (2007) 65 (1940) 1370 121 147 226 265 513 1290 1840 3010 6780
2020-06-03 12:30 4.21 1550 15600 (2007) 65 (1940) 1370 121 147 226 265 513 1290 1840 3010 6780
2020-06-03 11:30 4.22 1550 15600 (2007) 65 (1940) 1370 121 147 226 265 513 1290 1840 3010 6780
2020-06-03 10:30 4.28 1590 15600 (2007) 65 (1940) 1370 121 147 226 265 513 1290 1840 3010 6780
2020-06-03 09:30 4.21 1550 15600 (2007) 65 (1940) 1370 121 147 226 265 513 1290 1840 3010 6780
2020-06-03 08:30 4.26 1580 15600 (2007) 65 (1940) 1370 121 147 226 265 513 1290 1840 3010 6780
2020-06-03 07:30 4.24 1570 15600 (2007) 65 (1940) 1370 121 147 226 265 513 1290 1840 3010 6780
2020-06-03 06:30 4.26 1580 15600 (2007) 65 (1940) 1370 121 147 226 265 513 1290 1840 3010 6780
2020-06-03 05:30 4.31 1620 15600 (2007) 65 (1940) 1370 121 147 226 265 513 1290 1840 3010 6780
2020-06-03 04:30 4.31 1620 15600 (2007) 65 (1940) 1370 121 147 226 265 513 1290 1840 3010 6780
2020-06-03 03:30 4.34 1640 15600 (2007) 65 (1940) 1370 121 147 226 265 513 1290 1840 3010 6780
2020-06-03 02:30 4.33 1630 15600 (2007) 65 (1940) 1370 121 147 226 265 513 1290 1840 3010 6780
2020-06-03 01:30 4.31 1620 15600 (2007) 65 (1940) 1370 121 147 226 265 513 1290 1840 3010 6780
2020-06-03 00:30 4.35 1650 15600 (2007) 65 (1940) 1370 121 147 226 265 513 1290 1840 3010 6780
2020-06-02 23:30 4.35 1650 15000 (2013) 82 (1934) 1520 125 158 226 281 550 1380 1710 3510 6470
2020-06-02 22:30 4.32 1620 15000 (2013) 82 (1934) 1520 125 158 226 281 550 1380 1710 3510 6470
2020-06-02 21:30 4.39 1680 15000 (2013) 82 (1934) 1520 125 158 226 281 550 1380 1710 3510 6470
2020-06-02 20:30 4.36 1650 15000 (2013) 82 (1934) 1520 125 158 226 281 550 1380 1710 3510 6470
2020-06-02 19:30 4.37 1660 15000 (2013) 82 (1934) 1520 125 158 226 281 550 1380 1710 3510 6470
2020-06-02 18:30 4.39 1680 15000 (2013) 82 (1934) 1520 125 158 226 281 550 1380 1710 3510 6470
2020-06-02 17:30 4.41 1690 15000 (2013) 82 (1934) 1520 125 158 226 281 550 1380 1710 3510 6470
2020-06-02 16:30 4.42 1700 15000 (2013) 82 (1934) 1520 125 158 226 281 550 1380 1710 3510 6470
2020-06-02 15:30 4.45 1720 15000 (2013) 82 (1934) 1520 125 158 226 281 550 1380 1710 3510 6470
2020-06-02 14:30 4.45 1720 15000 (2013) 82 (1934) 1520 125 158 226 281 550 1380 1710 3510 6470
2020-06-02 13:30 4.42 1700 15000 (2013) 82 (1934) 1520 125 158 226 281 550 1380 1710 3510 6470
2020-06-02 12:30 4.47 1740 15000 (2013) 82 (1934) 1520 125 158 226 281 550 1380 1710 3510 6470
2020-06-02 11:30 4.48 1750 15000 (2013) 82 (1934) 1520 125 158 226 281 550 1380 1710 3510 6470
2020-06-02 10:30 4.48 1750 15000 (2013) 82 (1934) 1520 125 158 226 281 550 1380 1710 3510 6470
2020-06-02 09:30 4.47 1740 15000 (2013) 82 (1934) 1520 125 158 226 281 550 1380 1710 3510 6470
2020-06-02 08:30 4.51 1770 15000 (2013) 82 (1934) 1520 125 158 226 281 550 1380 1710 3510 6470
2020-06-02 07:30 4.49 1760 15000 (2013) 82 (1934) 1520 125 158 226 281 550 1380 1710 3510 6470
2020-06-02 06:30 4.52 1780 15000 (2013) 82 (1934) 1520 125 158 226 281 550 1380 1710 3510 6470
2020-06-02 05:30 4.50 1760 15000 (2013) 82 (1934) 1520 125 158 226 281 550 1380 1710 3510 6470
2020-06-02 04:30 4.55 1810 15000 (2013) 82 (1934) 1520 125 158 226 281 550 1380 1710 3510 6470
2020-06-02 03:30 4.57 1820 15000 (2013) 82 (1934) 1520 125 158 226 281 550 1380 1710 3510 6470
2020-06-02 02:30 4.60 1850 15000 (2013) 82 (1934) 1520 125 158 226 281 550 1380 1710 3510 6470
2020-06-02 01:30 4.58 1830 15000 (2013) 82 (1934) 1520 125 158 226 281 550 1380 1710 3510 6470
2020-06-02 00:30 4.62 1860 15000 (2013) 82 (1934) 1520 125 158 226 281 550 1380 1710 3510 6470
2020-06-01 23:30 4.62 1860 16900 (2013) 65 (1934) 1370 130 164 239 276 572 1200 1480 3630 5660
2020-06-01 22:30 4.59 1840 16900 (2013) 65 (1934) 1370 130 164 239 276 572 1200 1480 3630 5660
2020-06-01 21:30 4.64 1880 16900 (2013) 65 (1934) 1370 130 164 239 276 572 1200 1480 3630 5660
2020-06-01 20:30 4.66 1900 16900 (2013) 65 (1934) 1370 130 164 239 276 572 1200 1480 3630 5660
2020-06-01 19:30 4.66 1900 16900 (2013) 65 (1934) 1370 130 164 239 276 572 1200 1480 3630 5660
2020-06-01 18:30 4.68 1920 16900 (2013) 65 (1934) 1370 130 164 239 276 572 1200 1480 3630 5660
2020-06-01 17:30 4.67 1910 16900 (2013) 65 (1934) 1370 130 164 239 276 572 1200 1480 3630 5660
2020-06-01 16:30 4.69 1920 16900 (2013) 65 (1934) 1370 130 164 239 276 572 1200 1480 3630 5660
2020-06-01 15:30 4.75 1970 16900 (2013) 65 (1934) 1370 130 164 239 276 572 1200 1480 3630 5660
2020-06-01 14:30 4.72 1950 16900 (2013) 65 (1934) 1370 130 164 239 276 572 1200 1480 3630 5660
2020-06-01 13:30 4.76 1980 16900 (2013) 65 (1934) 1370 130 164 239 276 572 1200 1480 3630 5660
2020-06-01 12:30 4.75 1970 16900 (2013) 65 (1934) 1370 130 164 239 276 572 1200 1480 3630 5660
2020-06-01 11:30 4.77 1990 16900 (2013) 65 (1934) 1370 130 164 239 276 572 1200 1480 3630 5660
2020-06-01 10:30 4.78 2000 16900 (2013) 65 (1934) 1370 130 164 239 276 572 1200 1480 3630 5660
2020-06-01 09:30 4.81 2020 16900 (2013) 65 (1934) 1370 130 164 239 276 572 1200 1480 3630 5660
2020-06-01 08:30 4.83 2030 16900 (2013) 65 (1934) 1370 130 164 239 276 572 1200 1480 3630 5660
2020-06-01 07:30 4.86 2060 16900 (2013) 65 (1934) 1370 130 164 239 276 572 1200 1480 3630 5660
2020-06-01 06:30 4.84 2040 16900 (2013) 65 (1934) 1370 130 164 239 276 572 1200 1480 3630 5660
2020-06-01 05:30 4.86 2060 16900 (2013) 65 (1934) 1370 130 164 239 276 572 1200 1480 3630 5660
2020-06-01 04:30 4.91 2100 16900 (2013) 65 (1934) 1370 130 164 239 276 572 1200 1480 3630 5660
2020-06-01 03:30 4.88 2080 16900 (2013) 65 (1934) 1370 130 164 239 276 572 1200 1480 3630 5660
2020-06-01 02:30 4.84 2040 16900 (2013) 65 (1934) 1370 130 164 239 276 572 1200 1480 3630 5660
2020-06-01 01:30 4.94 2130 16900 (2013) 65 (1934) 1370 130 164 239 276 572 1200 1480 3630 5660
2020-06-01 00:30 4.91 2100 16900 (2013) 65 (1934) 1370 130 164 239 276 572 1200 1480 3630 5660
2020-05-31 23:30 4.95 2140 14600 (1938) 65 (1936) 1530 114 151 210 250 468 1170 1590 2730 11400
2020-05-31 22:30 4.95 2140 14600 (1938) 65 (1936) 1530 114 151 210 250 468 1170 1590 2730 11400
2020-05-31 21:30 5.00 2180 14600 (1938) 65 (1936) 1530 114 151 210 250 468 1170 1590 2730 11400
2020-05-31 20:30 5.02 2200 14600 (1938) 65 (1936) 1530 114 151 210 250 468 1170 1590 2730 11400
2020-05-31 19:30 4.96 2140 14600 (1938) 65 (1936) 1530 114 151 210 250 468 1170 1590 2730 11400
2020-05-31 18:30 5.06 2230 14600 (1938) 65 (1936) 1530 114 151 210 250 468 1170 1590 2730 11400
2020-05-31 17:30 5.08 2250 14600 (1938) 65 (1936) 1530 114 151 210 250 468 1170 1590 2730 11400
2020-05-31 16:30 5.09 2260 14600 (1938) 65 (1936) 1530 114 151 210 250 468 1170 1590 2730 11400
2020-05-31 15:30 5.08 2250 14600 (1938) 65 (1936) 1530 114 151 210 250 468 1170 1590 2730 11400
2020-05-31 14:30 5.13 2290 14600 (1938) 65 (1936) 1530 114 151 210 250 468 1170 1590 2730 11400
2020-05-31 13:30 5.15 2310 14600 (1938) 65 (1936) 1530 114 151 210 250 468 1170 1590 2730 11400
2020-05-31 12:30 5.20 2350 14600 (1938) 65 (1936) 1530 114 151 210 250 468 1170 1590 2730 11400
2020-05-31 11:30 5.20 2350 14600 (1938) 65 (1936) 1530 114 151 210 250 468 1170 1590 2730 11400
2020-05-31 10:30 5.21 2360 14600 (1938) 65 (1936) 1530 114 151 210 250 468 1170 1590 2730 11400
2020-05-31 09:30 5.25 2400 14600 (1938) 65 (1936) 1530 114 151 210 250 468 1170 1590 2730 11400
2020-05-31 08:30 5.25 2400 14600 (1938) 65 (1936) 1530 114 151 210 250 468 1170 1590 2730 11400
2020-05-31 07:30 5.28 2420 14600 (1938) 65 (1936) 1530 114 151 210 250 468 1170 1590 2730 11400
2020-05-31 06:30 5.36 2490 14600 (1938) 65 (1936) 1530 114 151 210 250 468 1170 1590 2730 11400
2020-05-31 05:30 5.37 2490 14600 (1938) 65 (1936) 1530 114 151 210 250 468 1170 1590 2730 11400
2020-05-31 04:30 5.39 2510 14600 (1938) 65 (1936) 1530 114 151 210 250 468 1170 1590 2730 11400
2020-05-31 03:30 5.41 2530 14600 (1938) 65 (1936) 1530 114 151 210 250 468 1170 1590 2730 11400
2020-05-31 02:30 5.41 2530 14600 (1938) 65 (1936) 1530 114 151 210 250 468 1170 1590 2730 11400
2020-05-31 01:30 5.43 2550 14600 (1938) 65 (1936) 1530 114 151 210 250 468 1170 1590 2730 11400
2020-05-31 00:30 5.51 2620 14600 (1938) 65 (1936) 1530 114 151 210 250 468 1170 1590 2730 11400
2020-05-30 23:30 5.48 2590 17100 (1924) 74 (1934) 1300 112 135 213 234 503 1210 1530 3250 5630
2020-05-30 22:30 5.58 2690 17100 (1924) 74 (1934) 1300 112 135 213 234 503 1210 1530 3250 5630
2020-05-30 21:30 5.56 2670 17100 (1924) 74 (1934) 1300 112 135 213 234 503 1210 1530 3250 5630
2020-05-30 20:30 5.59 2690 17100 (1924) 74 (1934) 1300 112 135 213 234 503 1210 1530 3250 5630
2020-05-30 19:30 5.61 2710 17100 (1924) 74 (1934) 1300 112 135 213 234 503 1210 1530 3250 5630
2020-05-30 18:30 5.70 2790 17100 (1924) 74 (1934) 1300 112 135 213 234 503 1210 1530 3250 5630
2020-05-30 17:30 5.73 2820 17100 (1924) 74 (1934) 1300 112 135 213 234 503 1210 1530 3250 5630
2020-05-30 16:30 5.77 2860 17100 (1924) 74 (1934) 1300 112 135 213 234 503 1210 1530 3250 5630
2020-05-30 15:30 5.79 2880 17100 (1924) 74 (1934) 1300 112 135 213 234 503 1210 1530 3250 5630
2020-05-30 14:30 5.86 2930 17100 (1924) 74 (1934) 1300 112 135 213 234 503 1210 1530 3250 5630
2020-05-30 13:30 5.85 2920 17100 (1924) 74 (1934) 1300 112 135 213 234 503 1210 1530 3250 5630
2020-05-30 12:30 5.96 3020 17100 (1924) 74 (1934) 1300 112 135 213 234 503 1210 1530 3250 5630
2020-05-30 11:30 5.95 3010 17100 (1924) 74 (1934) 1300 112 135 213 234 503 1210 1530 3250 5630
2020-05-30 10:30 5.98 3040 17100 (1924) 74 (1934) 1300 112 135 213 234 503 1210 1530 3250 5630
2020-05-30 09:30 6.06 3110 17100 (1924) 74 (1934) 1300 112 135 213 234 503 1210 1530 3250 5630
2020-05-30 08:30 6.11 3160 17100 (1924) 74 (1934) 1300 112 135 213 234 503 1210 1530 3250 5630
2020-05-30 07:30 6.14 3190 17100 (1924) 74 (1934) 1300 112 135 213 234 503 1210 1530 3250 5630
2020-05-30 06:30 6.19 3240 17100 (1924) 74 (1934) 1300 112 135 213 234 503 1210 1530 3250 5630
2020-05-30 05:30 6.28 3320 17100 (1924) 74 (1934) 1300 112 135 213 234 503 1210 1530 3250 5630
2020-05-30 04:30 6.30 3340 17100 (1924) 74 (1934) 1300 112 135 213 234 503 1210 1530 3250 5630
2020-05-30 03:30 6.43 3450 17100 (1924) 74 (1934) 1300 112 135 213 234 503 1210 1530 3250 5630
2020-05-30 02:30 6.44 3460 17100 (1924) 74 (1934) 1300 112 135 213 234 503 1210 1530 3250 5630
2020-05-30 01:30 6.55 3570 17100 (1924) 74 (1934) 1300 112 135 213 234 503 1210 1530 3250 5630
2020-05-30 00:30 6.60 3620 17100 (1924) 74 (1934) 1300 112 135 213 234 503 1210 1530 3250 5630
2020-05-29 23:30 6.66 3680 17600 (1924) 86 (1936) 1530 123 150 219 248 521 1410 1830 3820 7320
2020-05-29 22:30 6.78 3790 17600 (1924) 86 (1936) 1530 123 150 219 248 521 1410 1830 3820 7320
2020-05-29 21:30 6.86 3860 17600 (1924) 86 (1936) 1530 123 150 219 248 521 1410 1830 3820 7320
2020-05-29 20:30 6.92 3920 17600 (1924) 86 (1936) 1530 123 150 219 248 521 1410 1830 3820 7320
2020-05-29 19:30 7.09 4090 17600 (1924) 86 (1936) 1530 123 150 219 248 521 1410 1830 3820 7320
2020-05-29 18:30 7.15 4150 17600 (1924) 86 (1936) 1530 123 150 219 248 521 1410 1830 3820 7320
2020-05-29 17:30 7.34 4330 17600 (1924) 86 (1936) 1530 123 150 219 248 521 1410 1830 3820 7320
2020-05-29 16:30 7.48 4470 17600 (1924) 86 (1936) 1530 123 150 219 248 521 1410 1830 3820 7320
2020-05-29 15:30 7.63 4620 17600 (1924) 86 (1936) 1530 123 150 219 248 521 1410 1830 3820 7320
2020-05-29 14:30 7.81 4800 17600 (1924) 86 (1936) 1530 123 150 219 248 521 1410 1830 3820 7320
2020-05-29 13:30 7.99 4980 17600 (1924) 86 (1936) 1530 123 150 219 248 521 1410 1830 3820 7320
2020-05-29 12:30 8.30 5290 17600 (1924) 86 (1936) 1530 123 150 219 248 521 1410 1830 3820 7320
2020-05-29 11:30 8.43 5420 17600 (1924) 86 (1936) 1530 123 150 219 248 521 1410 1830 3820 7320
2020-05-29 10:30 8.67 5670 17600 (1924) 86 (1936) 1530 123 150 219 248 521 1410 1830 3820 7320
2020-05-29 09:30 9.07 6080 17600 (1924) 86 (1936) 1530 123 150 219 248 521 1410 1830 3820 7320
2020-05-29 08:30 9.43 6440 17600 (1924) 86 (1936) 1530 123 150 219 248 521 1410 1830 3820 7320
2020-05-29 07:30 9.74 6770 17600 (1924) 86 (1936) 1530 123 150 219 248 521 1410 1830 3820 7320
2020-05-29 06:30 10.21 7250 17600 (1924) 86 (1936) 1530 123 150 219 248 521 1410 1830 3820 7320
2020-05-29 05:30 10.56 7610 17600 (1924) 86 (1936) 1530 123 150 219 248 521 1410 1830 3820 7320
2020-05-29 04:30 10.95 8030 17600 (1924) 86 (1936) 1530 123 150 219 248 521 1410 1830 3820 7320
2020-05-29 03:30 11.28 8390 17600 (1924) 86 (1936) 1530 123 150 219 248 521 1410 1830 3820 7320
2020-05-29 02:30 11.63 8770 17600 (1924) 86 (1936) 1530 123 150 219 248 521 1410 1830 3820 7320
2020-05-29 01:30 11.80 8960 17600 (1924) 86 (1936) 1530 123 150 219 248 521 1410 1830 3820 7320
2020-05-29 00:30 12.01 9180 17600 (1924) 86 (1936) 1530 123 150 219 248 521 1410 1830 3820 7320
2020-05-28 23:30 12.14 9320 24000 (1990) 71 (1934) 1560 114 159 221 243 522 1360 1700 3370 8990
2020-05-28 22:30 12.27 9470 24000 (1990) 71 (1934) 1560 114 159 221 243 522 1360 1700 3370 8990
2020-05-28 21:30 12.37 9580 24000 (1990) 71 (1934) 1560 114 159 221 243 522 1360 1700 3370 8990
2020-05-28 20:30 12.34 9550 24000 (1990) 71 (1934) 1560 114 159 221 243 522 1360 1700 3370 8990
2020-05-28 19:30 12.51 9740 24000 (1990) 71 (1934) 1560 114 159 221 243 522 1360 1700 3370 8990
2020-05-28 18:30 12.53 9760 24000 (1990) 71 (1934) 1560 114 159 221 243 522 1360 1700 3370 8990
2020-05-28 17:30 12.53 9760 24000 (1990) 71 (1934) 1560 114 159 221 243 522 1360 1700 3370 8990
2020-05-28 16:30 12.63 9880 24000 (1990) 71 (1934) 1560 114 159 221 243 522 1360 1700 3370 8990
2020-05-28 15:30 12.71 9970 24000 (1990) 71 (1934) 1560 114 159 221 243 522 1360 1700 3370 8990
2020-05-28 14:30 12.75 10000 24000 (1990) 71 (1934) 1560 114 159 221 243 522 1360 1700 3370 8990
2020-05-28 13:30 12.81 10100 24000 (1990) 71 (1934) 1560 114 159 221 243 522 1360 1700 3370 8990
2020-05-28 12:30 12.92 10200 24000 (1990) 71 (1934) 1560 114 159 221 243 522 1360 1700 3370 8990
2020-05-28 11:30 12.88 10200 24000 (1990) 71 (1934) 1560 114 159 221 243 522 1360 1700 3370 8990
2020-05-28 10:30 13.24 10600 24000 (1990) 71 (1934) 1560 114 159 221 243 522 1360 1700 3370 8990
2020-05-28 09:30 13.24 10600 24000 (1990) 71 (1934) 1560 114 159 221 243 522 1360 1700 3370 8990
2020-05-28 08:30 13.47 10800 24000 (1990) 71 (1934) 1560 114 159 221 243 522 1360 1700 3370 8990
2020-05-28 07:30 13.80 11200 24000 (1990) 71 (1934) 1560 114 159 221 243 522 1360 1700 3370 8990
2020-05-28 06:30 13.93 11400 24000 (1990) 71 (1934) 1560 114 159 221 243 522 1360 1700 3370 8990
2020-05-28 05:30 14.19 11700 24000 (1990) 71 (1934) 1560 114 159 221 243 522 1360 1700 3370 8990
2020-05-28 04:30 14.29 11800 24000 (1990) 71 (1934) 1560 114 159 221 243 522 1360 1700 3370 8990
2020-05-28 03:30 14.47 12000 24000 (1990) 71 (1934) 1560 114 159 221 243 522 1360 1700 3370 8990
2020-05-28 02:30 14.56 12100 24000 (1990) 71 (1934) 1560 114 159 221 243 522 1360 1700 3370 8990
2020-05-28 01:30 14.49 12000 24000 (1990) 71 (1934) 1560 114 159 221 243 522 1360 1700 3370 8990
2020-05-28 00:30 14.61 12200 24000 (1990) 71 (1934) 1560 114 159 221 243 522 1360 1700 3370 8990
2020-05-27 23:30 14.76 12400 22100 (1990) 82 (1934) 1810 118 171 224 252 594 1340 1580 5200 12100
2020-05-27 22:30 14.76 12400 22100 (1990) 82 (1934) 1810 118 171 224 252 594 1340 1580 5200 12100
2020-05-27 21:30 14.65 12200 22100 (1990) 82 (1934) 1810 118 171 224 252 594 1340 1580 5200 12100
2020-05-27 20:30 14.52 12100 22100 (1990) 82 (1934) 1810 118 171 224 252 594 1340 1580 5200 12100
2020-05-27 19:30 14.71 12300 22100 (1990) 82 (1934) 1810 118 171 224 252 594 1340 1580 5200 12100
2020-05-27 18:30 14.84 12500 22100 (1990) 82 (1934) 1810 118 171 224 252 594 1340 1580 5200 12100
2020-05-27 17:30 14.82 12400 22100 (1990) 82 (1934) 1810 118 171 224 252 594 1340 1580 5200 12100
2020-05-27 15:30 15.04 12700 22100 (1990) 82 (1934) 1810 118 171 224 252 594 1340 1580 5200 12100
2020-05-27 14:30 15.18 12900 22100 (1990) 82 (1934) 1810 118 171 224 252 594 1340 1580 5200 12100
2020-05-27 13:30 15.26 13000 22100 (1990) 82 (1934) 1810 118 171 224 252 594 1340 1580 5200 12100
2020-05-27 12:30 15.42 13200 22100 (1990) 82 (1934) 1810 118 171 224 252 594 1340 1580 5200 12100
2020-05-27 11:30 15.52 13300 22100 (1990) 82 (1934) 1810 118 171 224 252 594 1340 1580 5200 12100
2020-05-27 10:30 15.58 13400 22100 (1990) 82 (1934) 1810 118 171 224 252 594 1340 1580 5200 12100
2020-05-27 09:30 15.60 13400 22100 (1990) 82 (1934) 1810 118 171 224 252 594 1340 1580 5200 12100
2020-05-27 08:30 15.60 13400 22100 (1990) 82 (1934) 1810 118 171 224 252 594 1340 1580 5200 12100
2020-05-27 07:30 15.82 13700 22100 (1990) 82 (1934) 1810 118 171 224 252 594 1340 1580 5200 12100
2020-05-27 06:30 15.97 13800 22100 (1990) 82 (1934) 1810 118 171 224 252 594 1340 1580 5200 12100
2020-05-27 05:30 16.11 14000 22100 (1990) 82 (1934) 1810 118 171 224 252 594 1340 1580 5200 12100
2020-05-27 04:30 16.07 14000 22100 (1990) 82 (1934) 1810 118 171 224 252 594 1340 1580 5200 12100
2020-05-27 03:30 16.25 14200 22100 (1990) 82 (1934) 1810 118 171 224 252 594 1340 1580 5200 12100
2020-05-27 02:30 16.15 14100 22100 (1990) 82 (1934) 1810 118 171 224 252 594 1340 1580 5200 12100
2020-05-27 01:30 16.50 14500 22100 (1990) 82 (1934) 1810 118 171 224 252 594 1340 1580 5200 12100
2020-05-27 00:30 16.64 14700 22100 (1990) 82 (1934) 1810 118 171 224 252 594 1340 1580 5200 12100
2020-05-26 23:30 16.81 14900 17600 (1957) 88 (1932) 1710 121 158 241 272 508 1350 1720 5590 9070
2020-05-26 22:30 16.77 14800 17600 (1957) 88 (1932) 1710 121 158 241 272 508 1350 1720 5590 9070
2020-05-26 21:30 16.83 14900 17600 (1957) 88 (1932) 1710 121 158 241 272 508 1350 1720 5590 9070
2020-05-26 20:30 16.84 14900 17600 (1957) 88 (1932) 1710 121 158 241 272 508 1350 1720 5590 9070
2020-05-26 19:30 16.82 14900 17600 (1957) 88 (1932) 1710 121 158 241 272 508 1350 1720 5590 9070
2020-05-26 18:30 16.96 15100 17600 (1957) 88 (1932) 1710 121 158 241 272 508 1350 1720 5590 9070
2020-05-26 17:30 16.86 15000 17600 (1957) 88 (1932) 1710 121 158 241 272 508 1350 1720 5590 9070
2020-05-26 16:30 16.93 15000 17600 (1957) 88 (1932) 1710 121 158 241 272 508 1350 1720 5590 9070
2020-05-26 15:30 16.80 14900 17600 (1957) 88 (1932) 1710 121 158 241 272 508 1350 1720 5590 9070
2020-05-26 14:30 16.70 14800 17600 (1957) 88 (1932) 1710 121 158 241 272 508 1350 1720 5590 9070
2020-05-26 13:30 16.59 14600 17600 (1957) 88 (1932) 1710 121 158 241 272 508 1350 1720 5590 9070
2020-05-26 12:30 16.48 14500 17600 (1957) 88 (1932) 1710 121 158 241 272 508 1350 1720 5590 9070
2020-05-26 11:30 15.97 13800 17600 (1957) 88 (1932) 1710 121 158 241 272 508 1350 1720 5590 9070
2020-05-26 10:30 15.84 13700 17600 (1957) 88 (1932) 1710 121 158 241 272 508 1350 1720 5590 9070
2020-05-26 09:30 15.45 13200 17600 (1957) 88 (1932) 1710 121 158 241 272 508 1350 1720 5590 9070
2020-05-26 08:30 14.87 12500 17600 (1957) 88 (1932) 1710 121 158 241 272 508 1350 1720 5590 9070
2020-05-26 07:30 14.21 11700 17600 (1957) 88 (1932) 1710 121 158 241 272 508 1350 1720 5590 9070
2020-05-26 06:30 13.47 10800 17600 (1957) 88 (1932) 1710 121 158 241 272 508 1350 1720 5590 9070
2020-05-26 05:30 12.31 9520 17600 (1957) 88 (1932) 1710 121 158 241 272 508 1350 1720 5590 9070
2020-05-26 04:30 10.88 7950 17600 (1957) 88 (1932) 1710 121 158 241 272 508 1350 1720 5590 9070
2020-05-26 03:30 9.28 6290 17600 (1957) 88 (1932) 1710 121 158 241 272 508 1350 1720 5590 9070
2020-05-26 02:30 8.03 5020 17600 (1957) 88 (1932) 1710 121 158 241 272 508 1350 1720 5590 9070
2020-05-26 01:30 7.03 4030 17600 (1957) 88 (1932) 1710 121 158 241 272 508 1350 1720 5590 9070
2020-05-26 00:30 6.28 3320 17600 (1957) 88 (1932) 1710 121 158 241 272 508 1350 1720 5590 9070
2020-05-25 23:30 5.84 2910 25200 (2019) 81 (1954) 2010 113 166 241 305 504 1920 2550 5290 11300
2020-05-25 22:30 5.73 2820 25200 (2019) 81 (1954) 2010 113 166 241 305 504 1920 2550 5290 11300
2020-05-25 21:30 5.65 2750 25200 (2019) 81 (1954) 2010 113 166 241 305 504 1920 2550 5290 11300
2020-05-25 20:30 5.70 2790 25200 (2019) 81 (1954) 2010 113 166 241 305 504 1920 2550 5290 11300
2020-05-25 19:30 5.76 2850 25200 (2019) 81 (1954) 2010 113 166 241 305 504 1920 2550 5290 11300
2020-05-25 18:30 5.83 2900 25200 (2019) 81 (1954) 2010 113 166 241 305 504 1920 2550 5290 11300
2020-05-25 17:30 5.97 3030 25200 (2019) 81 (1954) 2010 113 166 241 305 504 1920 2550 5290 11300
2020-05-25 16:30 6.07 3120 25200 (2019) 81 (1954) 2010 113 166 241 305 504 1920 2550 5290 11300
2020-05-25 15:30 6.23 3270 25200 (2019) 81 (1954) 2010 113 166 241 305 504 1920 2550 5290 11300
2020-05-25 14:30 6.28 3320 25200 (2019) 81 (1954) 2010 113 166 241 305 504 1920 2550 5290 11300
2020-05-25 13:30 6.42 3440 25200 (2019) 81 (1954) 2010 113 166 241 305 504 1920 2550 5290 11300
2020-05-25 12:30 6.57 3590 25200 (2019) 81 (1954) 2010 113 166 241 305 504 1920 2550 5290 11300
2020-05-25 11:30 6.70 3710 25200 (2019) 81 (1954) 2010 113 166 241 305 504 1920 2550 5290 11300
2020-05-25 10:30 6.89 3890 25200 (2019) 81 (1954) 2010 113 166 241 305 504 1920 2550 5290 11300
2020-05-25 09:30 7.07 4070 25200 (2019) 81 (1954) 2010 113 166 241 305 504 1920 2550 5290 11300
2020-05-25 08:30 7.18 4180 25200 (2019) 81 (1954) 2010 113 166 241 305 504 1920 2550 5290 11300
2020-05-25 07:30 7.38 4370 25200 (2019) 81 (1954) 2010 113 166 241 305 504 1920 2550 5290 11300
2020-05-25 06:30 7.56 4550 25200 (2019) 81 (1954) 2010 113 166 241 305 504 1920 2550 5290 11300
2020-05-25 05:30 7.71 4700 25200 (2019) 81 (1954) 2010 113 166 241 305 504 1920 2550 5290 11300
2020-05-25 04:30 7.96 4950 25200 (2019) 81 (1954) 2010 113 166 241 305 504 1920 2550 5290 11300
2020-05-25 03:30 8.14 5130 25200 (2019) 81 (1954) 2010 113 166 241 305 504 1920 2550 5290 11300
2020-05-25 02:30 8.28 5270 25200 (2019) 81 (1954) 2010 113 166 241 305 504 1920 2550 5290 11300
2020-05-25 01:30 8.39 5380 25200 (2019) 81 (1954) 2010 113 166 241 305 504 1920 2550 5290 11300
2020-05-25 00:30 8.52 5520 25200 (2019) 81 (1954) 2010 113 166 241 305 504 1920 2550 5290 11300
2020-05-24 23:30 8.65 5650 46300 (2019) 67 (1954) 1960 108 165 258 295 522 1680 2050 4880 8690
2020-05-24 22:30 8.70 5700 46300 (2019) 67 (1954) 1960 108 165 258 295 522 1680 2050 4880 8690
2020-05-24 21:30 8.93 5930 46300 (2019) 67 (1954) 1960 108 165 258 295 522 1680 2050 4880 8690
2020-05-24 20:30 9.03 6040 46300 (2019) 67 (1954) 1960 108 165 258 295 522 1680 2050 4880 8690
2020-05-24 19:30 9.25 6260 46300 (2019) 67 (1954) 1960 108 165 258 295 522 1680 2050 4880 8690
2020-05-24 18:30 9.42 6430 46300 (2019) 67 (1954) 1960 108 165 258 295 522 1680 2050 4880 8690
2020-05-24 17:30 9.68 6700 46300 (2019) 67 (1954) 1960 108 165 258 295 522 1680 2050 4880 8690
2020-05-24 16:30 9.86 6890 46300 (2019) 67 (1954) 1960 108 165 258 295 522 1680 2050 4880 8690
2020-05-24 15:30 10.19 7230 46300 (2019) 67 (1954) 1960 108 165 258 295 522 1680 2050 4880 8690
2020-05-24 14:30 10.51 7560 46300 (2019) 67 (1954) 1960 108 165 258 295 522 1680 2050 4880 8690
2020-05-24 13:30 10.72 7780 46300 (2019) 67 (1954) 1960 108 165 258 295 522 1680 2050 4880 8690
2020-05-24 12:30 11.17 8270 46300 (2019) 67 (1954) 1960 108 165 258 295 522 1680 2050 4880 8690
2020-05-24 11:30 11.38 8490 46300 (2019) 67 (1954) 1960 108 165 258 295 522 1680 2050 4880 8690
2020-05-24 10:30 11.50 8630 46300 (2019) 67 (1954) 1960 108 165 258 295 522 1680 2050 4880 8690
2020-05-24 09:30 11.71 8860 46300 (2019) 67 (1954) 1960 108 165 258 295 522 1680 2050 4880 8690
2020-05-24 08:30 11.80 8960 46300 (2019) 67 (1954) 1960 108 165 258 295 522 1680 2050 4880 8690
2020-05-24 07:30 11.89 9050 46300 (2019) 67 (1954) 1960 108 165 258 295 522 1680 2050 4880 8690
2020-05-24 06:30 12.03 9200 46300 (2019) 67 (1954) 1960 108 165 258 295 522 1680 2050 4880 8690
2020-05-24 05:30 12.10 9280 46300 (2019) 67 (1954) 1960 108 165 258 295 522 1680 2050 4880 8690
2020-05-24 04:30 12.24 9440 46300 (2019) 67 (1954) 1960 108 165 258 295 522 1680 2050 4880 8690
2020-05-24 03:30 12.29 9490 46300 (2019) 67 (1954) 1960 108 165 258 295 522 1680 2050 4880 8690
2020-05-24 02:30 12.37 9580 46300 (2019) 67 (1954) 1960 108 165 258 295 522 1680 2050 4880 8690
2020-05-24 01:30 12.51 9740 46300 (2019) 67 (1954) 1960 108 165 258 295 522 1680 2050 4880 8690
2020-05-24 00:30 12.62 9870 46300 (2019) 67 (1954) 1960 108 165 258 295 522 1680 2050 4880 8690
2020-05-23 23:30 12.72 9980 35000 (2019) 65 (1932) 1750 119 154 250 280 569 1290 1710 4710 6950
2020-05-23 22:30 12.73 9990 35000 (2019) 65 (1932) 1750 119 154 250 280 569 1290 1710 4710 6950
2020-05-23 21:30 12.75 10000 35000 (2019) 65 (1932) 1750 119 154 250 280 569 1290 1710 4710 6950
2020-05-23 20:30 12.85 10100 35000 (2019) 65 (1932) 1750 119 154 250 280 569 1290 1710 4710 6950
2020-05-23 19:30 12.86 10100 35000 (2019) 65 (1932) 1750 119 154 250 280 569 1290 1710 4710 6950
2020-05-23 18:30 12.95 10200 35000 (2019) 65 (1932) 1750 119 154 250 280 569 1290 1710 4710 6950
2020-05-23 17:30 13.13 10500 35000 (2019) 65 (1932) 1750 119 154 250 280 569 1290 1710 4710 6950
2020-05-23 16:30 13.17 10500 35000 (2019) 65 (1932) 1750 119 154 250 280 569 1290 1710 4710 6950
2020-05-23 15:30 13.35 10700 35000 (2019) 65 (1932) 1750 119 154 250 280 569 1290 1710 4710 6950
2020-05-23 14:30 13.57 11000 35000 (2019) 65 (1932) 1750 119 154 250 280 569 1290 1710 4710 6950
2020-05-23 13:30 13.75 11200 35000 (2019) 65 (1932) 1750 119 154 250 280 569 1290 1710 4710 6950
2020-05-23 12:30 13.93 11400 35000 (2019) 65 (1932) 1750 119 154 250 280 569 1290 1710 4710 6950
2020-05-23 11:30 14.18 11700 35000 (2019) 65 (1932) 1750 119 154 250 280 569 1290 1710 4710 6950
2020-05-23 10:30 14.32 11800 35000 (2019) 65 (1932) 1750 119 154 250 280 569 1290 1710 4710 6950
2020-05-23 09:30 14.58 12200 35000 (2019) 65 (1932) 1750 119 154 250 280 569 1290 1710 4710 6950
2020-05-23 08:30 14.66 12300 35000 (2019) 65 (1932) 1750 119 154 250 280 569 1290 1710 4710 6950
2020-05-23 07:30 14.81 12400 35000 (2019) 65 (1932) 1750 119 154 250 280 569 1290 1710 4710 6950
2020-05-23 06:30 15.02 12700 35000 (2019) 65 (1932) 1750 119 154 250 280 569 1290 1710 4710 6950
2020-05-23 05:30 15.06 12700 35000 (2019) 65 (1932) 1750 119 154 250 280 569 1290 1710 4710 6950
2020-05-23 04:30 15.05 12700 35000 (2019) 65 (1932) 1750 119 154 250 280 569 1290 1710 4710 6950
2020-05-23 03:30 14.96 12600 35000 (2019) 65 (1932) 1750 119 154 250 280 569 1290 1710 4710 6950
2020-05-23 02:30 14.86 12500 35000 (2019) 65 (1932) 1750 119 154 250 280 569 1290 1710 4710 6950
2020-05-23 01:30 14.60 12200 35000 (2019) 65 (1932) 1750 119 154 250 280 569 1290 1710 4710 6950
2020-05-23 00:30 14.53 12100 35000 (2019) 65 (1932) 1750 119 154 250 280 569 1290 1710 4710 6950
2020-05-22 23:30 14.21 11700 35400 (2019) 83 (1954) 2050 120 165 254 294 613 1430 1730 4870 11300
2020-05-22 22:30 13.77 11200 35400 (2019) 83 (1954) 2050 120 165 254 294 613 1430 1730 4870 11300
2020-05-22 21:30 13.55 10900 35400 (2019) 83 (1954) 2050 120 165 254 294 613 1430 1730 4870 11300
2020-05-22 20:30 13.05 10400 35400 (2019) 83 (1954) 2050 120 165 254 294 613 1430 1730 4870 11300
2020-05-22 19:30 12.51 9740 35400 (2019) 83 (1954) 2050 120 165 254 294 613 1430 1730 4870 11300
2020-05-22 18:30 11.84 9000 35400 (2019) 83 (1954) 2050 120 165 254 294 613 1430 1730 4870 11300
2020-05-22 17:30 11.37 8480 35400 (2019) 83 (1954) 2050 120 165 254 294 613 1430 1730 4870 11300
2020-05-22 16:30 10.70 7760 35400 (2019) 83 (1954) 2050 120 165 254 294 613 1430 1730 4870 11300
2020-05-22 15:30 10.02 7060 35400 (2019) 83 (1954) 2050 120 165 254 294 613 1430 1730 4870 11300
2020-05-22 14:30 9.07 6080 35400 (2019) 83 (1954) 2050 120 165 254 294 613 1430 1730 4870 11300
2020-05-22 13:30 8.18 5170 35400 (2019) 83 (1954) 2050 120 165 254 294 613 1430 1730 4870 11300
2020-05-22 12:30 7.34 4330 35400 (2019) 83 (1954) 2050 120 165 254 294 613 1430 1730 4870 11300
2020-05-22 11:30 6.25 3290 35400 (2019) 83 (1954) 2050 120 165 254 294 613 1430 1730 4870 11300
2020-05-22 10:30 5.18 2340 35400 (2019) 83 (1954) 2050 120 165 254 294 613 1430 1730 4870 11300
2020-05-22 09:30 4.74 1970 35400 (2019) 83 (1954) 2050 120 165 254 294 613 1430 1730 4870 11300
2020-05-22 08:30 4.64 1880 35400 (2019) 83 (1954) 2050 120 165 254 294 613 1430 1730 4870 11300
2020-05-22 07:30 4.67 1910 35400 (2019) 83 (1954) 2050 120 165 254 294 613 1430 1730 4870 11300
2020-05-22 06:30 4.64 1880 35400 (2019) 83 (1954) 2050 120 165 254 294 613 1430 1730 4870 11300
2020-05-22 05:30 4.63 1870 35400 (2019) 83 (1954) 2050 120 165 254 294 613 1430 1730 4870 11300
2020-05-22 04:30 4.61 1860 35400 (2019) 83 (1954) 2050 120 165 254 294 613 1430 1730 4870 11300
2020-05-22 03:30 4.57 1820 35400 (2019) 83 (1954) 2050 120 165 254 294 613 1430 1730 4870 11300
2020-05-22 02:30 4.61 1860 35400 (2019) 83 (1954) 2050 120 165 254 294 613 1430 1730 4870 11300
2020-05-22 01:30 4.61 1860 35400 (2019) 83 (1954) 2050 120 165 254 294 613 1430 1730 4870 11300
2020-05-22 00:30 4.58 1830 35400 (2019) 83 (1954) 2050 120 165 254 294 613 1430 1730 4870 11300
2020-05-21 23:30 4.62 1860 32200 (1943) 85 (1954) 2410 122 178 260 316 563 1510 2150 7070 15700
2020-05-21 22:30 4.63 1870 32200 (1943) 85 (1954) 2410 122 178 260 316 563 1510 2150 7070 15700
2020-05-21 21:30 4.63 1870 32200 (1943) 85 (1954) 2410 122 178 260 316 563 1510 2150 7070 15700
2020-05-21 20:30 4.63 1870 32200 (1943) 85 (1954) 2410 122 178 260 316 563 1510 2150 7070 15700
2020-05-21 19:30 4.65 1890 32200 (1943) 85 (1954) 2410 122 178 260 316 563 1510 2150 7070 15700
2020-05-21 18:30 4.61 1860 32200 (1943) 85 (1954) 2410 122 178 260 316 563 1510 2150 7070 15700
2020-05-21 17:30 4.65 1890 32200 (1943) 85 (1954) 2410 122 178 260 316 563 1510 2150 7070 15700
2020-05-21 16:30 4.66 1900 32200 (1943) 85 (1954) 2410 122 178 260 316 563 1510 2150 7070 15700
2020-05-21 15:30 4.66 1900 32200 (1943) 85 (1954) 2410 122 178 260 316 563 1510 2150 7070 15700
2020-05-21 14:30 4.63 1870 32200 (1943) 85 (1954) 2410 122 178 260 316 563 1510 2150 7070 15700
2020-05-21 13:30 4.67 1910 32200 (1943) 85 (1954) 2410 122 178 260 316 563 1510 2150 7070 15700
2020-05-21 12:30 4.68 1920 32200 (1943) 85 (1954) 2410 122 178 260 316 563 1510 2150 7070 15700
2020-05-21 11:30 4.71 1940 32200 (1943) 85 (1954) 2410 122 178 260 316 563 1510 2150 7070 15700
2020-05-21 10:30 4.71 1940 32200 (1943) 85 (1954) 2410 122 178 260 316 563 1510 2150 7070 15700
2020-05-21 09:30 4.72 1950 32200 (1943) 85 (1954) 2410 122 178 260 316 563 1510 2150 7070 15700
2020-05-21 08:30 4.72 1950 32200 (1943) 85 (1954) 2410 122 178 260 316 563 1510 2150 7070 15700
2020-05-21 07:30 4.72 1950 32200 (1943) 85 (1954) 2410 122 178 260 316 563 1510 2150 7070 15700
2020-05-21 06:30 4.74 1970 32200 (1943) 85 (1954) 2410 122 178 260 316 563 1510 2150 7070 15700
2020-05-21 05:30 4.77 1990 32200 (1943) 85 (1954) 2410 122 178 260 316 563 1510 2150 7070 15700
2020-05-21 04:30 4.76 1980 32200 (1943) 85 (1954) 2410 122 178 260 316 563 1510 2150 7070 15700
2020-05-21 03:30 4.82 2030 32200 (1943) 85 (1954) 2410 122 178 260 316 563 1510 2150 7070 15700
2020-05-21 02:30 4.83 2030 32200 (1943) 85 (1954) 2410 122 178 260 316 563 1510 2150 7070 15700
2020-05-21 01:30 4.84 2040 32200 (1943) 85 (1954) 2410 122 178 260 316 563 1510 2150 7070 15700
2020-05-21 00:30 4.84 2040 32200 (1943) 85 (1954) 2410 122 178 260 316 563 1510 2150 7070 15700
2020-05-20 23:30 4.83 2030 61100 (1943) 89 (1954) 2440 122 193 268 321 620 2010 2470 6240 10800
2020-05-20 22:30 4.86 2060 61100 (1943) 89 (1954) 2440 122 193 268 321 620 2010 2470 6240 10800
2020-05-20 21:30 4.77 1990 61100 (1943) 89 (1954) 2440 122 193 268 321 620 2010 2470 6240 10800
2020-05-20 20:30 4.88 2080 61100 (1943) 89 (1954) 2440 122 193 268 321 620 2010 2470 6240 10800
2020-05-20 19:30 4.91 2100 61100 (1943) 89 (1954) 2440 122 193 268 321 620 2010 2470 6240 10800
2020-05-20 18:30 4.94 2130 61100 (1943) 89 (1954) 2440 122 193 268 321 620 2010 2470 6240 10800
2020-05-20 17:30 4.97 2150 61100 (1943) 89 (1954) 2440 122 193 268 321 620 2010 2470 6240 10800
2020-05-20 16:30 4.93 2120 61100 (1943) 89 (1954) 2440 122 193 268 321 620 2010 2470 6240 10800
2020-05-20 15:30 4.96 2140 61100 (1943) 89 (1954) 2440 122 193 268 321 620 2010 2470 6240 10800
2020-05-20 14:30 4.97 2150 61100 (1943) 89 (1954) 2440 122 193 268 321 620 2010 2470 6240 10800
2020-05-20 13:30 4.98 2160 61100 (1943) 89 (1954) 2440 122 193 268 321 620 2010 2470 6240 10800
2020-05-20 12:30 5.00 2180 61100 (1943) 89 (1954) 2440 122 193 268 321 620 2010 2470 6240 10800
2020-05-20 11:30 4.92 2110 61100 (1943) 89 (1954) 2440 122 193 268 321 620 2010 2470 6240 10800
2020-05-20 10:30 5.04 2210 61100 (1943) 89 (1954) 2440 122 193 268 321 620 2010 2470 6240 10800
2020-05-20 09:30 5.06 2230 61100 (1943) 89 (1954) 2440 122 193 268 321 620 2010 2470 6240 10800
2020-05-20 08:30 5.10 2270 61100 (1943) 89 (1954) 2440 122 193 268 321 620 2010 2470 6240 10800
2020-05-20 07:30 5.06 2230 61100 (1943) 89 (1954) 2440 122 193 268 321 620 2010 2470 6240 10800
2020-05-20 06:30 5.15 2310 61100 (1943) 89 (1954) 2440 122 193 268 321 620 2010 2470 6240 10800
2020-05-20 05:30 5.13 2290 61100 (1943) 89 (1954) 2440 122 193 268 321 620 2010 2470 6240 10800
2020-05-20 04:30 5.14 2300 61100 (1943) 89 (1954) 2440 122 193 268 321 620 2010 2470 6240 10800
2020-05-20 03:30 5.21 2360 61100 (1943) 89 (1954) 2440 122 193 268 321 620 2010 2470 6240 10800
2020-05-20 02:30 5.18 2340 61100 (1943) 89 (1954) 2440 122 193 268 321 620 2010 2470 6240 10800
2020-05-20 01:30 5.23 2380 61100 (1943) 89 (1954) 2440 122 193 268 321 620 2010 2470 6240 10800
2020-05-20 00:30 5.27 2410 61100 (1943) 89 (1954) 2440 122 193 268 321 620 2010 2470 6240 10800
2020-05-19 23:30 5.24 2390 81800 (1943) 100 (1954) 2460 144 180 267 292 653 1250 1820 3660 11100
2020-05-19 22:30 5.28 2420 81800 (1943) 100 (1954) 2460 144 180 267 292 653 1250 1820 3660 11100
2020-05-19 21:30 5.31 2440 81800 (1943) 100 (1954) 2460 144 180 267 292 653 1250 1820 3660 11100
2020-05-19 20:30 5.31 2440 81800 (1943) 100 (1954) 2460 144 180 267 292 653 1250 1820 3660 11100
2020-05-19 19:30 5.36 2490 81800 (1943) 100 (1954) 2460 144 180 267 292 653 1250 1820 3660 11100
2020-05-19 18:30 5.33 2460 81800 (1943) 100 (1954) 2460 144 180 267 292 653 1250 1820 3660 11100
2020-05-19 17:30 5.44 2560 81800 (1943) 100 (1954) 2460 144 180 267 292 653 1250 1820 3660 11100
2020-05-19 16:30 5.40 2520 81800 (1943) 100 (1954) 2460 144 180 267 292 653 1250 1820 3660 11100
2020-05-19 15:30 5.46 2580 81800 (1943) 100 (1954) 2460 144 180 267 292 653 1250 1820 3660 11100
2020-05-19 14:30 5.44 2560 81800 (1943) 100 (1954) 2460 144 180 267 292 653 1250 1820 3660 11100
2020-05-19 13:30 5.52 2630 81800 (1943) 100 (1954) 2460 144 180 267 292 653 1250 1820 3660 11100
2020-05-19 12:30 5.56 2670 81800 (1943) 100 (1954) 2460 144 180 267 292 653 1250 1820 3660 11100
2020-05-19 11:30 5.58 2690 81800 (1943) 100 (1954) 2460 144 180 267 292 653 1250 1820 3660 11100
2020-05-19 10:30 5.64 2740 81800 (1943) 100 (1954) 2460 144 180 267 292 653 1250 1820 3660 11100
2020-05-19 09:30 5.59 2690 81800 (1943) 100 (1954) 2460 144 180 267 292 653 1250 1820 3660 11100
2020-05-19 08:30 5.70 2790 81800 (1943) 100 (1954) 2460 144 180 267 292 653 1250 1820 3660 11100
2020-05-19 07:30 5.65 2750 81800 (1943) 100 (1954) 2460 144 180 267 292 653 1250 1820 3660 11100
2020-05-19 06:30 5.76 2850 81800 (1943) 100 (1954) 2460 144 180 267 292 653 1250 1820 3660 11100
2020-05-19 05:30 5.82 2890 81800 (1943) 100 (1954) 2460 144 180 267 292 653 1250 1820 3660 11100
2020-05-19 04:30 5.83 2900 81800 (1943) 100 (1954) 2460 144 180 267 292 653 1250 1820 3660 11100
2020-05-19 03:30 5.86 2930 81800 (1943) 100 (1954) 2460 144 180 267 292 653 1250 1820 3660 11100
2020-05-19 02:30 5.93 2990 81800 (1943) 100 (1954) 2460 144 180 267 292 653 1250 1820 3660 11100
2020-05-19 01:30 5.97 3030 81800 (1943) 100 (1954) 2460 144 180 267 292 653 1250 1820 3660 11100
2020-05-19 00:30 6.00 3060 81800 (1943) 100 (1954) 2460 144 180 267 292 653 1250 1820 3660 11100
2020-05-18 23:30 5.94 3000 41100 (1943) 107 (1954) 2160 142 193 267 300 592 1110 1450 5570 11900
2020-05-18 22:30 5.99 3050 41100 (1943) 107 (1954) 2160 142 193 267 300 592 1110 1450 5570 11900
2020-05-18 21:30 6.05 3110 41100 (1943) 107 (1954) 2160 142 193 267 300 592 1110 1450 5570 11900
2020-05-18 20:30 6.02 3080 41100 (1943) 107 (1954) 2160 142 193 267 300 592 1110 1450 5570 11900
2020-05-18 19:30 6.06 3110 41100 (1943) 107 (1954) 2160 142 193 267 300 592 1110 1450 5570 11900
2020-05-18 18:30 6.05 3110 41100 (1943) 107 (1954) 2160 142 193 267 300 592 1110 1450 5570 11900
2020-05-18 17:30 6.08 3130 41100 (1943) 107 (1954) 2160 142 193 267 300 592 1110 1450 5570 11900
2020-05-18 16:30 6.09 3140 41100 (1943) 107 (1954) 2160 142 193 267 300 592 1110 1450 5570 11900
2020-05-18 15:30 6.11 3160 41100 (1943) 107 (1954) 2160 142 193 267 300 592 1110 1450 5570 11900
2020-05-18 14:30 6.19 3240 41100 (1943) 107 (1954) 2160 142 193 267 300 592 1110 1450 5570 11900
2020-05-18 13:30 6.20 3250 41100 (1943) 107 (1954) 2160 142 193 267 300 592 1110 1450 5570 11900
2020-05-18 12:30 6.17 3220 41100 (1943) 107 (1954) 2160 142 193 267 300 592 1110 1450 5570 11900
2020-05-18 11:30 6.27 3310 41100 (1943) 107 (1954) 2160 142 193 267 300 592 1110 1450 5570 11900
2020-05-18 10:30 6.30 3340 41100 (1943) 107 (1954) 2160 142 193 267 300 592 1110 1450 5570 11900
2020-05-18 09:30 6.40 3430 41100 (1943) 107 (1954) 2160 142 193 267 300 592 1110 1450 5570 11900
2020-05-18 08:30 6.42 3440 41100 (1943) 107 (1954) 2160 142 193 267 300 592 1110 1450 5570 11900
2020-05-18 07:30 6.49 3510 41100 (1943) 107 (1954) 2160 142 193 267 300 592 1110 1450 5570 11900
2020-05-18 06:30 6.59 3610 41100 (1943) 107 (1954) 2160 142 193 267 300 592 1110 1450 5570 11900
2020-05-18 05:30 6.64 3660 41100 (1943) 107 (1954) 2160 142 193 267 300 592 1110 1450 5570 11900
2020-05-18 04:30 6.73 3740 41100 (1943) 107 (1954) 2160 142 193 267 300 592 1110 1450 5570 11900
2020-05-18 03:30 6.81 3820 41100 (1943) 107 (1954) 2160 142 193 267 300 592 1110 1450 5570 11900
2020-05-18 02:30 6.92 3920 41100 (1943) 107 (1954) 2160 142 193 267 300 592 1110 1450 5570 11900
2020-05-18 01:30 6.90 3900 41100 (1943) 107 (1954) 2160 142 193 267 300 592 1110 1450 5570 11900
2020-05-18 00:30 7.06 4060 41100 (1943) 107 (1954) 2160 142 193 267 300 592 1110 1450 5570 11900
2020-05-17 23:30 7.22 4220 21000 (1990) 107 (1954) 1630 146 184 261 313 605 1270 1560 4230 9000
2020-05-17 22:30 7.31 4310 21000 (1990) 107 (1954) 1630 146 184 261 313 605 1270 1560 4230 9000
2020-05-17 21:30 7.46 4450 21000 (1990) 107 (1954) 1630 146 184 261 313 605 1270 1560 4230 9000
2020-05-17 20:30 7.49 4480 21000 (1990) 107 (1954) 1630 146 184 261 313 605 1270 1560 4230 9000
2020-05-17 19:30 7.70 4690 21000 (1990) 107 (1954) 1630 146 184 261 313 605 1270 1560 4230 9000
2020-05-17 18:30 7.89 4870 21000 (1990) 107 (1954) 1630 146 184 261 313 605 1270 1560 4230 9000
2020-05-17 17:30 8.03 5020 21000 (1990) 107 (1954) 1630 146 184 261 313 605 1270 1560 4230 9000
2020-05-17 16:30 8.23 5220 21000 (1990) 107 (1954) 1630 146 184 261 313 605 1270 1560 4230 9000
2020-05-17 15:30 8.31 5300 21000 (1990) 107 (1954) 1630 146 184 261 313 605 1270 1560 4230 9000
2020-05-17 14:30 8.44 5440 21000 (1990) 107 (1954) 1630 146 184 261 313 605 1270 1560 4230 9000
2020-05-17 13:30 8.64 5640 21000 (1990) 107 (1954) 1630 146 184 261 313 605 1270 1560 4230 9000
2020-05-17 12:30 8.84 5850 21000 (1990) 107 (1954) 1630 146 184 261 313 605 1270 1560 4230 9000
2020-05-17 11:30 9.08 6090 21000 (1990) 107 (1954) 1630 146 184 261 313 605 1270 1560 4230 9000
2020-05-17 10:30 9.22 6230 21000 (1990) 107 (1954) 1630 146 184 261 313 605 1270 1560 4230 9000
2020-05-17 09:30 9.39 6400 21000 (1990) 107 (1954) 1630 146 184 261 313 605 1270 1560 4230 9000
2020-05-17 08:30 9.58 6600 21000 (1990) 107 (1954) 1630 146 184 261 313 605 1270 1560 4230 9000
2020-05-17 07:30 9.67 6690 21000 (1990) 107 (1954) 1630 146 184 261 313 605 1270 1560 4230 9000
2020-05-17 06:30 9.84 6870 21000 (1990) 107 (1954) 1630 146 184 261 313 605 1270 1560 4230 9000
2020-05-17 05:30 9.90 6930 21000 (1990) 107 (1954) 1630 146 184 261 313 605 1270 1560 4230 9000
2020-05-17 04:30 10.04 7080 21000 (1990) 107 (1954) 1630 146 184 261 313 605 1270 1560 4230 9000
2020-05-17 03:30 10.15 7190 21000 (1990) 107 (1954) 1630 146 184 261 313 605 1270 1560 4230 9000
2020-05-17 02:30 10.17 7210 21000 (1990) 107 (1954) 1630 146 184 261 313 605 1270 1560 4230 9000
2020-05-17 01:30 10.32 7370 21000 (1990) 107 (1954) 1630 146 184 261 313 605 1270 1560 4230 9000
2020-05-17 00:30 10.41 7450 21000 (1990) 107 (1954) 1630 146 184 261 313 605 1270 1560 4230 9000
2020-05-16 23:30 10.48 7530 11200 (1990) 94 (1932) 1290 143 183 270 303 543 1340 1720 3100 5190
2020-05-16 22:30 10.43 7470 11200 (1990) 94 (1932) 1290 143 183 270 303 543 1340 1720 3100 5190
2020-05-16 21:30 10.58 7630 11200 (1990) 94 (1932) 1290 143 183 270 303 543 1340 1720 3100 5190
2020-05-16 20:30 10.65 7710 11200 (1990) 94 (1932) 1290 143 183 270 303 543 1340 1720 3100 5190
2020-05-16 19:30 10.73 7790 11200 (1990) 94 (1932) 1290 143 183 270 303 543 1340 1720 3100 5190
2020-05-16 18:30 10.79 7860 11200 (1990) 94 (1932) 1290 143 183 270 303 543 1340 1720 3100 5190
2020-05-16 17:30 10.90 7970 11200 (1990) 94 (1932) 1290 143 183 270 303 543 1340 1720 3100 5190
2020-05-16 16:30 10.93 8010 11200 (1990) 94 (1932) 1290 143 183 270 303 543 1340 1720 3100 5190
2020-05-16 15:30 11.11 8200 11200 (1990) 94 (1932) 1290 143 183 270 303 543 1340 1720 3100 5190
2020-05-16 14:30 11.24 8340 11200 (1990) 94 (1932) 1290 143 183 270 303 543 1340 1720 3100 5190
2020-05-16 13:30 11.38 8490 11200 (1990) 94 (1932) 1290 143 183 270 303 543 1340 1720 3100 5190
2020-05-16 12:30 11.51 8640 11200 (1990) 94 (1932) 1290 143 183 270 303 543 1340 1720 3100 5190
2020-05-16 11:30 11.73 8880 11200 (1990) 94 (1932) 1290 143 183 270 303 543 1340 1720 3100 5190
2020-05-16 10:30 11.94 9100 11200 (1990) 94 (1932) 1290 143 183 270 303 543 1340 1720 3100 5190
2020-05-16 09:30 12.02 9190 11200 (1990) 94 (1932) 1290 143 183 270 303 543 1340 1720 3100 5190
2020-05-16 08:30 12.33 9540 11200 (1990) 94 (1932) 1290 143 183 270 303 543 1340 1720 3100 5190
2020-05-16 07:30 12.50 9730 11200 (1990) 94 (1932) 1290 143 183 270 303 543 1340 1720 3100 5190
2020-05-16 06:30 12.73 9990 11200 (1990) 94 (1932) 1290 143 183 270 303 543 1340 1720 3100 5190
2020-05-16 05:30 12.89 10200 11200 (1990) 94 (1932) 1290 143 183 270 303 543 1340 1720 3100 5190
2020-05-16 04:30 12.91 10200 11200 (1990) 94 (1932) 1290 143 183 270 303 543 1340 1720 3100 5190
2020-05-16 03:30 13.13 10500 11200 (1990) 94 (1932) 1290 143 183 270 303 543 1340 1720 3100 5190
2020-05-16 02:30 13.18 10500 11200 (1990) 94 (1932) 1290 143 183 270 303 543 1340 1720 3100 5190
2020-05-16 01:30 13.33 10700 11200 (1990) 94 (1932) 1290 143 183 270 303 543 1340 1720 3100 5190
2020-05-16 00:30 13.33 10700 11200 (1990) 94 (1932) 1290 143 183 270 303 543 1340 1720 3100 5190
2020-05-15 23:30 13.40 10800 12600 (2010) 54 (1956) 1430 143 190 290 330 591 1270 1870 3350 6480
2020-05-15 22:30 13.29 10600 12600 (2010) 54 (1956) 1430 143 190 290 330 591 1270 1870 3350 6480
2020-05-15 21:30 12.93 10200 12600 (2010) 54 (1956) 1430 143 190 290 330 591 1270 1870 3350 6480
2020-05-15 20:30 12.94 10200 12600 (2010) 54 (1956) 1430 143 190 290 330 591 1270 1870 3350 6480
2020-05-15 19:30 12.71 9970 12600 (2010) 54 (1956) 1430 143 190 290 330 591 1270 1870 3350 6480
2020-05-15 18:30 12.54 9780 12600 (2010) 54 (1956) 1430 143 190 290 330 591 1270 1870 3350 6480
2020-05-15 17:30 12.29 9490 12600 (2010) 54 (1956) 1430 143 190 290 330 591 1270 1870 3350 6480
2020-05-15 16:30 11.89 9050 12600 (2010) 54 (1956) 1430 143 190 290 330 591 1270 1870 3350 6480
2020-05-15 15:30 11.45 8570 12600 (2010) 54 (1956) 1430 143 190 290 330 591 1270 1870 3350 6480
2020-05-15 14:30 11.03 8110 12600 (2010) 54 (1956) 1430 143 190 290 330 591 1270 1870 3350 6480
2020-05-15 13:30 10.50 7550 12600 (2010) 54 (1956) 1430 143 190 290 330 591 1270 1870 3350 6480
2020-05-15 12:30 9.96 6990 12600 (2010) 54 (1956) 1430 143 190 290 330 591 1270 1870 3350 6480
2020-05-15 11:30 9.61 6630 12600 (2010) 54 (1956) 1430 143 190 290 330 591 1270 1870 3350 6480
2020-05-15 10:30 9.43 6440 12600 (2010) 54 (1956) 1430 143 190 290 330 591 1270 1870 3350 6480
2020-05-15 09:30 9.36 6370 12600 (2010) 54 (1956) 1430 143 190 290 330 591 1270 1870 3350 6480
2020-05-15 08:30 9.32 6330 12600 (2010) 54 (1956) 1430 143 190 290 330 591 1270 1870 3350 6480
2020-05-15 07:30 9.27 6280 12600 (2010) 54 (1956) 1430 143 190 290 330 591 1270 1870 3350 6480
2020-05-15 06:30 9.22 6230 12600 (2010) 54 (1956) 1430 143 190 290 330 591 1270 1870 3350 6480
2020-05-15 05:30 9.25 6260 12600 (2010) 54 (1956) 1430 143 190 290 330 591 1270 1870 3350 6480
2020-05-15 04:30 9.32 6330 12600 (2010) 54 (1956) 1430 143 190 290 330 591 1270 1870 3350 6480
2020-05-15 03:30 9.40 6410 12600 (2010) 54 (1956) 1430 143 190 290 330 591 1270 1870 3350 6480
2020-05-15 02:30 9.50 6520 12600 (2010) 54 (1956) 1430 143 190 290 330 591 1270 1870 3350 6480
2020-05-15 01:30 9.58 6600 12600 (2010) 54 (1956) 1430 143 190 290 330 591 1270 1870 3350 6480
2020-05-15 00:30 9.79 6820 12600 (2010) 54 (1956) 1430 143 190 290 330 591 1270 1870 3350 6480
2020-05-14 23:30 9.85 6880 17800 (1929) 32 (1956) 1540 142 199 282 337 641 1420 1690 3590 7370
2020-05-14 22:30 10.03 7070 17800 (1929) 32 (1956) 1540 142 199 282 337 641 1420 1690 3590 7370
2020-05-14 21:30 10.09 7130 17800 (1929) 32 (1956) 1540 142 199 282 337 641 1420 1690 3590 7370
2020-05-14 20:30 10.31 7360 17800 (1929) 32 (1956) 1540 142 199 282 337 641 1420 1690 3590 7370
2020-05-14 19:30 10.36 7410 17800 (1929) 32 (1956) 1540 142 199 282 337 641 1420 1690 3590 7370
2020-05-14 18:30 10.57 7620 17800 (1929) 32 (1956) 1540 142 199 282 337 641 1420 1690 3590 7370
2020-05-14 17:30 10.73 7790 17800 (1929) 32 (1956) 1540 142 199 282 337 641 1420 1690 3590 7370
2020-05-14 16:30 10.95 8030 17800 (1929) 32 (1956) 1540 142 199 282 337 641 1420 1690 3590 7370
2020-05-14 15:30 11.17 8270 17800 (1929) 32 (1956) 1540 142 199 282 337 641 1420 1690 3590 7370
2020-05-14 14:30 11.43 8550 17800 (1929) 32 (1956) 1540 142 199 282 337 641 1420 1690 3590 7370
2020-05-14 13:30 11.71 8860 17800 (1929) 32 (1956) 1540 142 199 282 337 641 1420 1690 3590 7370
2020-05-14 12:30 12.03 9200 17800 (1929) 32 (1956) 1540 142 199 282 337 641 1420 1690 3590 7370
2020-05-14 11:30 12.35 9560 17800 (1929) 32 (1956) 1540 142 199 282 337 641 1420 1690 3590 7370
2020-05-14 10:30 12.61 9860 17800 (1929) 32 (1956) 1540 142 199 282 337 641 1420 1690 3590 7370
2020-05-14 09:30 12.89 10200 17800 (1929) 32 (1956) 1540 142 199 282 337 641 1420 1690 3590 7370
2020-05-14 08:30 13.10 10400 17800 (1929) 32 (1956) 1540 142 199 282 337 641 1420 1690 3590 7370
2020-05-14 07:30 13.24 10600 17800 (1929) 32 (1956) 1540 142 199 282 337 641 1420 1690 3590 7370
2020-05-14 06:30 13.29 10600 17800 (1929) 32 (1956) 1540 142 199 282 337 641 1420 1690 3590 7370
2020-05-14 05:30 13.37 10700 17800 (1929) 32 (1956) 1540 142 199 282 337 641 1420 1690 3590 7370
2020-05-14 04:30 13.60 11000 17800 (1929) 32 (1956) 1540 142 199 282 337 641 1420 1690 3590 7370
2020-05-14 03:30 13.66 11100 17800 (1929) 32 (1956) 1540 142 199 282 337 641 1420 1690 3590 7370
2020-05-14 02:30 13.61 11000 17800 (1929) 32 (1956) 1540 142 199 282 337 641 1420 1690 3590 7370
2020-05-14 01:30 13.54 10900 17800 (1929) 32 (1956) 1540 142 199 282 337 641 1420 1690 3590 7370
2020-05-14 00:30 13.42 10800 17800 (1929) 32 (1956) 1540 142 199 282 337 641 1420 1690 3590 7370
2020-05-13 23:30 13.32 10700 23200 (1929) 26 (1956) 1480 134 212 283 317 621 1260 1670 2600 7010
2020-05-13 22:30 13.31 10700 23200 (1929) 26 (1956) 1480 134 212 283 317 621 1260 1670 2600 7010
2020-05-13 21:30 13.05 10400 23200 (1929) 26 (1956) 1480 134 212 283 317 621 1260 1670 2600 7010
2020-05-13 20:30 13.15 10500 23200 (1929) 26 (1956) 1480 134 212 283 317 621 1260 1670 2600 7010
2020-05-13 19:30 13.12 10400 23200 (1929) 26 (1956) 1480 134 212 283 317 621 1260 1670 2600 7010
2020-05-13 18:30 13.16 10500 23200 (1929) 26 (1956) 1480 134 212 283 317 621 1260 1670 2600 7010
2020-05-13 17:30 13.14 10500 23200 (1929) 26 (1956) 1480 134 212 283 317 621 1260 1670 2600 7010
2020-05-13 16:30 13.02 10300 23200 (1929) 26 (1956) 1480 134 212 283 317 621 1260 1670 2600 7010
2020-05-13 15:30 13.31 10700 23200 (1929) 26 (1956) 1480 134 212 283 317 621 1260 1670 2600 7010
2020-05-13 14:30 13.46 10800 23200 (1929) 26 (1956) 1480 134 212 283 317 621 1260 1670 2600 7010
2020-05-13 13:30 13.62 11000 23200 (1929) 26 (1956) 1480 134 212 283 317 621 1260 1670 2600 7010
2020-05-13 12:30 13.67 11100 23200 (1929) 26 (1956) 1480 134 212 283 317 621 1260 1670 2600 7010
2020-05-13 11:30 13.84 11300 23200 (1929) 26 (1956) 1480 134 212 283 317 621 1260 1670 2600 7010
2020-05-13 10:30 14.11 11600 23200 (1929) 26 (1956) 1480 134 212 283 317 621 1260 1670 2600 7010
2020-05-13 09:30 14.18 11700 23200 (1929) 26 (1956) 1480 134 212 283 317 621 1260 1670 2600 7010
2020-05-13 08:30 14.52 12100 23200 (1929) 26 (1956) 1480 134 212 283 317 621 1260 1670 2600 7010
2020-05-13 07:30 14.79 12400 23200 (1929) 26 (1956) 1480 134 212 283 317 621 1260 1670 2600 7010
2020-05-13 06:30 14.83 12500 23200 (1929) 26 (1956) 1480 134 212 283 317 621 1260 1670 2600 7010
2020-05-13 05:30 15.14 12800 23200 (1929) 26 (1956) 1480 134 212 283 317 621 1260 1670 2600 7010
2020-05-13 04:30 15.26 13000 23200 (1929) 26 (1956) 1480 134 212 283 317 621 1260 1670 2600 7010
2020-05-13 03:30 15.42 13200 23200 (1929) 26 (1956) 1480 134 212 283 317 621 1260 1670 2600 7010
2020-05-13 02:30 15.57 13400 23200 (1929) 26 (1956) 1480 134 212 283 317 621 1260 1670 2600 7010
2020-05-13 01:30 15.72 13500 23200 (1929) 26 (1956) 1480 134 212 283 317 621 1260 1670 2600 7010
2020-05-13 00:30 15.75 13600 23200 (1929) 26 (1956) 1480 134 212 283 317 621 1260 1670 2600 7010
2020-05-12 23:30 15.90 13800 18600 (1943) 28 (1956) 1390 139 212 298 326 633 1360 1610 2770 5680
2020-05-12 22:30 16.01 13900 18600 (1943) 28 (1956) 1390 139 212 298 326 633 1360 1610 2770 5680
2020-05-12 21:30 16.02 13900 18600 (1943) 28 (1956) 1390 139 212 298 326 633 1360 1610 2770 5680
2020-05-12 20:30 15.95 13800 18600 (1943) 28 (1956) 1390 139 212 298 326 633 1360 1610 2770 5680
2020-05-12 19:30 15.89 13700 18600 (1943) 28 (1956) 1390 139 212 298 326 633 1360 1610 2770 5680
2020-05-12 18:30 15.75 13600 18600 (1943) 28 (1956) 1390 139 212 298 326 633 1360 1610 2770 5680
2020-05-12 17:30 15.72 13500 18600 (1943) 28 (1956) 1390 139 212 298 326 633 1360 1610 2770 5680
2020-05-12 16:30 15.53 13300 18600 (1943) 28 (1956) 1390 139 212 298 326 633 1360 1610 2770 5680
2020-05-12 15:30 15.26 13000 18600 (1943) 28 (1956) 1390 139 212 298 326 633 1360 1610 2770 5680
2020-05-12 14:30 15.02 12700 18600 (1943) 28 (1956) 1390 139 212 298 326 633 1360 1610 2770 5680
2020-05-12 13:30 14.75 12400 18600 (1943) 28 (1956) 1390 139 212 298 326 633 1360 1610 2770 5680
2020-05-12 12:30 14.21 11700 18600 (1943) 28 (1956) 1390 139 212 298 326 633 1360 1610 2770 5680
2020-05-12 11:30 13.74 11200 18600 (1943) 28 (1956) 1390 139 212 298 326 633 1360 1610 2770 5680
2020-05-12 10:30 13.08 10400 18600 (1943) 28 (1956) 1390 139 212 298 326 633 1360 1610 2770 5680
2020-05-12 09:30 12.39 9610 18600 (1943) 28 (1956) 1390 139 212 298 326 633 1360 1610 2770 5680
2020-05-12 08:30 11.56 8690 18600 (1943) 28 (1956) 1390 139 212 298 326 633 1360 1610 2770 5680
2020-05-12 07:30 10.46 7510 18600 (1943) 28 (1956) 1390 139 212 298 326 633 1360 1610 2770 5680
2020-05-12 06:30 9.35 6360 18600 (1943) 28 (1956) 1390 139 212 298 326 633 1360 1610 2770 5680
2020-05-12 05:30 8.16 5150 18600 (1943) 28 (1956) 1390 139 212 298 326 633 1360 1610 2770 5680
2020-05-12 04:30 6.93 3930 18600 (1943) 28 (1956) 1390 139 212 298 326 633 1360 1610 2770 5680
2020-05-12 03:30 5.97 3030 18600 (1943) 28 (1956) 1390 139 212 298 326 633 1360 1610 2770 5680
2020-05-12 02:30 5.30 2430 18600 (1943) 28 (1956) 1390 139 212 298 326 633 1360 1610 2770 5680
2020-05-12 01:30 4.85 2050 18600 (1943) 28 (1956) 1390 139 212 298 326 633 1360 1610 2770 5680
2020-05-12 00:30 4.53 1790 18600 (1943) 28 (1956) 1390 139 212 298 326 633 1360 1610 2770 5680
2020-05-11 23:30 4.30 1610 26700 (1943) 30 (1956) 1690 131 193 305 332 609 1540 1880 3320 8760
2020-05-11 22:30 4.15 1500 26700 (1943) 30 (1956) 1690 131 193 305 332 609 1540 1880 3320 8760
2020-05-11 21:30 4.10 1460 26700 (1943) 30 (1956) 1690 131 193 305 332 609 1540 1880 3320 8760
2020-05-11 20:30 4.08 1450 26700 (1943) 30 (1956) 1690 131 193 305 332 609 1540 1880 3320 8760
2020-05-11 19:30 4.06 1430 26700 (1943) 30 (1956) 1690 131 193 305 332 609 1540 1880 3320 8760
2020-05-11 18:30 4.06 1430 26700 (1943) 30 (1956) 1690 131 193 305 332 609 1540 1880 3320 8760
2020-05-11 17:30 4.07 1440 26700 (1943) 30 (1956) 1690 131 193 305 332 609 1540 1880 3320 8760
2020-05-11 16:30 4.08 1450 26700 (1943) 30 (1956) 1690 131 193 305 332 609 1540 1880 3320 8760
2020-05-11 15:30 4.09 1450 26700 (1943) 30 (1956) 1690 131 193 305 332 609 1540 1880 3320 8760
2020-05-11 14:30 4.08 1450 26700 (1943) 30 (1956) 1690 131 193 305 332 609 1540 1880 3320 8760
2020-05-11 13:30 4.12 1480 26700 (1943) 30 (1956) 1690 131 193 305 332 609 1540 1880 3320 8760
2020-05-11 12:30 4.15 1500 26700 (1943) 30 (1956) 1690 131 193 305 332 609 1540 1880 3320 8760
2020-05-11 11:30 4.14 1490 26700 (1943) 30 (1956) 1690 131 193 305 332 609 1540 1880 3320 8760
2020-05-11 10:30 4.10 1460 26700 (1943) 30 (1956) 1690 131 193 305 332 609 1540 1880 3320 8760
2020-05-11 09:30 4.17 1510 26700 (1943) 30 (1956) 1690 131 193 305 332 609 1540 1880 3320 8760
2020-05-11 08:30 4.20 1540 26700 (1943) 30 (1956) 1690 131 193 305 332 609 1540 1880 3320 8760
2020-05-11 07:30 4.21 1550 26700 (1943) 30 (1956) 1690 131 193 305 332 609 1540 1880 3320 8760
2020-05-11 06:30 4.22 1550 26700 (1943) 30 (1956) 1690 131 193 305 332 609 1540 1880 3320 8760
2020-05-11 05:30 4.22 1550 26700 (1943) 30 (1956) 1690 131 193 305 332 609 1540 1880 3320 8760
2020-05-11 04:30 4.26 1580 26700 (1943) 30 (1956) 1690 131 193 305 332 609 1540 1880 3320 8760
2020-05-11 03:30 4.28 1590 26700 (1943) 30 (1956) 1690 131 193 305 332 609 1540 1880 3320 8760
2020-05-11 02:30 4.30 1610 26700 (1943) 30 (1956) 1690 131 193 305 332 609 1540 1880 3320 8760
2020-05-11 01:30 4.36 1650 26700 (1943) 30 (1956) 1690 131 193 305 332 609 1540 1880 3320 8760
2020-05-11 00:30 4.34 1640 26700 (1943) 30 (1956) 1690 131 193 305 332 609 1540 1880 3320 8760
2020-05-10 23:30 4.40 1690 24100 (2002) 30 (1956) 1880 144 196 299 345 565 1540 1860 4540 12300
2020-05-10 22:30 4.37 1660 24100 (2002) 30 (1956) 1880 144 196 299 345 565 1540 1860 4540 12300
2020-05-10 21:30 4.42 1700 24100 (2002) 30 (1956) 1880 144 196 299 345 565 1540 1860 4540 12300
2020-05-10 20:30 4.41 1690 24100 (2002) 30 (1956) 1880 144 196 299 345 565 1540 1860 4540 12300
2020-05-10 19:30 4.48 1750 24100 (2002) 30 (1956) 1880 144 196 299 345 565 1540 1860 4540 12300
2020-05-10 18:30 4.52 1780 24100 (2002) 30 (1956) 1880 144 196 299 345 565 1540 1860 4540 12300
2020-05-10 17:30 4.56 1810 24100 (2002) 30 (1956) 1880 144 196 299 345 565 1540 1860 4540 12300
2020-05-10 16:30 4.61 1860 24100 (2002) 30 (1956) 1880 144 196 299 345 565 1540 1860 4540 12300
2020-05-10 15:30 4.64 1880 24100 (2002) 30 (1956) 1880 144 196 299 345 565 1540 1860 4540 12300
2020-05-10 14:30 4.68 1920 24100 (2002) 30 (1956) 1880 144 196 299 345 565 1540 1860 4540 12300
2020-05-10 13:30 4.72 1950 24100 (2002) 30 (1956) 1880 144 196 299 345 565 1540 1860 4540 12300
2020-05-10 12:30 4.80 2010 24100 (2002) 30 (1956) 1880 144 196 299 345 565 1540 1860 4540 12300
2020-05-10 11:30 4.81 2020 24100 (2002) 30 (1956) 1880 144 196 299 345 565 1540 1860 4540 12300
2020-05-10 10:30 4.90 2090 24100 (2002) 30 (1956) 1880 144 196 299 345 565 1540 1860 4540 12300
2020-05-10 09:30 4.93 2120 24100 (2002) 30 (1956) 1880 144 196 299 345 565 1540 1860 4540 12300
2020-05-10 08:30 5.01 2190 24100 (2002) 30 (1956) 1880 144 196 299 345 565 1540 1860 4540 12300
2020-05-10 07:30 5.08 2250 24100 (2002) 30 (1956) 1880 144 196 299 345 565 1540 1860 4540 12300
2020-05-10 06:30 5.15 2310 24100 (2002) 30 (1956) 1880 144 196 299 345 565 1540 1860 4540 12300
2020-05-10 05:30 5.23 2380 24100 (2002) 30 (1956) 1880 144 196 299 345 565 1540 1860 4540 12300
2020-05-10 04:30 5.35 2480 24100 (2002) 30 (1956) 1880 144 196 299 345 565 1540 1860 4540 12300
2020-05-10 03:30 5.37 2490 24100 (2002) 30 (1956) 1880 144 196 299 345 565 1540 1860 4540 12300
2020-05-10 02:30 5.52 2630 24100 (2002) 30 (1956) 1880 144 196 299 345 565 1540 1860 4540 12300
2020-05-10 01:30 5.57 2680 24100 (2002) 30 (1956) 1880 144 196 299 345 565 1540 1860 4540 12300
2020-05-10 00:30 5.69 2790 24100 (2002) 30 (1956) 1880 144 196 299 345 565 1540 1860 4540 12300
2020-05-09 23:30 5.78 2870 40200 (1961) 32 (1956) 2410 143 184 296 322 539 1710 2120 6140 10300
2020-05-09 22:30 5.79 2880 40200 (1961) 32 (1956) 2410 143 184 296 322 539 1710 2120 6140 10300
2020-05-09 21:30 5.95 3010 40200 (1961) 32 (1956) 2410 143 184 296 322 539 1710 2120 6140 10300
2020-05-09 20:30 6.09 3140 40200 (1961) 32 (1956) 2410 143 184 296 322 539 1710 2120 6140 10300
2020-05-09 19:30 6.15 3200 40200 (1961) 32 (1956) 2410 143 184 296 322 539 1710 2120 6140 10300
2020-05-09 18:30 6.22 3260 40200 (1961) 32 (1956) 2410 143 184 296 322 539 1710 2120 6140 10300
2020-05-09 17:30 6.33 3360 40200 (1961) 32 (1956) 2410 143 184 296 322 539 1710 2120 6140 10300
2020-05-09 16:30 6.41 3440 40200 (1961) 32 (1956) 2410 143 184 296 322 539 1710 2120 6140 10300
2020-05-09 15:30 6.47 3490 40200 (1961) 32 (1956) 2410 143 184 296 322 539 1710 2120 6140 10300
2020-05-09 14:30 6.50 3520 40200 (1961) 32 (1956) 2410 143 184 296 322 539 1710 2120 6140 10300
2020-05-09 13:30 6.57 3590 40200 (1961) 32 (1956) 2410 143 184 296 322 539 1710 2120 6140 10300
2020-05-09 12:30 6.64 3660 40200 (1961) 32 (1956) 2410 143 184 296 322 539 1710 2120 6140 10300
2020-05-09 11:30 6.68 3690 40200 (1961) 32 (1956) 2410 143 184 296 322 539 1710 2120 6140 10300
2020-05-09 10:30 6.73 3740 40200 (1961) 32 (1956) 2410 143 184 296 322 539 1710 2120 6140 10300
2020-05-09 09:30 6.77 3780 40200 (1961) 32 (1956) 2410 143 184 296 322 539 1710 2120 6140 10300
2020-05-09 08:30 6.88 3880 40200 (1961) 32 (1956) 2410 143 184 296 322 539 1710 2120 6140 10300
2020-05-09 07:30 6.91 3910 40200 (1961) 32 (1956) 2410 143 184 296 322 539 1710 2120 6140 10300
2020-05-09 06:30 6.96 3960 40200 (1961) 32 (1956) 2410 143 184 296 322 539 1710 2120 6140 10300
2020-05-09 05:30 7.04 4040 40200 (1961) 32 (1956) 2410 143 184 296 322 539 1710 2120 6140 10300
2020-05-09 04:30 7.16 4160 40200 (1961) 32 (1956) 2410 143 184 296 322 539 1710 2120 6140 10300
2020-05-09 03:30 7.22 4220 40200 (1961) 32 (1956) 2410 143 184 296 322 539 1710 2120 6140 10300
2020-05-09 02:30 7.22 4220 40200 (1961) 32 (1956) 2410 143 184 296 322 539 1710 2120 6140 10300
2020-05-09 01:30 7.30 4300 40200 (1961) 32 (1956) 2410 143 184 296 322 539 1710 2120 6140 10300
2020-05-09 00:30 7.43 4420 40200 (1961) 32 (1956) 2410 143 184 296 322 539 1710 2120 6140 10300
2020-05-08 23:30 7.41 4400 25000 (1961) 30 (1956) 2140 141 173 265 322 514 1160 2090 5920 13700
2020-05-08 22:30 7.49 4480 25000 (1961) 30 (1956) 2140 141 173 265 322 514 1160 2090 5920 13700
2020-05-08 21:30 7.46 4450 25000 (1961) 30 (1956) 2140 141 173 265 322 514 1160 2090 5920 13700
2020-05-08 20:30 7.46 4450 25000 (1961) 30 (1956) 2140 141 173 265 322 514 1160 2090 5920 13700
2020-05-08 19:30 7.48 4470 25000 (1961) 30 (1956) 2140 141 173 265 322 514 1160 2090 5920 13700
2020-05-08 18:30 7.44 4430 25000 (1961) 30 (1956) 2140 141 173 265 322 514 1160 2090 5920 13700
2020-05-08 17:30 7.29 4290 25000 (1961) 30 (1956) 2140 141 173 265 322 514 1160 2090 5920 13700
2020-05-08 16:30 7.17 4170 25000 (1961) 30 (1956) 2140 141 173 265 322 514 1160 2090 5920 13700
2020-05-08 15:30 6.89 3890 25000 (1961) 30 (1956) 2140 141 173 265 322 514 1160 2090 5920 13700
2020-05-08 14:30 6.66 3680 25000 (1961) 30 (1956) 2140 141 173 265 322 514 1160 2090 5920 13700
2020-05-08 13:30 6.49 3510 25000 (1961) 30 (1956) 2140 141 173 265 322 514 1160 2090 5920 13700
2020-05-08 12:30 6.17 3220 25000 (1961) 30 (1956) 2140 141 173 265 322 514 1160 2090 5920 13700
2020-05-08 11:30 5.84 2910 25000 (1961) 30 (1956) 2140 141 173 265 322 514 1160 2090 5920 13700
2020-05-08 10:30 5.54 2650 25000 (1961) 30 (1956) 2140 141 173 265 322 514 1160 2090 5920 13700
2020-05-08 09:30 5.18 2340 25000 (1961) 30 (1956) 2140 141 173 265 322 514 1160 2090 5920 13700
2020-05-08 08:30 4.89 2080 25000 (1961) 30 (1956) 2140 141 173 265 322 514 1160 2090 5920 13700
2020-05-08 07:30 4.67 1910 25000 (1961) 30 (1956) 2140 141 173 265 322 514 1160 2090 5920 13700
2020-05-08 06:30 4.55 1810 25000 (1961) 30 (1956) 2140 141 173 265 322 514 1160 2090 5920 13700
2020-05-08 05:30 4.52 1780 25000 (1961) 30 (1956) 2140 141 173 265 322 514 1160 2090 5920 13700
2020-05-08 04:30 4.47 1740 25000 (1961) 30 (1956) 2140 141 173 265 322 514 1160 2090 5920 13700
2020-05-08 03:30 4.42 1700 25000 (1961) 30 (1956) 2140 141 173 265 322 514 1160 2090 5920 13700
2020-05-08 02:30 4.38 1670 25000 (1961) 30 (1956) 2140 141 173 265 322 514 1160 2090 5920 13700
2020-05-08 01:30 4.37 1660 25000 (1961) 30 (1956) 2140 141 173 265 322 514 1160 2090 5920 13700
2020-05-08 00:30 4.38 1670 25000 (1961) 30 (1956) 2140 141 173 265 322 514 1160 2090 5920 13700
2020-05-07 23:30 4.38 1670 16400 (1961) 30 (1956) 1670 149 178 274 337 539 1150 1720 4410 9270
2020-05-07 22:30 4.36 1650 16400 (1961) 30 (1956) 1670 149 178 274 337 539 1150 1720 4410 9270
2020-05-07 21:30 4.39 1680 16400 (1961) 30 (1956) 1670 149 178 274 337 539 1150 1720 4410 9270
2020-05-07 20:30 4.37 1660 16400 (1961) 30 (1956) 1670 149 178 274 337 539 1150 1720 4410 9270
2020-05-07 19:30 4.38 1670 16400 (1961) 30 (1956) 1670 149 178 274 337 539 1150 1720 4410 9270
2020-05-07 18:30 4.41 1690 16400 (1961) 30 (1956) 1670 149 178 274 337 539 1150 1720 4410 9270
2020-05-07 17:30 4.43 1710 16400 (1961) 30 (1956) 1670 149 178 274 337 539 1150 1720 4410 9270
2020-05-07 16:30 4.45 1720 16400 (1961) 30 (1956) 1670 149 178 274 337 539 1150 1720 4410 9270
2020-05-07 15:30 4.40 1690 16400 (1961) 30 (1956) 1670 149 178 274 337 539 1150 1720 4410 9270
2020-05-07 14:30 4.45 1720 16400 (1961) 30 (1956) 1670 149 178 274 337 539 1150 1720 4410 9270
2020-05-07 13:30 4.45 1720 16400 (1961) 30 (1956) 1670 149 178 274 337 539 1150 1720 4410 9270
2020-05-07 12:30 4.47 1740 16400 (1961) 30 (1956) 1670 149 178 274 337 539 1150 1720 4410 9270
2020-05-07 11:30 4.49 1760 16400 (1961) 30 (1956) 1670 149 178 274 337 539 1150 1720 4410 9270
2020-05-07 10:30 4.51 1770 16400 (1961) 30 (1956) 1670 149 178 274 337 539 1150 1720 4410 9270
2020-05-07 09:30 4.57 1820 16400 (1961) 30 (1956) 1670 149 178 274 337 539 1150 1720 4410 9270
2020-05-07 08:30 4.58 1830 16400 (1961) 30 (1956) 1670 149 178 274 337 539 1150 1720 4410 9270
2020-05-07 07:30 4.56 1810 16400 (1961) 30 (1956) 1670 149 178 274 337 539 1150 1720 4410 9270
2020-05-07 06:30 4.59 1840 16400 (1961) 30 (1956) 1670 149 178 274 337 539 1150 1720 4410 9270
2020-05-07 05:30 4.64 1880 16400 (1961) 30 (1956) 1670 149 178 274 337 539 1150 1720 4410 9270
2020-05-07 04:30 4.70 1930 16400 (1961) 30 (1956) 1670 149 178 274 337 539 1150 1720 4410 9270
2020-05-07 03:30 4.70 1930 16400 (1961) 30 (1956) 1670 149 178 274 337 539 1150 1720 4410 9270
2020-05-07 02:30 4.75 1970 16400 (1961) 30 (1956) 1670 149 178 274 337 539 1150 1720 4410 9270
2020-05-07 01:30 4.76 1980 16400 (1961) 30 (1956) 1670 149 178 274 337 539 1150 1720 4410 9270
2020-05-07 00:30 4.81 2020 16400 (1961) 30 (1956) 1670 149 178 274 337 539 1150 1720 4410 9270
2020-05-06 23:30 4.84 2040 22900 (1961) 38 (1956) 1550 151 196 314 350 528 1220 1340 2770 6390
2020-05-06 22:30 4.90 2090 22900 (1961) 38 (1956) 1550 151 196 314 350 528 1220 1340 2770 6390
2020-05-06 21:30 4.92 2110 22900 (1961) 38 (1956) 1550 151 196 314 350 528 1220 1340 2770 6390
2020-05-06 20:30 4.97 2150 22900 (1961) 38 (1956) 1550 151 196 314 350 528 1220 1340 2770 6390
2020-05-06 19:30 4.99 2170 22900 (1961) 38 (1956) 1550 151 196 314 350 528 1220 1340 2770 6390
2020-05-06 18:30 5.05 2220 22900 (1961) 38 (1956) 1550 151 196 314 350 528 1220 1340 2770 6390
2020-05-06 17:30 5.09 2260 22900 (1961) 38 (1956) 1550 151 196 314 350 528 1220 1340 2770 6390
2020-05-06 16:30 5.08 2250 22900 (1961) 38 (1956) 1550 151 196 314 350 528 1220 1340 2770 6390
2020-05-06 15:30 5.19 2340 22900 (1961) 38 (1956) 1550 151